GFSGL_sfc_dewp_000.txt.gz
Dewpoint
32 34 34 34 34 32 31 32 33 35 34 32 33 33 34 35 35 35 35 34 33 32 31 30 29 29 29 30 31 31 31 31 29 28 30 31 33 34 33 35 39 39 41
35 34 33 32 29 29 30 30 31 30 30 30 31 31 31 31 31 31 30 29 28 27 27 27 27 25 28 29 29 29 30 30 29 27 30 30 31 33 35 35 35 37 38
35 34 29 26 26 28 29 32 34 34 33 32 30 30 31 31 29 28 27 27 26 26 26 26 26 26 25 26 26 26 27 27 28 29 27 30 31 32 33 34 35 36 35
36 33 31 30 28 30 35 36 35 35 33 33 32 32 31 27 25 25 25 25 24 23 24 24 23 23 23 23 23 23 24 25 25 25 25 25 28 29 30 28 29 33 31
37 37 35 36 37 36 36 37 37 36 36 37 35 28 26 24 22 26 24 23 23 23 24 23 23 24 25 25 23 24 25 25 26 25 24 24 23 24 25 25 26 27 30
37 37 38 39 37 37 37 37 37 36 36 37 29 24 23 22 30 27 28 26 25 24 23 22 23 25 25 26 26 26 26 24 24 23 23 22 21 22 23 23 24 24 23
34 29 30 31 33 35 35 35 33 28 25 23 22 23 24 25 28 28 27 25 25 24 23 23 23 22 24 24 26 26 26 26 26 26 26 25 23 23 23 25 25 25 24
27 30 31 30 27 26 24 23 23 21 20 20 22 25 24 22 25 25 25 24 23 23 23 23 23 24 24 24 24 24 25 25 25 24 25 25 26 26 25 24 24 26 27
31 32 31 25 24 24 22 20 20 19 20 22 24 23 21 21 24 24 23 22 21 21 23 23 24 23 25 26 26 26 25 25 26 27 29 29 28 28 28 26 26 26 24
27 26 23 24 24 22 19 19 19 20 22 22 20 21 21 21 23 24 23 22 21 23 23 23 24 24 26 27 27 26 25 25 25 27 26 26 28 29 30 28 29 26 25
25 24 24 24 23 19 19 19 19 20 21 17 15 17 19 21 21 23 23 23 24 24 24 23 24 27 25 25 25 25 25 26 28 29 28 26 28 28 29 30 30 30 27
24 23 23 23 21 18 19 19 18 19 18 16 12 15 18 16 22 22 22 23 25 25 24 25 26 24 23 23 23 24 25 25 25 26 26 26 26 27 27 28 28 29 29
23 22 22 23 21 19 19 19 19 18 17 16 20 18 18 20 19 21 22 24 26 25 27 28 25 22 21 21 22 23 23 23 23 24 25 25 26 27 29 30 30 29 30
23 22 23 22 22 19 19 19 19 17 16 19 17 17 19 17 18 19 24 24 25 27 26 25 23 22 19 19 20 21 21 22 22 23 24 26 28 28 28 29 28 28 28
23 23 23 23 21 21 20 19 21 20 17 18 16 16 17 16 19 24 24 24 25 25 24 22 19 17 16 17 17 17 19 20 20 21 23 24 26 26 26 28 28 28 27
23 24 21 20 19 21 18 18 21 20 21 19 19 19 19 21 23 23 24 25 24 23 20 17 16 15 14 16 16 15 15 16 17 19 21 23 24 24 24 25 26 27 26
19 21 19 19 17 16 15 15 10 14 19 18 19 18 18 20 22 22 22 22 21 19 16 16 14 14 14 14 15 15 14 15 17 17 18 19 21 24 24 24 25 26 26
15 16 16 15 12 12 5 8 4 4 5 9 15 16 17 19 20 20 19 17 14 14 14 14 12 13 13 13 12 12 14 14 14 14 16 17 17 19 19 21 22 22 22
24 19 10 8 8 7 5 5 3 4 3 8 12 12 13 16 17 17 16 12 10 11 11 11 12 12 12 12 11 11 11 13 13 11 13 14 14 17 20 17 16 15 18
22 19 13 13 10 10 8 6 7 5 8 11 8 8 13 13 11 10 11 11 10 10 9 9 10 10 10 10 11 10 11 12 13 11 9 9 10 12 12 14 12 13 14
17 17 16 14 12 10 6 5 4 5 8 10 5 6 13 11 10 10 10 9 9 9 8 8 8 8 9 9 10 8 9 11 12 12 9 9 6 9 11 11 11 13 14
18 14 14 10 10 5 5 5 1 4 7 7 6 8 12 9 9 10 10 9 9 9 9 8 6 7 8 8 8 7 8 8 10 10 8 8 8 7 8 8 9 10 11
21 13 10 12 7 3 1 1 -2 -4 3 2 3 7 9 8 8 10 9 8 9 8 8 7 6 5 6 6 7 8 8 8 7 6 7 5 7 7 7 9 9 10 10
15 12 16 9 -1 5 -4 -5 -7 -1 3 -0 -1 1 6 7 8 8 8 7 8 8 7 6 6 5 5 5 5 6 6 8 6 5 1 3 5 4 5 7 9 8 9
21 22 13 4 1 1 -2 -5 -7 -8 -6 -4 -2 1 5 7 9 9 9 8 8 7 7 6 6 5 5 5 4 3 2 3 3 1 4 2 0 0 -0 2 1 5 5
24 23 18 8 2 2 2 -1 -4 -8 -6 -2 -4 0 2 4 7 8 10 10 9 8 8 7 6 5 5 6 5 5 1 0 1 -0 0 3 1 -1 -1 -1 -1 1 1

GFSGL_sfc_dewp_003.txt.gz
Dewpoint
38 38 38 37 34 33 34 35 36 37 34 33 32 33 34 35 34 34 34 32 30 30 31 31 30 30 27 27 27 26 25 24 23 22 23 26 28 28 26 29 31 31 32
37 37 37 33 30 32 34 35 37 36 34 33 32 34 35 32 34 31 29 27 25 24 24 26 25 22 27 28 27 28 27 27 25 24 24 26 28 28 30 31 28 28 32
37 37 34 33 31 32 37 38 38 37 36 36 37 35 33 30 28 26 25 25 25 26 26 26 25 25 24 24 24 24 24 22 24 23 22 23 25 26 26 27 28 30 28
38 37 37 36 36 37 38 38 38 36 35 34 35 36 33 26 23 23 23 25 24 23 24 23 22 22 21 21 20 21 20 21 21 21 20 20 21 23 25 24 26 29 28
38 37 37 39 38 37 34 32 33 34 35 35 36 33 26 23 18 25 24 23 23 23 24 22 23 23 25 24 22 22 23 22 22 21 21 21 22 22 23 24 25 27 28
34 30 30 30 30 31 32 33 32 29 25 25 24 23 24 21 31 27 28 25 24 23 22 21 21 23 23 25 26 26 26 23 22 22 21 20 20 20 20 21 23 23 22
28 28 31 32 28 25 24 23 23 23 23 22 22 23 24 25 26 26 26 22 22 22 20 19 18 17 22 22 23 25 25 26 26 25 24 23 23 23 22 23 24 23 22
28 32 32 28 23 23 23 22 21 21 21 20 23 24 21 19 23 24 24 23 24 23 21 20 20 21 22 23 22 22 23 24 24 23 24 23 23 23 24 24 23 23 24
28 30 26 23 23 23 21 20 21 20 20 21 19 20 19 20 22 22 23 25 24 23 21 21 21 22 23 26 25 26 25 23 24 28 28 29 29 29 28 26 27 25 26
28 26 23 23 22 21 20 19 20 19 19 19 19 19 21 23 22 23 23 23 24 22 23 23 24 24 26 27 28 27 25 23 24 29 28 27 28 30 30 29 29 25 23
27 25 23 22 22 21 19 19 18 18 22 25 25 24 23 22 22 22 21 24 23 23 23 23 25 27 28 25 25 26 24 23 25 26 25 25 26 29 27 28 30 30 27
26 24 22 21 21 19 18 19 18 20 23 24 24 23 22 23 21 21 21 23 23 26 25 26 29 25 23 22 21 22 24 24 24 24 25 24 26 27 27 26 26 28 30
25 24 22 22 21 20 18 19 18 19 22 21 19 20 19 20 21 20 22 23 22 26 28 26 24 23 21 19 20 22 22 23 24 24 24 25 27 28 29 32 32 29 31
24 23 22 22 22 22 20 20 18 22 21 19 19 18 18 18 19 21 22 23 23 26 27 25 23 22 20 19 20 20 22 22 22 22 23 25 28 30 29 30 29 30 30
23 22 23 24 23 21 21 19 21 22 21 20 18 18 19 19 20 23 23 23 25 24 25 23 20 19 17 17 18 19 20 20 21 22 23 25 27 27 28 30 29 29 28
23 23 25 24 23 21 19 19 20 20 20 19 19 20 20 19 21 22 22 23 23 22 20 18 17 18 17 16 17 17 18 18 19 20 22 23 25 26 26 28 27 28 28
25 26 25 22 23 22 21 21 20 19 19 17 18 17 17 18 20 20 20 20 20 19 16 16 15 16 16 15 15 16 16 18 19 19 21 22 24 26 27 27 27 27 26
26 22 25 23 23 22 22 21 20 19 19 18 17 16 16 17 18 18 18 16 14 14 14 14 14 14 14 14 14 15 16 18 18 18 20 21 22 24 25 25 26 27 27
27 25 25 25 24 22 22 21 20 20 19 17 16 14 15 15 14 15 15 13 12 11 12 12 13 13 13 14 15 16 17 18 18 19 19 19 20 21 22 23 25 22 24
26 23 20 24 24 23 22 20 19 19 18 17 15 14 14 13 14 13 14 13 12 11 10 10 11 12 13 14 15 16 17 18 18 18 19 20 21 21 21 22 23 23 22
25 24 21 23 23 22 21 20 19 19 19 17 16 16 14 13 13 13 12 11 10 8 9 10 11 12 13 14 14 15 15 17 16 17 18 19 20 20 20 21 22 21 20
25 24 25 23 23 23 21 20 19 18 18 17 16 15 13 14 13 12 11 10 11 10 10 10 10 10 11 11 12 14 15 15 15 16 18 19 19 20 20 20 20 20 20
25 26 25 23 22 20 22 20 19 19 19 18 16 15 14 14 13 13 12 12 11 10 10 10 10 9 10 11 12 12 12 13 14 14 15 18 19 19 20 19 18 18 18
26 26 25 25 23 22 22 21 20 16 17 19 18 16 15 14 14 14 13 13 12 11 11 10 9 9 8 9 10 10 9 11 12 13 13 15 16 17 18 18 18 17 17
26 26 26 25 24 23 21 22 21 19 19 19 19 18 16 15 14 14 15 14 12 12 10 10 9 8 9 8 8 7 6 5 7 8 14 13 13 13 13 14 15 16 15
27 27 27 26 24 22 22 21 22 20 19 19 19 18 17 16 14 14 14 14 13 12 10 10 10 8 8 7 7 7 5 5 6 4 12 12 12 12 12 12 12 14 13

GFSGL_sfc_dewp_006.txt.gz
Dewpoint
40 39 39 38 36 36 36 37 37 38 35 34 33 35 35 37 39 39 37 35 30 29 29 27 26 26 25 24 25 25 24 23 21 21 21 23 26 28 27 29 29 29 29
37 36 37 36 35 35 36 37 37 37 37 36 37 38 38 37 35 32 32 29 27 25 25 26 24 17 24 24 24 25 24 25 23 22 23 22 25 26 28 29 25 22 26
35 34 34 36 36 36 37 37 38 38 37 38 36 35 35 34 33 30 26 25 26 26 25 24 23 24 24 24 24 24 23 19 22 21 21 22 22 24 24 26 27 28 24
35 34 35 36 38 38 38 36 35 33 32 31 30 29 30 26 24 23 22 24 24 23 24 25 24 24 23 23 21 21 20 20 20 19 19 19 20 22 22 22 23 25 25
35 33 33 33 32 31 31 29 28 27 23 23 22 23 23 22 18 26 22 24 24 24 25 23 24 24 25 25 22 21 21 20 20 19 19 20 20 21 21 23 23 25 26
33 31 30 31 29 28 27 26 23 22 22 22 22 22 23 18 28 27 27 24 22 21 21 22 21 24 24 26 25 25 26 24 22 21 20 21 22 22 23 23 26 25 23
31 29 30 31 26 25 22 19 20 22 23 23 23 23 24 23 24 24 25 21 21 21 22 21 18 15 22 21 24 27 26 26 26 24 23 23 23 24 25 26 26 25 24
30 29 30 27 23 21 20 20 22 22 22 22 23 23 22 19 24 23 23 22 23 23 22 21 20 20 21 23 22 22 23 24 25 24 25 23 23 23 25 24 25 27 28
28 28 28 25 22 19 19 21 22 22 22 22 22 22 21 21 24 23 23 24 23 23 21 20 21 23 24 25 26 28 25 24 25 28 28 28 28 29 29 27 30 27 29
28 30 26 25 22 19 21 22 23 22 21 22 24 24 24 24 23 22 22 23 25 24 24 24 25 25 26 26 29 28 25 22 23 26 26 30 30 27 29 29 29 26 26
27 28 26 24 20 20 22 22 22 22 24 28 29 27 25 24 22 21 21 23 25 23 22 24 25 28 27 25 24 26 24 25 23 22 23 24 25 27 29 30 30 31 28
28 27 26 22 20 19 22 22 22 23 24 27 29 28 23 28 20 20 21 23 25 26 25 26 30 25 24 22 21 22 22 23 25 26 26 25 25 26 26 28 29 29 30
27 26 25 22 21 22 22 23 22 21 24 24 20 21 19 21 21 21 23 23 22 25 28 27 23 23 23 22 22 21 23 27 26 26 26 26 28 28 30 31 31 29 29
26 24 24 23 22 23 23 22 19 23 23 20 19 18 18 18 19 21 22 23 23 25 24 28 25 24 24 25 24 23 25 25 24 24 25 26 28 30 31 31 30 31 30
22 22 23 24 25 24 22 20 21 23 22 20 19 19 20 19 20 22 23 22 24 23 24 25 22 21 22 21 20 21 22 22 24 24 25 26 27 27 30 30 30 30 30
23 23 26 27 27 25 20 20 22 21 19 18 18 20 20 18 20 20 21 22 21 21 22 20 19 20 20 19 19 20 21 21 22 23 26 26 26 27 28 30 28 29 29
28 28 28 27 26 24 24 23 22 21 20 18 17 17 17 17 18 19 19 20 20 19 18 18 18 19 19 17 18 19 19 21 23 23 24 25 25 25 29 29 30 29 27
29 28 28 27 26 26 25 24 23 22 21 21 18 15 15 16 16 16 17 18 16 16 16 16 17 17 16 15 16 17 19 21 21 21 22 24 24 25 25 26 28 29 30
26 26 29 30 28 26 26 24 23 22 20 19 17 14 16 15 15 15 16 17 15 14 14 15 16 15 15 15 18 18 21 21 21 23 22 22 24 24 23 23 24 26 27
23 25 26 27 26 25 24 23 21 21 20 19 17 16 16 16 17 17 17 16 14 10 12 11 13 14 16 17 18 19 19 20 20 20 22 23 23 24 23 22 23 24 23
24 24 25 25 24 24 24 22 22 21 20 19 18 19 14 16 15 15 14 13 12 11 12 12 14 15 15 16 15 17 17 19 19 19 20 22 24 23 23 22 22 22 21
26 27 27 26 25 25 24 23 22 22 20 19 19 18 14 17 15 15 14 14 14 13 12 13 13 13 14 14 15 17 16 17 18 18 19 22 22 23 23 22 22 22 20
27 28 26 24 26 24 25 23 23 23 22 21 20 18 18 18 17 15 15 15 14 13 13 13 13 11 12 14 15 15 15 15 17 18 17 19 19 20 22 22 20 21 20
27 29 26 27 27 25 25 24 24 22 22 21 22 21 19 19 18 17 17 17 15 15 14 13 11 10 11 12 13 12 11 13 15 15 17 17 17 18 19 18 19 18 19
29 29 29 28 27 25 24 24 24 24 23 22 22 22 20 19 17 17 18 18 16 15 12 12 12 10 10 9 10 10 10 9 10 10 16 16 15 15 16 17 17 17 17
28 29 29 29 28 27 25 24 24 24 23 23 22 22 21 19 18 17 17 15 15 14 11 12 12 10 10 9 8 8 7 8 9 9 14 14 14 14 15 14 14 15 15

GFSGL_sfc_dewp_012.txt.gz
Dewpoint
41 41 41 40 39 39 39 39 38 38 38 37 37 35 35 36 38 39 38 38 36 35 35 34 33 32 31 31 30 29 28 29 28 26 28 28 29 32 31 35 35 31 35
39 38 37 38 37 37 37 36 36 36 37 35 34 33 33 33 33 34 34 33 33 32 31 31 31 26 28 28 27 26 27 27 26 23 25 26 25 27 28 30 28 25 30
36 34 35 35 35 35 35 35 35 35 33 31 28 27 26 27 26 26 25 27 26 25 24 25 25 26 25 26 26 26 26 24 25 23 23 24 24 25 25 26 27 29 28
34 33 34 35 34 33 34 33 33 32 29 27 27 27 28 24 23 25 24 25 25 23 24 24 24 24 25 26 26 26 23 23 22 22 21 21 22 23 25 23 24 27 28
35 33 35 34 33 33 34 33 32 30 27 27 26 26 26 24 21 25 24 23 23 22 23 22 23 26 29 28 22 23 23 22 22 21 21 22 22 23 24 27 27 28 29
36 35 34 34 33 34 34 33 30 28 26 26 26 26 26 20 28 26 26 24 23 22 21 21 22 26 26 29 29 30 27 21 20 20 20 20 20 22 24 25 26 25 24
36 34 36 36 35 34 32 28 25 26 27 27 26 26 26 26 28 27 26 23 22 21 21 21 21 20 25 23 27 28 28 30 28 24 22 23 22 22 22 23 24 25 25
29 33 38 35 34 31 30 28 26 26 26 26 27 26 26 23 29 28 27 23 22 21 21 20 20 21 23 24 23 24 24 24 26 25 26 27 26 25 26 27 28 28 27
22 34 35 34 30 31 28 26 26 26 26 26 26 27 26 26 29 29 28 24 24 22 20 21 22 21 23 25 24 24 24 25 26 28 32 33 31 30 30 28 26 25 24
31 32 34 34 32 31 30 26 26 25 25 28 28 28 28 26 29 28 26 24 22 22 23 23 24 24 29 26 27 27 26 26 24 24 24 24 24 24 30 31 30 25 23
32 33 35 36 34 33 28 25 25 25 27 29 29 29 28 27 26 24 26 24 23 22 22 21 23 28 29 27 25 25 24 24 24 23 22 21 23 24 25 26 28 30 26
33 32 32 32 31 26 26 26 25 24 27 27 25 26 26 26 24 23 25 21 21 23 22 24 25 24 25 24 24 26 26 24 23 22 23 24 26 27 28 27 28 30 31
29 30 30 30 27 25 24 23 23 24 26 25 23 22 21 22 21 21 20 20 20 22 24 24 25 27 24 26 26 26 26 25 25 25 24 26 28 28 29 29 30 32 32
28 28 28 26 25 24 23 23 23 26 26 24 22 20 19 20 19 19 20 21 20 21 21 22 25 24 24 24 26 25 26 27 25 26 25 27 29 29 30 31 32 31 29
27 27 27 29 28 26 23 24 27 26 23 22 22 21 18 16 17 18 19 20 21 22 21 23 21 20 20 22 22 22 24 24 24 24 25 26 27 28 27 28 30 26 27
28 28 28 28 29 26 24 24 25 24 21 20 18 19 19 18 18 18 18 19 21 21 21 19 18 19 19 20 21 21 22 23 23 24 24 25 26 26 27 27 30 27 23
28 28 27 27 28 27 27 26 25 26 25 23 21 21 19 18 18 18 18 18 22 19 17 18 18 17 16 16 18 20 20 23 22 23 24 24 24 24 26 25 26 26 26
29 27 29 30 29 28 27 26 26 26 24 25 26 23 17 18 18 20 19 17 16 16 16 17 15 16 16 16 16 17 19 21 20 21 22 23 23 24 25 24 25 26 26
27 27 28 30 30 29 28 28 27 26 24 24 23 22 18 17 19 20 19 17 14 13 13 13 15 15 16 16 17 17 18 20 19 19 20 22 24 24 23 24 24 23 23
26 25 24 27 29 28 28 27 26 26 24 24 23 21 18 15 15 16 18 15 11 13 14 14 14 15 15 15 15 16 16 16 17 17 17 19 22 24 24 23 24 23 23
27 27 26 27 27 28 27 26 27 26 25 24 24 19 10 13 16 15 17 17 12 12 12 14 15 14 14 14 14 14 14 14 14 14 15 17 20 20 23 23 23 23 21
27 26 28 29 29 28 28 26 25 26 25 25 24 22 14 16 16 15 18 16 16 12 13 12 14 14 14 13 14 12 12 10 10 11 12 14 17 17 19 21 19 17 21
28 28 28 28 29 29 28 27 27 27 27 26 24 24 23 22 16 15 14 17 17 17 12 11 10 12 12 12 13 13 11 9 10 11 10 11 16 15 16 16 17 15 13
28 29 28 27 28 28 28 28 28 26 26 26 26 25 24 22 17 15 13 16 13 14 15 9 10 11 11 10 10 11 11 9 9 10 9 12 15 14 14 15 11 15 8
28 29 29 28 28 28 28 28 28 27 27 27 27 26 24 24 19 18 14 14 12 11 11 7 10 9 9 10 9 9 7 8 7 8 10 12 11 10 10 13 9 13 8
29 28 27 29 29 29 28 28 28 27 27 27 27 26 26 23 19 19 15 13 12 10 9 9 7 5 7 10 9 10 8 7 6 7 9 12 10 8 6 7 7 9 9

GFSGL_sfc_dewp_015.txt.gz
Dewpoint
37 37 36 36 37 37 37 36 34 35 34 35 35 34 33 34 34 35 35 36 36 34 34 30 29 30 33 35 34 31 29 28 26 25 27 27 26 28 30 39 40 40 40
37 36 35 36 34 34 34 33 33 32 34 34 30 28 28 27 28 27 27 28 27 27 26 26 25 24 25 27 28 27 27 27 26 23 24 24 24 25 26 26 27 29 32
35 34 33 34 33 32 30 32 32 32 29 27 26 27 27 28 26 26 26 27 26 25 25 24 23 23 23 24 26 27 26 24 23 23 22 24 23 24 24 25 25 27 25
35 35 36 37 36 33 32 31 31 30 26 25 25 26 27 26 26 25 24 25 24 24 25 24 23 23 23 24 24 25 25 24 23 21 21 22 23 24 25 23 25 27 27
37 36 37 38 35 36 37 36 36 30 26 25 25 26 26 25 23 25 25 24 23 23 24 22 22 24 26 27 26 25 25 23 22 21 21 21 21 22 22 25 25 27 27
36 34 38 38 37 38 38 38 33 27 24 24 25 25 26 23 29 27 25 24 23 23 21 20 21 23 24 25 27 29 28 26 22 21 20 20 20 21 22 22 23 23 23
24 34 39 39 38 37 37 36 27 23 23 25 25 25 25 26 29 28 28 25 23 22 21 21 19 17 22 23 25 26 27 27 28 28 26 23 22 23 23 22 22 23 23
31 33 36 36 36 37 37 33 24 24 23 24 25 26 26 25 29 30 30 26 24 23 22 21 20 21 23 23 22 23 24 24 25 25 27 26 26 26 26 25 26 30 27
31 32 34 35 35 35 35 26 24 24 25 26 27 27 26 26 29 28 27 25 24 24 23 22 21 21 23 27 25 25 25 26 26 27 28 29 30 31 32 31 28 27 23
33 33 36 36 36 35 35 32 25 24 27 28 27 27 28 26 26 24 28 26 22 22 22 21 22 22 28 28 26 24 23 22 23 24 24 23 23 24 25 25 26 25 26
33 33 32 34 35 35 34 28 24 24 27 26 25 25 25 24 23 23 23 22 21 21 20 20 22 23 24 27 25 25 23 24 25 23 22 21 22 22 24 25 25 26 24
30 30 31 31 30 28 26 23 23 25 24 23 15 18 22 22 21 21 20 19 19 20 21 21 23 27 25 24 25 27 27 25 23 23 23 23 23 25 27 30 31 29 28
29 28 29 29 27 25 23 22 23 24 21 22 22 16 19 21 19 19 20 20 20 21 22 23 25 23 24 25 26 26 26 26 25 24 24 25 26 27 29 30 30 31 31
28 28 27 27 28 25 23 24 24 21 19 22 20 18 16 18 17 19 19 18 21 22 21 23 23 23 23 24 23 23 24 24 23 23 23 25 28 29 29 30 29 32 30
28 28 27 27 26 26 23 23 25 22 21 19 18 17 6 5 16 21 19 19 21 22 20 20 19 19 18 20 20 21 21 23 22 23 23 24 25 26 27 28 30 27 24
27 27 26 26 25 26 25 25 26 25 24 21 20 15 12 17 20 19 19 19 21 19 18 17 17 16 16 17 18 18 19 21 21 22 23 23 23 24 25 25 24 24 24
27 27 26 26 25 24 23 23 19 24 28 27 23 22 21 18 19 20 19 16 16 16 15 15 15 14 15 16 16 17 17 21 21 20 21 21 23 23 24 23 23 24 24
26 25 24 23 22 22 25 25 26 24 16 22 24 25 18 18 18 19 19 16 11 13 13 14 14 14 15 15 15 16 16 18 18 18 19 19 21 22 19 21 21 17 23
27 25 22 19 19 26 26 26 25 25 24 20 19 21 16 16 19 19 19 8 5 7 11 13 15 15 14 14 14 14 15 14 14 14 16 17 18 21 21 18 18 18 20
26 23 21 20 21 26 26 25 25 25 24 22 18 14 12 10 3 1 2 0 0 5 4 11 14 14 13 13 13 12 12 11 11 11 12 13 16 19 19 20 20 18 16
24 23 21 22 23 26 26 25 25 24 24 22 17 12 8 7 4 4 4 2 3 3 0 5 6 9 11 10 13 11 10 8 8 9 9 10 12 15 17 19 18 18 19
21 20 20 20 26 26 26 26 24 23 24 23 18 15 10 3 9 8 5 4 2 3 3 3 3 6 10 10 11 7 8 5 6 7 8 8 10 14 14 14 16 12 12
18 16 22 26 26 24 25 25 25 23 23 23 22 14 12 9 7 8 6 3 4 4 2 2 -1 2 4 7 7 9 7 6 7 7 6 7 10 12 11 10 9 12 7
17 15 20 25 17 17 24 26 25 25 23 17 19 21 13 12 6 6 5 2 2 1 1 0 2 3 3 4 7 8 9 5 7 8 6 8 10 10 8 11 10 8 6
18 16 16 17 17 19 19 23 26 25 25 15 14 17 17 10 9 5 3 3 3 1 1 -0 -0 2 2 2 6 7 6 7 6 6 7 8 7 7 7 8 5 6 1
22 21 21 25 17 20 19 22 23 25 25 24 18 16 18 13 12 10 5 4 3 1 1 -1 0 -0 0 1 5 7 6 6 5 6 7 9 5 5 5 4 4 4 5

GFSGL_sfc_dewp_021.txt.gz
Dewpoint
37 37 37 36 36 37 37 36 35 34 36 36 36 35 29 28 27 27 27 28 26 25 25 25 25 25 25 24 25 25 25 27 25 25 28 27 23 23 23 26 26 27 36
36 35 34 35 35 34 35 35 35 35 34 33 32 31 28 28 27 25 26 26 25 24 24 24 24 21 23 23 23 22 23 25 25 22 25 24 23 23 23 23 23 23 28
34 32 32 35 36 35 35 34 34 33 34 34 35 30 28 27 26 25 25 24 23 24 24 24 24 23 21 21 21 22 23 24 25 25 24 24 24 23 23 23 24 26 24
28 31 34 36 36 35 34 33 34 36 36 36 34 29 29 27 26 24 23 23 24 23 24 24 23 22 20 20 20 20 25 25 25 26 25 23 23 23 23 22 23 25 23
28 33 34 35 36 36 36 36 36 37 37 36 31 27 27 26 23 24 24 24 24 24 24 24 23 23 25 22 18 20 21 22 24 27 25 25 24 21 20 21 22 22 22
31 34 36 36 37 36 36 36 37 36 32 32 27 27 26 23 29 29 30 27 26 25 25 24 23 23 23 22 23 23 23 23 22 23 23 23 25 21 21 21 21 20 19
32 33 35 34 34 34 36 36 35 34 34 26 26 26 25 25 30 30 28 27 25 25 23 22 20 18 21 20 22 23 24 26 26 26 24 23 23 23 23 21 21 21 21
31 32 33 33 34 34 34 34 31 30 28 25 26 25 25 26 25 24 27 23 22 22 19 19 20 20 21 21 24 26 22 25 24 24 27 26 24 25 24 23 23 24 24
31 32 32 33 34 34 33 32 31 31 25 26 25 25 23 21 22 21 22 22 21 19 19 19 19 20 23 27 26 25 23 23 23 24 24 25 27 29 30 28 25 25 23
30 31 31 31 31 32 32 32 31 25 27 25 24 24 22 21 21 20 20 20 15 20 20 19 21 21 24 24 25 23 22 21 21 22 23 24 24 23 23 23 23 23 21
29 29 30 29 28 28 28 27 26 26 25 23 22 23 22 21 19 20 20 19 20 20 19 19 21 23 24 25 25 25 25 25 25 24 24 24 23 23 23 23 23 22 20
29 28 28 27 27 24 23 25 25 23 23 22 9 16 20 21 19 21 22 21 20 20 20 20 22 21 22 23 23 25 24 24 23 23 23 23 23 24 25 26 27 25 26
29 28 27 27 26 25 22 23 23 22 20 20 21 15 18 21 18 20 23 21 21 18 19 19 19 19 19 20 21 23 22 21 21 20 21 23 25 27 29 29 29 30 30
28 28 27 26 27 26 23 24 22 19 17 21 19 18 15 16 16 17 21 16 20 17 16 16 17 19 17 18 18 19 20 21 21 20 21 23 25 26 27 28 28 29 29
28 28 27 26 26 23 23 23 24 23 21 20 18 17 3 3 14 22 19 18 12 16 9 8 12 13 13 14 15 16 17 17 17 18 19 19 21 24 25 27 26 26 23
29 29 29 27 25 24 24 24 25 26 26 27 26 15 11 19 22 20 19 17 16 15 10 3 0 4 11 13 12 13 14 13 14 16 17 18 18 21 22 24 24 23 23
30 30 30 28 26 24 22 23 21 21 26 26 26 26 25 23 20 18 18 16 14 12 4 1 -4 3 6 12 12 12 11 10 12 13 14 14 16 18 20 20 21 22 22
29 29 29 27 27 25 21 20 17 17 13 15 21 25 26 23 19 18 17 15 8 9 6 2 -0 1 5 10 11 11 10 8 7 8 10 11 12 14 16 18 18 15 17
30 29 27 25 19 20 20 16 18 16 15 16 13 17 17 22 20 19 19 6 3 3 5 6 0 4 3 5 1 5 5 5 4 3 6 7 9 12 14 16 16 14 13
31 30 25 24 21 23 24 21 21 22 15 16 11 11 10 9 2 -1 -4 -8 -7 2 1 5 6 4 -0 -1 -6 -6 3 4 4 4 3 3 5 8 12 13 14 10 11
31 30 26 25 25 25 22 23 23 20 22 16 13 9 13 11 9 7 7 -0 2 4 1 3 -0 -4 -3 -4 1 -4 -4 -5 3 4 4 4 3 4 9 9 10 10 12
30 28 27 26 26 19 17 21 18 19 21 15 14 11 10 5 9 10 7 7 5 5 5 2 3 2 1 2 -1 -9 -7 -9 -3 2 2 4 6 7 6 6 4 2 6
30 28 25 21 18 15 11 14 14 17 23 18 18 15 7 7 11 10 9 9 3 2 2 0 -2 0 -3 -7 -8 -2 -4 -4 -4 -2 1 2 5 7 4 3 4 3 2
30 27 23 19 12 12 9 11 10 16 19 20 18 11 11 10 9 8 8 6 -1 -1 -5 -2 1 3 1 -6 -9 -6 0 -5 -5 -2 -2 2 5 6 3 4 5 2 0
30 26 22 19 16 16 14 13 14 15 23 23 16 18 16 12 8 10 8 5 3 -3 2 1 0 2 1 -0 -2 -1 -3 -0 -4 -4 -3 0 1 1 4 3 0 4 0
31 27 25 26 23 21 20 19 20 20 19 21 22 20 17 16 17 14 10 5 4 3 3 -3 -0 2 1 -0 -0 0 -3 -2 -5 -3 -4 1 1 2 2 2 1 1 3

GFSGL_sfc_dewp_024.txt.gz
Dewpoint
37 37 35 34 35 35 36 36 36 36 36 35 35 35 34 31 30 29 28 27 28 26 26 25 25 25 25 24 24 23 22 23 21 21 24 25 27 27 26 27 28 28 31
34 31 31 33 35 34 34 34 35 35 35 35 32 34 34 33 28 27 26 27 26 24 24 24 24 22 23 22 22 21 21 22 22 21 23 24 25 26 25 24 22 20 28
28 28 31 34 35 33 33 34 34 33 33 34 36 35 32 29 27 26 26 25 24 24 24 24 23 24 22 22 20 20 21 20 22 26 24 26 26 25 24 24 23 26 25
26 30 33 33 33 33 34 34 34 34 35 36 36 35 29 26 26 25 24 24 24 24 25 24 24 24 23 22 21 22 19 20 21 20 20 23 25 25 24 23 22 24 23
25 31 32 34 35 35 35 35 35 36 36 34 30 27 27 25 23 24 26 27 26 26 26 25 25 25 25 23 20 20 20 21 22 22 20 21 22 24 24 24 24 22 23
25 32 34 34 34 33 34 34 35 35 33 35 29 26 25 24 30 31 29 27 26 24 23 21 21 21 20 22 22 22 22 23 23 23 21 20 20 21 25 25 24 21 20
26 32 33 33 33 33 33 34 33 34 34 29 25 25 24 27 28 25 26 24 21 20 19 18 17 16 20 20 22 23 24 25 26 24 25 22 24 23 23 22 23 22 21
30 31 32 32 32 33 33 33 31 29 29 25 25 25 25 23 23 22 22 23 21 20 19 19 18 19 20 21 25 24 22 23 23 23 24 24 25 26 27 24 24 24 24
29 31 31 31 31 30 30 31 31 31 28 26 25 24 21 20 22 21 21 20 20 19 19 19 19 19 22 26 24 24 22 22 24 26 25 25 24 25 25 28 25 24 23
29 30 30 30 29 28 28 28 29 26 26 25 23 23 22 20 20 20 21 20 16 20 20 19 20 20 22 23 24 22 21 21 21 24 24 24 25 25 25 24 24 23 24
29 29 29 28 27 27 25 25 25 26 24 24 22 23 21 20 20 20 22 20 20 21 20 18 20 22 21 20 23 23 24 23 23 23 23 24 25 25 24 23 23 22 21
28 29 28 27 27 26 23 25 25 23 22 21 9 16 20 21 20 20 22 21 20 17 17 18 20 19 18 19 20 22 22 22 21 21 21 22 23 25 26 28 26 25 24
28 28 27 28 27 26 23 23 22 22 19 19 21 15 17 21 19 20 22 22 18 16 17 17 17 17 17 18 18 18 20 19 19 18 19 20 23 25 27 29 30 29 28
28 28 28 27 26 26 24 23 23 19 20 21 20 18 15 16 16 17 20 17 17 18 15 14 14 17 13 15 16 17 17 17 17 17 18 19 22 24 26 28 27 29 28
28 28 28 28 28 26 22 23 24 23 23 21 19 17 5 4 14 19 19 16 10 15 7 6 9 9 11 13 13 14 14 13 13 15 16 17 18 20 23 26 26 26 25
29 29 30 30 29 27 24 24 26 26 26 27 27 17 11 19 22 23 18 17 15 14 9 2 -3 -4 3 11 12 11 11 9 10 13 14 15 15 17 20 22 23 23 23
29 30 30 29 29 26 24 24 19 21 26 27 27 27 26 21 24 21 18 17 14 12 5 2 -6 -7 -2 9 10 10 10 9 9 9 11 12 13 15 17 19 20 19 19
30 29 30 29 28 28 27 25 21 17 15 15 21 24 26 27 25 21 18 16 9 8 7 3 0 0 5 8 8 8 8 7 6 6 7 8 10 12 15 15 16 15 16
31 31 29 27 27 25 22 23 20 16 19 17 14 17 16 26 24 22 19 8 6 5 6 7 3 5 6 6 -1 -3 -5 4 4 3 4 5 5 9 12 13 14 11 12
32 31 29 26 24 24 24 20 20 21 22 18 16 14 9 10 6 1 -2 -5 -4 5 5 7 8 6 3 2 -4 -9 -3 -4 3 4 4 4 4 5 9 10 11 12 12
31 31 28 27 25 24 24 20 19 23 22 23 17 8 9 16 13 8 6 1 5 6 5 6 5 1 0 -1 3 -1 -2 -7 -3 2 4 5 5 5 8 8 8 10 11
29 30 29 27 27 25 26 21 17 18 19 20 19 13 13 16 11 11 9 8 7 7 8 6 6 6 5 6 4 -6 -4 -6 -5 -3 -1 3 6 7 7 6 6 6 8
29 29 29 27 26 24 11 14 13 13 15 16 17 17 11 11 10 11 12 10 8 6 4 4 2 4 3 -1 -2 2 1 2 0 -5 -5 -2 4 6 7 6 7 7 5
29 30 29 26 23 21 16 14 13 12 15 17 18 17 16 15 13 13 12 11 8 3 -2 1 4 5 5 -2 -4 -2 3 -0 -1 0 -4 -2 1 5 5 6 6 6 5
31 30 29 24 22 20 19 17 17 17 18 19 21 21 19 18 18 14 14 13 11 6 4 0 3 5 5 4 1 1 -1 2 -4 -5 -2 -1 -2 -3 1 5 4 6 4
30 29 30 28 23 23 24 23 22 22 22 22 23 22 21 20 20 19 18 13 12 10 10 6 4 4 4 4 3 1 -3 -3 -4 -6 -5 2 -1 0 0 3 4 4 5

GFSGL_sfc_dewp_027.txt.gz
Dewpoint
39 38 35 35 36 37 37 38 38 39 36 37 37 37 36 33 33 35 32 30 29 29 30 28 26 27 25 24 24 22 20 19 17 17 17 19 21 23 23 25 26 29 28
32 31 32 35 35 34 34 35 36 35 36 36 36 35 35 36 35 34 29 29 28 28 26 26 26 23 25 24 23 22 21 20 19 17 17 17 21 22 24 25 25 24 26
26 27 30 34 34 33 34 34 34 35 37 37 36 37 37 36 29 28 28 27 25 25 26 26 26 25 23 21 21 20 20 19 20 19 17 17 17 19 21 24 24 26 23
25 27 31 35 35 34 35 34 35 36 37 38 38 34 33 28 27 26 25 26 28 27 27 25 23 22 21 19 19 20 20 21 19 18 16 16 17 19 26 23 21 23 22
27 26 33 36 36 35 34 35 36 37 37 35 31 29 28 27 24 28 28 27 25 23 21 19 19 20 22 21 19 19 19 18 19 19 18 16 15 14 15 18 21 24 29
26 27 34 35 34 34 35 35 35 36 35 34 31 30 27 26 30 27 26 24 21 18 16 16 16 18 18 21 21 22 22 23 24 19 17 21 15 24 18 19 20 23 21
25 29 33 33 33 33 33 32 32 35 34 32 29 27 27 27 25 24 23 21 18 17 16 15 15 15 19 17 19 23 25 23 24 25 23 20 19 18 19 22 22 23 22
26 31 32 32 32 32 31 30 31 34 32 32 28 26 26 21 22 22 22 19 18 17 16 16 16 16 17 19 24 21 20 17 19 23 26 24 22 22 21 22 27 26 22
29 30 30 32 30 30 29 29 30 31 33 29 27 25 21 20 21 21 21 22 20 19 18 17 17 16 20 23 21 22 18 16 19 21 23 25 26 26 26 25 24 25 23
28 29 30 30 30 29 30 28 28 30 29 26 24 23 21 22 19 20 21 24 24 21 19 16 17 18 22 21 20 21 20 18 17 19 19 21 23 25 26 25 22 20 21
28 29 29 30 29 29 28 26 26 26 27 27 26 25 22 22 21 20 21 24 22 20 18 15 16 19 19 18 19 21 21 20 21 19 19 19 20 21 24 26 25 24 21
30 30 29 30 28 26 27 26 26 26 26 26 26 26 24 26 21 20 21 23 21 21 20 17 19 17 17 17 17 18 18 20 21 21 21 20 22 23 24 27 30 30 26
28 29 29 29 28 27 26 26 25 24 25 26 24 25 24 25 24 20 21 23 20 21 21 17 16 16 15 14 15 16 17 18 19 19 19 19 22 25 28 30 31 32 30
29 29 28 29 28 29 27 24 24 26 25 24 25 24 24 24 24 22 23 24 20 19 17 16 16 15 13 15 15 14 14 15 16 18 18 20 22 23 25 28 28 30 30
29 29 30 30 29 29 29 25 25 26 26 26 26 26 27 26 25 23 24 23 23 19 16 16 14 13 11 11 13 12 11 10 14 17 18 18 19 21 23 25 26 27 27
28 29 30 31 30 30 29 27 27 27 26 27 27 27 29 25 23 23 23 19 17 15 15 16 15 14 12 10 12 12 11 8 10 14 16 17 17 19 20 22 22 23 24
28 29 30 31 30 30 30 29 28 28 26 28 29 28 28 28 25 25 23 20 17 15 16 16 17 16 14 10 9 9 9 10 9 12 15 15 17 17 20 20 21 21 20
29 31 31 32 32 31 31 30 29 28 28 28 26 25 26 26 28 26 24 20 19 17 16 16 16 16 14 11 10 9 10 10 9 8 13 14 15 16 18 18 19 19 18
29 30 30 33 33 31 31 30 29 28 28 26 26 24 25 25 26 27 24 23 22 20 18 16 18 16 15 14 15 14 13 12 10 10 11 12 14 14 15 16 17 16 16
30 31 31 30 31 30 30 29 28 28 27 27 26 26 26 21 26 26 26 25 23 22 22 19 18 17 17 16 16 15 14 14 11 10 10 13 13 13 13 14 15 16 15
29 29 29 30 31 30 29 29 28 27 27 26 27 30 24 24 25 26 26 25 23 23 23 22 21 20 19 18 15 16 13 14 12 9 9 12 12 12 11 13 14 14 13
30 30 29 29 30 31 29 28 29 28 26 26 26 28 20 22 25 26 26 26 26 24 24 24 22 21 20 18 17 17 14 13 13 10 9 10 11 12 11 11 12 12 12
32 32 30 28 30 30 30 28 28 28 27 26 26 26 27 25 25 25 26 26 26 25 24 23 23 21 21 19 19 17 15 14 14 12 9 10 11 12 12 11 10 10 10
31 31 30 29 30 30 29 28 28 25 26 26 26 27 27 27 27 26 26 27 26 25 25 21 20 19 20 20 19 17 15 15 14 11 7 9 10 11 10 10 11 10 10
28 29 29 32 32 31 29 27 27 28 28 27 26 27 27 28 27 27 27 26 24 24 23 19 19 19 17 16 17 16 14 12 11 7 8 9 10 10 9 9 10 10 9
28 30 30 30 31 31 29 29 29 29 28 28 29 29 29 29 29 28 28 26 24 23 23 22 20 18 17 17 17 14 10 8 9 4 7 9 10 10 10 9 9 11 8

GFSGL_sfc_dewp_030.txt.gz
Dewpoint
36 37 35 31 31 32 31 30 31 33 31 30 32 33 33 33 35 35 36 34 31 30 29 28 29 28 25 24 24 22 21 20 18 19 18 20 21 21 20 24 24 25 24
33 31 29 29 29 29 29 30 32 32 32 32 34 33 33 33 35 36 33 29 29 28 28 28 27 22 25 24 22 21 20 20 19 18 19 19 19 20 20 21 18 17 22
26 25 25 27 28 28 29 32 32 32 32 34 33 34 33 34 34 30 29 30 29 28 28 28 26 25 23 21 21 19 19 18 21 21 20 19 18 19 19 21 25 26 21
23 22 25 29 30 31 32 32 32 32 33 33 33 32 32 30 29 28 27 27 28 27 27 25 23 21 20 20 19 19 17 18 19 19 17 17 18 19 20 17 17 22 24
23 24 26 30 33 32 33 32 32 33 33 32 32 33 32 30 25 30 28 28 26 24 23 19 19 20 21 21 18 19 19 19 19 19 19 18 16 16 19 18 19 17 18
24 25 26 30 32 32 32 32 31 31 32 32 32 30 30 25 28 25 25 24 23 20 18 17 18 19 19 20 22 21 21 21 24 22 21 19 19 17 19 23 19 22 20
25 24 27 31 30 30 29 28 29 30 32 31 31 31 30 30 24 22 22 21 20 19 18 17 16 13 19 17 19 21 25 24 26 24 21 20 23 22 21 21 19 20 22
23 24 28 29 28 28 28 29 30 30 30 31 30 30 30 25 22 21 22 22 22 21 19 19 18 17 17 19 20 21 19 18 17 17 21 21 21 22 24 25 23 22 22
23 25 26 28 28 27 28 29 30 29 29 30 30 29 28 25 21 20 21 23 23 22 19 19 17 15 18 21 19 19 16 15 18 20 21 22 23 24 26 25 24 22 24
24 25 26 28 28 28 30 30 29 28 27 27 28 29 26 26 22 20 21 25 27 23 21 18 17 16 18 19 20 20 20 18 15 17 19 19 21 21 25 26 24 23 20
26 28 27 27 27 28 30 29 28 27 28 30 30 28 27 26 25 20 20 26 25 23 20 19 18 17 18 18 17 20 20 18 19 19 19 20 20 21 22 24 28 28 24
28 28 25 26 27 26 29 29 28 28 28 29 33 31 28 28 25 23 21 22 22 25 22 21 22 16 17 16 16 17 17 19 21 21 22 21 22 23 25 28 31 31 30
26 26 27 28 27 27 28 28 27 26 27 28 26 27 26 28 27 25 21 22 23 24 23 21 17 16 15 14 13 15 15 19 20 20 20 20 22 23 27 30 31 33 31
27 27 28 28 28 28 26 26 26 27 28 26 26 25 26 25 26 25 25 25 24 23 22 21 19 17 16 14 16 15 17 16 17 20 20 20 22 24 25 27 28 30 32
26 27 28 29 28 27 26 26 28 28 28 27 26 27 30 28 27 26 25 26 26 22 21 22 21 19 16 14 15 14 15 13 14 18 19 20 20 20 22 26 25 26 28
28 28 29 29 28 27 26 26 30 28 28 28 28 29 31 29 27 24 23 24 21 18 20 22 22 23 20 16 16 15 15 13 11 13 17 17 18 20 20 22 23 24 25
28 28 28 29 29 27 28 28 29 30 29 29 29 29 29 29 28 27 26 25 22 19 21 22 23 23 22 17 15 14 14 15 14 12 14 16 17 17 20 20 21 21 21
29 29 29 29 30 31 32 31 31 31 30 31 30 27 28 28 27 27 26 25 23 22 21 22 22 22 20 16 15 14 14 16 15 13 15 16 17 17 17 17 19 19 18
28 28 31 33 33 31 32 32 31 31 30 29 30 28 28 26 27 27 27 28 23 22 21 21 23 21 21 19 21 20 19 18 17 16 16 15 17 15 15 15 17 16 16
28 29 30 29 30 29 31 31 30 30 30 30 28 27 26 27 30 28 30 29 26 24 24 22 22 22 22 22 23 22 21 20 18 16 16 17 18 17 15 14 16 16 15
29 29 29 29 30 28 30 30 30 30 31 31 30 33 28 28 28 28 27 30 28 26 26 24 25 25 24 24 21 21 20 21 18 16 15 15 16 16 15 15 14 14 13
32 32 32 33 32 31 30 31 32 31 30 30 31 30 28 30 29 29 29 30 32 30 29 28 26 25 24 23 22 23 21 19 19 18 16 13 15 16 15 14 14 14 13
34 33 31 31 32 30 30 31 32 32 32 32 31 29 30 31 31 29 31 33 32 32 31 28 28 26 26 25 25 23 21 19 19 20 15 14 14 16 16 15 13 13 12
33 32 30 31 32 33 33 32 33 30 31 32 32 32 33 33 32 32 32 32 33 32 32 30 28 27 26 26 25 24 21 20 20 18 14 13 13 13 14 12 13 12 13
32 31 31 30 31 32 32 32 32 32 31 32 32 32 32 32 33 32 32 32 32 32 31 30 29 28 26 24 23 23 21 17 17 15 15 12 12 12 12 11 12 12 12
31 30 31 32 31 32 32 31 32 32 32 32 32 32 32 32 32 32 32 32 32 31 31 31 29 27 26 24 23 22 19 16 15 11 14 12 13 13 13 12 9 12 11

GFSGL_sfc_dewp_033.txt.gz
Dewpoint
37 39 39 34 32 32 31 31 30 32 31 30 29 31 31 31 31 34 35 36 34 33 32 32 32 31 29 29 26 25 23 21 20 21 20 22 23 24 23 24 25 26 25
36 35 35 32 29 30 29 28 31 31 31 29 30 31 30 32 34 35 33 30 31 30 31 30 28 24 25 24 23 21 21 21 20 18 20 21 22 23 24 23 20 17 23
34 32 29 28 29 30 28 30 31 31 30 30 31 31 31 31 31 31 30 30 30 29 29 28 24 23 23 21 21 20 19 16 20 21 21 22 21 21 20 21 21 23 19
29 28 26 27 30 29 30 31 32 31 30 30 31 30 31 30 28 29 28 28 29 28 25 24 23 22 20 21 18 19 18 18 18 19 19 18 20 22 23 20 22 23 22
33 25 26 28 29 29 31 32 32 31 30 31 30 30 31 30 27 30 28 27 24 23 23 21 21 21 20 21 18 18 19 18 19 19 19 22 22 20 21 20 20 21 24
29 26 27 27 26 29 31 32 30 29 29 30 30 30 30 26 28 26 25 25 24 21 20 20 20 23 22 22 23 21 22 20 22 24 19 21 19 18 24 25 25 23 19
25 25 25 25 27 28 27 26 27 29 30 30 30 30 32 30 27 24 23 23 23 22 22 21 18 14 21 19 21 21 21 24 24 24 23 23 24 22 21 21 21 24 23
25 24 23 26 26 26 26 26 28 29 30 29 30 31 31 28 26 23 23 23 23 23 23 21 20 19 19 20 19 18 17 16 16 14 19 19 19 19 20 20 22 23 23
23 21 22 24 25 25 25 27 28 29 29 29 28 31 30 28 26 24 21 24 24 23 22 21 20 18 20 20 17 18 16 16 18 22 20 22 24 26 25 25 26 24 25
21 21 22 23 25 25 27 27 29 29 27 26 26 28 27 28 25 24 22 26 27 25 23 20 22 17 18 18 19 19 18 16 14 14 18 20 21 23 27 26 27 27 24
20 24 24 25 25 25 27 28 28 28 28 31 32 31 30 29 28 25 22 24 26 25 22 21 21 20 18 18 18 18 20 17 17 18 20 20 21 21 22 24 26 28 28
26 25 24 24 23 24 27 28 28 28 29 30 36 32 32 30 28 26 24 23 23 25 24 23 24 21 18 18 16 16 17 18 22 22 22 21 21 22 23 26 30 32 34
25 25 25 25 26 27 27 27 27 27 28 30 29 33 31 30 30 28 26 24 23 25 25 24 21 20 18 18 14 16 19 19 18 20 20 20 21 23 25 28 29 30 32
26 25 26 27 27 27 27 26 25 28 30 29 30 29 28 27 28 30 29 27 25 26 26 25 23 22 21 21 19 18 18 19 16 17 18 19 22 23 24 26 27 28 29
25 26 28 29 29 27 26 25 27 29 31 31 31 31 34 33 28 29 29 29 29 27 24 24 23 22 21 20 19 18 18 17 16 16 17 17 17 18 22 24 25 25 25
27 27 31 30 30 28 26 26 29 30 30 29 29 31 36 30 28 27 26 24 24 23 22 22 24 25 23 21 20 19 19 17 16 16 16 16 16 17 18 21 22 23 23
28 29 29 30 28 28 28 29 29 31 31 30 29 29 29 30 30 29 28 26 26 24 22 22 25 26 24 20 19 18 17 18 18 16 16 17 17 16 19 19 19 20 20
30 30 30 30 30 30 29 30 32 32 32 33 32 29 30 30 29 29 29 27 25 26 22 22 23 24 23 20 18 18 19 20 19 17 18 18 19 17 17 15 16 18 17
30 30 32 34 34 32 32 31 32 31 31 31 32 30 31 29 29 29 28 28 25 25 24 25 27 23 22 21 23 23 23 21 20 20 19 18 19 18 16 15 16 17 17
29 30 30 31 32 32 32 30 31 31 31 31 31 31 32 31 31 30 31 30 29 27 27 25 24 24 25 24 25 25 23 23 21 20 19 19 20 19 17 16 16 15 14
31 32 31 32 32 32 32 33 31 31 31 31 32 34 32 30 31 32 30 31 30 29 29 28 29 29 28 27 24 23 22 23 21 20 19 18 18 18 18 17 16 14 13
33 33 34 34 34 35 33 33 32 31 31 30 32 33 31 31 30 30 31 32 33 32 32 30 29 28 28 26 25 25 23 23 22 21 20 17 16 18 18 17 17 15 14
33 34 34 34 33 32 33 33 32 33 32 33 32 32 34 33 32 31 31 32 33 32 32 31 32 30 30 30 29 25 23 22 22 22 19 17 16 17 18 17 15 15 14
32 34 33 32 33 31 32 32 33 32 33 33 33 33 33 33 32 33 33 33 33 33 33 32 30 29 29 30 29 27 24 24 22 20 18 17 15 15 16 14 14 14 14
34 33 32 32 32 32 32 32 32 32 32 32 32 32 33 33 33 33 33 33 33 32 33 32 32 30 29 28 28 26 24 22 21 19 19 16 14 14 13 13 13 13 13
32 33 33 33 32 32 32 31 31 31 31 32 32 32 33 33 33 33 33 33 33 33 33 33 32 31 30 30 28 26 25 22 19 18 18 16 15 15 15 14 12 13 12

GFSGL_sfc_dewp_036.txt.gz
Dewpoint
41 42 43 41 40 37 37 36 34 34 34 34 33 33 34 34 35 35 36 36 34 34 34 33 32 32 31 31 30 28 24 23 20 20 20 22 22 23 23 25 25 23 23
41 42 41 39 38 37 36 35 35 34 35 33 33 33 33 33 33 33 34 34 32 31 31 31 30 26 27 26 25 23 22 21 19 18 20 21 22 22 22 23 21 19 21
38 37 37 38 35 34 35 34 34 34 34 33 32 34 34 33 31 32 32 32 31 31 30 30 28 25 23 23 23 20 20 19 20 19 18 20 21 21 21 23 23 24 22
36 36 35 35 35 34 33 33 34 34 33 33 34 34 35 32 31 31 30 31 30 28 29 27 24 23 22 20 18 19 18 19 19 19 19 19 20 22 23 20 22 23 22
38 34 36 34 33 33 34 34 35 35 33 34 34 34 32 31 29 31 29 28 27 26 26 23 22 23 24 23 18 19 20 20 19 18 19 20 19 18 18 22 24 25 23
38 35 33 32 31 33 34 35 35 34 33 33 32 33 32 27 30 29 27 25 25 25 23 23 23 25 25 26 25 23 22 21 20 21 21 20 20 22 25 22 21 20 18
34 34 31 30 30 32 31 31 31 32 33 33 33 33 32 32 30 27 25 23 24 25 23 23 21 17 24 21 21 21 20 22 23 22 21 23 25 20 19 19 19 20 20
30 30 31 29 29 29 31 31 31 32 33 32 32 32 32 31 30 28 25 22 24 24 24 23 22 21 21 20 20 18 18 17 17 16 19 18 19 20 21 21 22 22 23
29 29 26 27 29 30 29 30 32 31 32 32 31 31 32 30 30 28 24 23 25 25 24 24 22 20 21 20 19 19 18 17 18 20 19 20 22 26 26 25 25 23 22
29 27 26 29 29 28 31 31 31 31 30 31 30 31 30 31 29 27 24 27 26 26 25 23 23 20 19 19 19 19 17 18 16 15 18 21 22 23 27 26 26 24 24
29 29 30 32 29 29 30 30 30 30 31 31 30 31 30 31 28 27 26 25 26 26 25 24 25 21 21 20 18 19 19 18 18 18 20 20 23 22 22 23 25 26 27
31 30 28 28 26 24 30 30 31 31 31 31 32 31 31 31 31 29 27 25 25 23 24 25 25 23 22 21 19 19 18 20 19 18 19 20 21 22 22 23 26 27 28
30 30 28 28 27 27 29 30 30 29 30 30 31 32 31 31 31 31 29 27 26 23 25 26 25 24 23 22 22 20 18 19 18 14 17 18 19 22 24 24 25 26 27
29 29 28 29 29 29 29 29 29 31 31 30 31 30 30 30 31 31 28 27 26 25 25 26 25 23 20 20 20 22 22 20 18 16 15 17 19 20 20 22 22 24 24
27 27 29 30 31 30 29 29 29 30 31 30 30 31 29 31 30 30 31 31 30 28 21 21 20 22 22 21 22 21 21 20 18 17 15 16 17 18 18 20 22 22 22
28 29 32 33 32 31 29 29 30 30 30 30 30 29 30 33 30 30 29 29 27 25 21 18 17 20 20 20 18 19 19 18 19 17 16 17 18 17 17 18 20 21 20
30 31 31 30 31 30 30 30 28 29 31 31 31 31 30 29 31 30 29 29 27 25 20 19 20 21 23 21 20 19 17 17 17 18 15 16 16 18 17 18 18 19 17
31 30 30 30 31 32 32 31 30 29 28 29 31 31 31 30 30 30 30 30 27 26 25 22 22 22 23 22 21 20 18 16 16 16 13 14 11 15 17 16 16 16 16
30 31 31 32 33 32 31 31 30 29 29 29 29 29 29 32 31 31 30 27 26 24 25 24 23 23 25 22 20 19 16 16 14 10 13 14 10 14 13 17 13 14 15
30 30 30 32 33 32 31 31 30 30 29 29 29 29 29 31 30 28 28 27 25 25 25 26 25 25 26 24 22 21 21 15 15 16 14 10 14 11 13 14 11 10 14
31 31 31 32 32 32 32 32 32 32 30 30 29 30 29 31 31 30 27 27 27 26 26 25 25 25 25 26 23 22 23 18 20 15 14 13 8 8 14 15 15 13 15
30 31 31 31 31 32 31 31 30 30 29 30 28 29 29 31 31 30 30 29 31 30 29 27 27 26 26 26 25 23 22 19 16 14 14 13 10 11 12 11 13 10 12
29 30 31 31 31 31 30 29 28 28 29 30 31 31 30 31 32 31 30 30 30 31 30 29 29 28 27 27 27 25 24 22 20 17 13 11 10 11 9 9 9 10 8
26 27 28 30 31 31 30 29 29 27 28 31 32 31 30 30 31 32 32 32 31 31 31 32 31 30 29 29 28 27 25 25 23 18 13 10 10 11 10 9 8 7 6
26 27 28 29 29 30 31 29 28 28 29 30 30 31 31 31 30 31 32 32 32 32 32 32 32 31 31 30 29 28 25 24 23 17 16 11 8 5 6 7 5 8 6
25 26 29 29 29 30 29 27 26 26 25 25 25 26 26 27 28 31 31 30 30 30 31 32 32 32 31 30 29 29 25 24 21 18 18 16 12 8 8 9 7 6 8

GFSGL_sfc_dewp_039.txt.gz
Dewpoint
40 40 41 39 42 36 36 36 35 35 34 32 32 31 31 32 33 32 33 33 33 32 31 32 31 31 31 30 27 25 23 22 19 20 21 22 21 22 22 24 25 24 24
40 40 38 38 37 36 36 35 35 33 34 32 31 31 33 33 31 31 32 31 30 30 30 29 29 27 23 24 23 20 20 20 19 17 19 20 20 22 22 22 22 22 23
39 37 37 39 36 35 35 36 34 34 33 31 31 32 33 33 30 31 30 31 31 30 30 29 28 23 22 22 20 19 19 18 19 19 18 20 20 21 21 23 23 22 23
35 35 37 37 34 34 34 33 34 33 32 31 32 33 35 33 31 31 30 30 28 26 26 25 24 22 20 18 18 17 18 19 19 19 18 18 19 21 22 20 22 23 23
37 35 37 37 36 35 35 34 35 33 31 32 32 33 33 32 30 32 29 27 25 25 26 24 23 25 28 22 18 18 20 20 20 20 18 19 19 19 20 25 21 19 19
35 36 38 38 37 33 33 33 33 33 32 32 32 33 33 28 32 31 28 25 24 23 23 24 22 24 26 26 23 22 21 19 19 19 19 19 18 22 25 20 19 18 17
36 36 37 35 32 33 31 30 30 30 31 32 32 33 32 31 32 31 29 23 23 23 24 23 22 21 22 19 19 19 19 19 22 20 18 19 17 18 19 19 19 20 20
33 34 35 34 31 32 31 31 31 32 31 32 31 31 32 32 32 31 28 22 22 24 24 23 22 21 21 20 19 18 18 18 18 16 19 16 17 19 21 22 22 23 23
30 29 30 32 30 31 31 32 31 29 31 31 31 30 31 31 32 30 25 23 24 24 25 24 24 21 21 20 19 18 18 18 17 20 19 22 23 24 25 26 24 22 20
31 31 32 32 31 32 34 31 31 30 30 31 30 31 30 30 32 30 27 25 25 26 25 23 23 20 20 19 20 18 17 16 18 17 17 19 22 23 26 24 23 22 22
32 32 32 33 33 33 31 30 29 29 29 30 30 30 30 30 29 31 29 25 25 25 25 24 23 22 22 22 21 19 18 19 20 18 18 19 20 22 22 23 24 24 24
31 32 32 32 31 29 29 29 29 29 29 30 29 30 30 30 30 31 31 28 26 23 24 24 24 26 24 23 22 22 22 22 16 17 18 17 19 18 19 22 24 25 25
31 31 30 30 29 28 28 29 29 28 28 28 29 27 29 30 30 31 31 30 28 23 24 24 25 26 25 25 25 24 22 19 15 11 14 16 17 19 21 21 22 22 25
30 30 30 29 29 29 30 30 29 28 26 28 28 28 28 27 29 27 28 29 29 26 23 24 23 24 21 21 21 22 22 19 17 15 13 15 18 18 18 19 19 21 22
30 29 28 29 30 30 30 29 29 28 28 27 27 27 25 24 30 32 30 27 25 25 18 21 24 18 20 22 21 21 20 19 17 13 12 14 17 18 17 19 19 19 18
28 28 28 28 28 29 29 29 30 30 31 31 31 28 27 31 32 33 33 32 31 30 24 19 13 10 15 19 20 19 17 17 17 15 12 15 15 14 17 18 19 18 17
28 28 28 29 28 28 28 28 28 28 30 31 31 32 32 31 31 34 32 31 32 29 19 15 11 12 16 20 22 19 17 17 16 15 13 11 12 15 15 17 16 16 16
29 29 29 29 29 29 29 29 29 28 27 27 28 30 31 32 32 31 32 32 28 28 23 19 17 17 19 22 22 20 17 15 14 13 9 5 4 9 10 14 15 8 15
31 29 29 29 30 30 31 31 32 32 28 27 27 26 26 31 32 32 32 30 26 23 23 23 21 21 21 22 21 19 14 12 9 6 6 6 5 8 7 12 12 10 10
30 28 28 29 30 30 30 33 32 31 30 29 29 26 26 22 27 29 30 30 27 25 24 23 24 23 22 23 24 21 16 13 10 8 8 9 0 3 4 6 8 7 12
26 26 26 27 28 29 29 28 31 31 30 30 29 27 25 29 29 29 28 28 28 27 25 24 24 24 25 25 23 23 21 18 17 16 13 7 -1 4 6 7 5 12 12
25 24 24 24 24 25 27 28 30 29 27 25 26 24 25 30 29 29 30 29 28 28 28 27 26 25 24 24 24 21 21 18 16 13 11 7 7 5 4 6 4 3 8
19 21 22 23 24 24 27 29 29 26 22 23 23 26 29 30 29 28 30 31 31 31 30 29 28 27 27 26 26 25 23 21 20 19 14 10 8 5 1 4 4 3 3
22 23 22 22 23 26 26 26 27 26 26 25 26 25 28 29 29 28 29 32 32 31 32 32 31 29 28 28 28 27 25 25 22 21 17 12 11 8 2 3 3 1 0
17 17 16 16 18 20 22 22 24 24 22 22 20 20 21 22 23 25 27 29 31 32 31 31 31 31 30 30 29 28 27 26 24 20 17 14 9 5 2 3 0 4 1
12 14 10 12 13 15 16 17 18 17 17 17 16 15 18 19 20 20 21 20 20 22 30 30 32 32 31 31 30 30 28 27 24 21 19 16 12 5 3 3 1 2 4

GFSGL_sfc_dewp_042.txt.gz
Dewpoint
41 43 43 44 44 41 42 39 38 36 35 35 35 31 31 31 33 32 32 33 32 31 31 31 31 30 29 26 26 24 21 20 18 19 20 21 20 20 21 23 24 23 25
40 40 40 40 38 38 38 36 37 35 37 35 32 31 32 33 32 31 31 31 30 30 30 29 29 26 23 24 22 20 19 19 19 17 18 19 19 20 21 22 22 22 23
40 38 38 37 37 38 38 37 35 35 34 32 31 31 32 33 31 32 31 31 31 30 29 25 26 24 22 23 21 19 19 18 19 19 18 19 19 20 20 22 23 22 24
40 37 38 38 37 37 35 34 34 34 32 31 31 32 34 33 32 32 30 31 30 27 26 25 24 23 21 19 18 18 18 18 19 19 19 19 19 20 21 20 21 22 19
39 38 41 39 37 37 36 35 36 33 32 31 32 33 34 33 31 32 31 29 27 26 26 24 24 24 27 24 18 19 20 19 19 19 18 19 19 18 19 22 23 18 18
40 40 40 40 35 35 34 35 35 33 32 31 31 34 33 31 32 34 31 28 26 24 23 23 23 25 26 27 25 24 21 19 17 18 18 17 16 19 20 19 19 18 18
38 38 36 35 34 34 33 32 31 30 30 30 32 32 33 33 33 34 32 26 24 24 23 24 22 22 24 21 22 20 19 19 21 19 17 17 17 16 17 18 20 21 21
35 35 33 32 32 33 34 33 34 32 31 32 32 33 32 31 33 33 31 24 23 23 24 24 23 22 22 20 19 18 18 17 17 16 18 18 17 20 22 24 25 26 24
31 32 33 33 33 35 37 37 34 33 31 31 31 32 31 31 34 33 29 24 23 24 25 25 24 23 23 24 20 19 18 17 15 19 20 22 22 23 24 24 22 21 19
34 35 35 37 38 37 34 33 33 31 30 30 29 30 32 30 33 33 29 26 25 25 25 25 26 22 24 22 20 19 17 16 16 18 18 18 20 21 23 23 22 21 20
34 36 38 35 34 33 32 31 29 29 28 28 29 29 29 29 29 33 32 26 25 25 25 25 24 25 24 24 24 20 18 18 20 20 18 18 19 20 18 20 21 22 21
35 33 32 31 30 29 29 29 28 28 28 28 25 28 28 29 31 31 33 31 26 24 25 25 25 26 25 26 25 24 24 23 17 17 17 17 17 17 17 19 21 22 23
31 30 30 30 30 29 28 28 28 28 26 27 27 26 27 29 30 32 32 31 30 25 26 26 25 26 26 26 26 26 23 20 17 10 15 15 16 17 20 20 20 21 22
29 29 29 29 28 28 29 29 29 26 26 27 27 27 26 27 27 28 29 29 31 29 25 26 25 24 20 21 21 23 22 20 19 17 13 14 16 17 17 18 17 19 20
28 29 28 28 28 28 29 30 29 29 28 27 26 26 24 25 26 29 30 28 28 29 28 24 23 21 21 21 21 21 21 20 18 16 12 12 15 17 16 18 18 18 16
28 28 28 28 27 28 28 28 30 30 30 31 31 28 27 29 30 31 33 33 32 30 26 23 22 21 20 20 18 18 19 18 19 16 11 13 13 13 14 17 18 15 15
29 29 29 28 28 28 28 28 27 29 31 31 31 31 32 31 31 32 32 33 33 32 26 19 22 19 18 19 20 20 20 19 18 17 15 13 11 13 12 14 15 15 14
29 29 28 28 28 29 29 30 30 30 29 29 31 31 33 31 31 32 32 32 31 31 27 22 21 18 18 19 19 20 21 16 16 15 12 8 2 7 8 11 13 7 12
25 26 26 26 26 26 27 28 28 29 31 29 30 28 28 30 31 31 31 31 29 26 26 24 22 21 20 20 20 17 16 15 14 9 11 7 -1 7 6 8 8 9 8
25 24 24 25 23 23 23 23 24 25 28 30 29 27 23 19 18 24 26 30 30 28 26 26 25 23 22 20 20 19 15 15 15 12 8 4 -0 2 3 2 2 4 11
17 18 19 21 22 23 21 23 24 24 25 27 29 27 22 23 25 28 27 28 29 29 27 26 26 25 24 22 22 22 20 18 19 17 14 12 3 3 6 3 2 6 10
19 20 20 21 21 21 20 24 25 26 28 28 27 22 19 20 26 26 28 29 27 28 29 28 27 26 25 25 24 23 22 20 19 17 14 11 9 7 3 4 2 1 5
17 16 15 15 16 15 17 20 20 20 23 25 26 24 23 22 23 26 28 27 28 31 30 30 29 27 27 27 27 25 22 22 21 19 17 11 9 8 1 2 2 1 1
12 13 10 10 11 11 13 14 15 15 16 17 17 17 18 18 19 21 22 21 21 23 30 31 29 29 29 28 28 28 27 25 24 21 20 16 13 9 4 2 2 -1 -1
7 9 6 6 7 7 8 9 10 10 11 12 13 14 14 16 14 13 15 15 16 17 19 22 31 31 30 29 28 28 28 28 26 25 23 20 17 13 10 7 0 2 -2
7 7 5 4 4 4 4 6 5 6 6 8 10 11 11 13 11 10 11 11 13 15 17 18 21 29 31 30 30 29 28 28 26 25 23 21 17 13 10 9 5 1 3

GFSGL_sfc_dewp_045.txt.gz
Dewpoint
44 45 44 44 43 42 41 40 39 39 37 38 40 37 35 33 35 33 32 33 33 32 31 31 31 30 30 27 26 24 22 21 18 18 20 20 19 19 20 22 23 23 24
44 44 45 43 42 40 39 38 37 37 39 40 38 34 33 33 33 33 32 32 31 30 30 29 29 29 25 24 24 21 20 19 18 17 18 18 19 19 20 21 21 21 22
44 44 45 43 41 41 40 38 40 39 36 34 33 33 33 33 33 32 32 32 31 31 30 29 26 26 23 23 23 21 19 18 19 18 18 19 19 19 19 21 22 22 22
43 42 43 41 42 42 39 37 36 36 33 32 33 33 34 34 33 32 31 31 31 31 29 26 25 24 23 22 20 19 18 18 18 19 18 17 18 19 20 20 19 21 19
42 43 42 39 39 38 37 35 36 35 33 33 32 34 34 34 33 33 31 31 30 28 27 26 25 25 25 23 19 19 18 19 18 18 16 16 17 16 18 18 18 17 18
43 41 40 39 37 36 36 36 34 33 31 33 36 33 33 31 33 34 33 30 29 27 26 24 24 27 29 29 29 24 22 19 18 16 15 15 15 17 17 17 17 18 17
40 39 36 35 34 35 35 35 35 37 38 37 33 33 32 32 34 35 35 29 27 25 24 23 23 22 26 25 28 25 22 21 22 18 16 16 17 16 16 19 20 21 21
34 33 34 35 34 35 36 38 38 38 35 31 31 31 31 31 34 34 34 28 25 25 24 25 24 23 24 22 20 19 18 18 18 15 17 18 18 19 20 22 24 24 22
33 33 35 36 36 38 39 39 38 34 31 30 30 30 30 30 33 34 33 27 24 24 24 25 25 24 25 27 21 20 19 19 18 19 20 21 22 21 21 20 19 20 17
34 34 36 38 40 39 37 34 32 31 31 30 29 29 30 29 31 33 33 27 25 25 24 25 29 26 26 26 23 20 18 19 15 15 18 19 19 20 21 21 20 18 18
38 41 40 37 35 33 32 30 29 28 28 28 28 28 28 29 29 32 34 28 27 27 26 25 25 28 26 26 25 21 20 19 18 19 20 18 18 19 18 18 20 20 18
34 32 31 30 29 29 29 29 28 27 27 27 25 27 28 28 30 31 33 33 29 26 26 26 26 27 27 27 25 26 26 23 20 19 18 18 17 18 17 18 20 21 21
29 29 29 29 29 29 28 27 27 27 26 27 27 27 27 28 27 31 32 32 32 28 28 27 27 28 28 27 27 27 24 22 19 12 16 16 16 17 19 20 20 20 20
28 28 29 29 28 28 28 28 27 26 27 27 27 27 27 27 26 26 27 27 31 31 28 27 28 28 26 25 24 25 22 21 19 18 16 15 15 16 16 17 16 18 18
28 28 28 28 28 28 27 27 28 28 29 28 28 28 27 27 27 28 27 26 26 28 30 28 26 25 24 24 24 23 21 20 18 14 13 13 14 16 15 16 17 17 13
28 28 28 28 27 27 27 27 29 30 30 31 31 30 31 31 31 31 33 32 32 31 28 26 24 23 23 23 22 22 19 18 20 18 14 14 15 13 13 15 16 13 13
26 27 26 25 25 25 26 25 24 25 27 30 31 31 32 32 32 34 33 33 32 31 28 26 23 24 24 24 22 21 20 19 20 18 16 14 14 13 11 13 12 12 11
25 25 24 24 24 24 23 22 22 22 22 22 25 29 31 32 33 33 33 33 30 30 29 28 24 24 23 23 22 21 20 19 16 15 12 12 9 9 8 11 11 5 9
19 19 20 20 21 21 22 22 20 21 22 23 23 24 26 30 30 31 31 29 29 29 27 27 27 25 24 23 22 21 19 18 12 8 14 12 7 9 7 8 7 6 7
18 19 18 20 20 20 20 18 19 20 20 23 23 23 26 18 26 16 16 18 26 27 28 26 26 25 25 24 22 20 17 15 12 12 12 14 10 7 7 4 -2 1 9
18 18 16 17 17 16 16 15 18 20 17 16 18 23 25 27 24 25 26 26 26 26 29 28 26 27 26 24 23 21 20 18 17 16 16 15 9 6 8 6 1 5 9
15 15 13 11 13 12 12 14 14 13 14 14 15 16 17 18 19 22 23 21 24 29 30 27 28 27 27 25 24 23 22 20 18 18 17 16 14 12 6 2 1 0 4
11 10 7 8 8 7 8 8 10 9 9 10 12 13 14 15 15 14 15 15 16 18 19 21 27 29 28 27 27 27 24 23 22 20 19 16 15 13 4 3 2 -0 0
8 6 5 4 4 4 3 4 5 5 5 6 7 9 11 11 12 11 12 12 11 12 15 16 19 20 28 27 28 27 27 26 26 23 21 18 16 13 10 4 4 -1 -3
-2 -4 -5 0 -1 -1 -1 1 0 1 1 2 4 5 7 9 9 9 9 9 9 8 10 12 16 17 19 25 28 28 28 27 26 25 23 20 18 15 14 11 4 3 0
2 -0 -2 -5 -5 -4 -4 -2 -4 -3 -2 -0 1 2 3 6 5 6 7 6 7 6 7 9 12 15 16 23 29 28 28 28 27 26 25 22 20 17 14 12 9 7 6

GFSGL_sfc_dewp_048.txt.gz
Dewpoint
52 51 50 49 48 49 48 46 44 41 43 41 37 39 39 36 35 35 33 33 34 32 33 32 32 32 31 31 30 28 28 27 22 20 21 21 19 19 20 21 23 22 23
49 48 48 48 48 48 46 43 43 41 39 39 42 38 35 33 34 34 34 32 33 32 31 31 31 29 29 27 25 23 22 21 19 17 18 19 19 20 20 20 19 20 22
48 47 48 47 46 43 42 41 39 39 40 38 37 35 34 34 34 35 34 33 32 31 31 30 30 29 28 24 24 23 21 19 19 19 18 20 20 19 18 20 21 21 21
48 47 46 45 44 41 41 39 39 38 36 36 36 34 35 37 34 34 32 32 32 31 31 30 29 26 24 23 22 22 20 19 18 18 19 18 17 18 20 19 18 17 17
45 43 44 44 41 39 37 37 38 37 34 34 36 39 37 35 32 33 32 31 30 30 30 28 27 27 28 26 21 20 19 18 19 19 17 16 15 14 13 18 16 17 19
43 41 39 39 38 37 35 35 35 34 36 40 39 39 37 34 33 35 34 31 30 30 28 27 26 28 30 32 31 28 22 20 20 17 16 15 14 14 19 18 17 18 15
39 37 36 36 35 35 35 35 36 39 40 39 39 37 33 32 33 35 35 32 30 29 28 26 24 23 27 25 27 31 28 26 23 20 18 16 16 17 17 17 18 20 20
34 34 35 35 36 37 38 39 40 40 39 38 34 32 31 30 33 34 34 32 30 28 27 25 24 24 24 24 23 24 21 20 20 19 19 17 17 19 19 20 21 21 20
33 35 36 37 38 39 39 39 40 39 35 32 30 30 30 29 32 33 32 30 29 27 26 25 25 26 26 28 24 21 19 18 21 23 22 21 22 22 22 21 18 18 16
35 36 37 39 41 40 38 37 33 31 31 30 29 29 30 29 31 32 32 29 28 27 26 25 29 27 28 29 27 23 20 19 19 15 15 18 20 19 22 20 19 17 17
40 39 37 35 34 32 31 30 29 28 28 28 28 28 28 28 29 32 33 30 29 28 27 26 26 29 30 30 29 23 22 20 20 17 16 19 19 19 19 19 18 19 18
32 31 30 30 29 29 28 28 28 27 27 27 25 27 28 28 30 30 32 33 31 28 27 27 27 29 30 32 28 27 25 24 22 20 20 20 20 19 18 18 19 21 21
28 28 28 29 28 28 27 27 27 27 26 26 27 27 28 28 27 30 31 32 32 30 29 29 29 29 30 31 31 28 26 25 23 20 20 20 19 19 19 19 20 20 20
28 28 28 28 28 28 28 27 27 25 26 27 27 27 28 28 28 27 27 28 29 31 29 30 28 28 28 30 28 30 28 25 23 21 20 19 18 17 17 18 18 18 18
27 27 27 26 26 25 26 26 26 26 27 26 26 27 27 26 28 30 30 29 28 29 29 29 29 27 27 26 26 26 26 24 22 21 18 18 16 16 17 18 17 18 16
25 26 25 25 24 23 23 22 23 24 25 25 26 25 25 27 29 30 32 33 33 33 28 28 27 26 25 25 24 24 24 24 23 21 19 18 17 16 16 16 17 16 15
23 22 22 21 21 22 21 21 19 20 21 21 22 24 25 27 27 29 30 33 33 32 30 28 27 26 25 24 24 24 23 23 23 21 20 17 17 16 15 15 15 14 14
19 20 19 19 19 19 18 21 19 18 18 18 19 21 23 23 27 28 29 32 30 29 30 29 28 27 26 25 25 24 24 23 20 20 17 17 14 15 14 14 15 11 12
17 18 19 18 19 19 18 16 16 17 18 17 16 16 17 19 21 26 28 28 28 27 27 27 28 28 27 27 26 25 25 22 20 16 17 15 12 14 12 13 13 8 10
15 18 15 15 15 14 14 13 14 14 13 13 13 13 14 14 15 15 19 20 22 25 26 26 26 26 28 26 25 25 23 21 19 16 15 15 12 12 12 12 9 10 13
14 14 12 11 12 11 10 11 10 11 9 9 10 11 11 12 14 13 14 14 13 15 17 17 26 29 27 26 26 24 22 21 20 18 17 15 13 13 12 13 11 10 12
11 9 9 9 8 7 7 7 7 6 6 5 5 8 7 9 11 10 10 12 12 13 14 15 17 19 25 27 26 24 22 21 20 19 18 17 15 15 15 12 9 9 11
9 5 4 5 3 2 0 1 3 2 2 2 2 4 5 6 7 7 8 9 10 10 11 12 13 15 17 18 24 26 24 23 23 22 19 18 17 17 15 12 10 9 9
4 -2 3 -2 -4 -1 -9 -10 -6 -4 -1 -2 -2 -0 1 2 4 3 5 7 7 8 9 9 10 11 12 15 17 22 28 27 26 24 21 19 18 17 15 14 12 10 9
-7 -10 -9 -7 -9 -14 -16 -12 -13 -14 -8 -6 -5 -3 -1 -2 1 1 1 3 5 5 6 7 8 8 10 11 15 17 23 28 27 26 24 22 19 17 16 15 13 11 8
-0 -5 -9 -11 -14 -17 -19 -18 -16 -17 -12 -9 -7 -6 -4 -4 -1 -2 -1 -0 0 1 3 6 6 6 7 10 14 16 16 27 27 26 25 23 21 19 17 16 13 12 10

GFSGL_sfc_dewp_051.txt.gz
Dewpoint
58 58 58 57 56 55 53 51 48 45 42 43 43 39 39 43 40 37 37 37 36 36 36 36 35 35 34 34 35 33 31 30 28 24 22 23 23 22 21 22 20 18 18
57 57 56 54 53 52 51 48 46 43 43 43 40 40 42 38 37 37 37 35 35 35 35 35 34 31 34 34 32 31 29 27 25 21 20 19 21 22 22 21 15 13 18
54 53 52 51 50 50 47 45 44 43 41 40 41 41 38 38 37 37 36 36 37 35 35 35 34 34 33 32 31 29 27 23 23 21 19 19 20 21 19 18 15 18 15
50 50 49 49 48 45 44 43 42 41 41 41 40 41 40 37 36 36 37 36 35 34 35 35 34 33 32 32 30 28 25 23 21 20 19 18 19 19 18 13 13 14 14
48 46 46 45 43 41 40 40 41 40 39 37 37 39 39 38 37 37 37 36 35 35 35 34 34 34 34 32 26 27 25 24 20 21 19 19 18 17 14 12 13 13 16
45 43 41 39 38 37 37 36 36 39 38 41 41 40 40 39 37 37 36 35 34 33 33 33 33 33 33 32 32 30 28 24 24 23 20 19 18 18 16 14 15 15 14
39 38 36 36 35 36 37 39 40 41 42 41 41 41 41 40 36 35 35 33 34 34 33 32 31 28 30 28 30 32 32 30 26 26 24 21 21 19 13 14 15 16 16
36 35 36 38 38 40 40 41 41 41 41 41 40 39 37 33 33 34 34 33 32 32 33 32 32 31 30 28 28 28 25 27 26 22 22 21 21 18 16 18 20 20 17
37 38 38 39 40 40 40 40 41 39 39 37 34 33 33 32 33 33 32 32 32 31 31 31 31 30 30 30 28 30 25 26 25 26 24 24 23 22 23 22 21 19 20
38 39 41 40 38 37 37 35 34 33 31 30 30 31 31 31 32 32 32 33 33 32 31 30 30 30 30 30 32 31 30 26 22 20 21 22 21 21 23 20 19 20 18
35 33 32 31 30 31 31 31 30 29 30 31 31 31 31 31 31 32 32 32 34 33 31 30 30 30 30 30 30 32 32 29 25 22 20 18 15 17 18 19 18 19 19
29 29 29 30 29 28 30 30 29 29 30 29 33 30 30 30 30 31 32 32 31 33 32 32 33 31 31 31 30 30 30 30 27 26 24 21 20 21 20 19 20 20 19
30 29 28 26 24 23 22 22 21 21 23 24 23 25 24 27 27 30 31 31 30 31 34 34 32 31 31 30 30 31 31 29 29 27 25 23 23 22 22 23 21 21 20
26 24 22 20 19 19 18 18 19 21 22 21 21 22 23 24 26 27 28 28 29 32 31 33 33 32 32 31 31 32 32 31 30 28 27 24 24 24 24 23 22 22 21
22 19 18 19 18 17 17 19 20 21 23 21 21 21 26 26 26 27 27 28 30 29 32 33 32 31 30 30 30 30 30 31 29 28 28 25 24 23 23 23 21 20 19
16 16 19 19 19 18 16 15 20 20 20 21 21 22 23 22 22 23 25 28 29 30 31 30 31 32 30 30 28 26 27 28 28 28 27 26 25 23 23 22 21 21 19
15 15 16 17 17 18 17 16 15 17 18 19 19 18 18 19 20 21 22 24 28 30 30 30 31 32 31 30 28 26 26 27 29 28 28 27 26 24 24 22 22 21 19
16 18 16 17 18 17 16 16 16 16 16 16 15 15 16 17 18 19 19 20 19 20 27 29 31 32 30 28 27 27 27 29 28 27 27 27 27 25 24 22 21 20 19
14 14 16 17 16 15 15 14 14 14 14 12 12 12 13 14 15 16 16 16 15 16 17 18 20 25 28 29 31 31 31 30 29 27 27 27 27 24 23 22 21 18 17
12 15 12 13 13 12 12 12 11 12 10 11 10 10 10 10 12 14 14 15 14 13 14 14 16 18 21 30 32 32 31 30 28 27 27 27 26 25 24 22 22 21 18
12 10 10 10 10 9 9 9 9 9 9 8 9 9 6 8 10 11 11 11 11 12 12 12 14 16 18 21 22 30 29 29 27 27 26 26 25 24 23 23 23 20 18
10 8 9 9 8 8 5 6 7 6 5 6 6 6 4 8 8 8 9 9 10 11 12 12 12 13 14 16 18 20 25 27 27 26 26 25 23 24 23 23 22 21 19
8 7 6 5 5 3 4 3 4 5 4 4 4 4 5 6 5 5 7 7 7 8 9 9 11 11 13 14 16 17 20 22 28 27 26 25 23 23 23 23 21 21 19
6 6 4 4 4 2 2 1 2 -0 -0 1 2 3 3 3 4 3 5 5 5 6 7 7 8 9 11 11 13 15 18 19 18 28 27 26 25 23 23 23 22 21 19
6 5 4 4 2 1 0 -1 -1 -0 -0 -0 0 1 0 1 1 2 3 3 2 3 3 5 7 8 8 8 10 12 14 14 17 23 28 27 26 24 23 22 22 20 18
5 3 3 3 2 0 -1 -2 -3 -3 -3 -2 -2 -1 -1 -1 -1 0 0 1 1 0 1 3 4 4 6 8 10 10 10 12 15 17 28 27 26 24 23 23 21 20 18

GFSGL_sfc_dewp_054.txt.gz
Dewpoint
57 59 59 59 59 58 58 57 53 50 47 46 45 46 42 42 44 42 41 39 39 41 39 36 35 35 33 32 33 31 30 28 25 25 24 25 26 26 25 24 24 23 20
57 59 59 58 57 57 55 53 50 46 46 46 45 42 40 43 42 40 39 40 41 37 36 35 34 30 34 35 32 32 30 29 26 25 25 24 24 25 25 25 20 15 17
57 57 56 54 53 52 50 48 46 45 44 44 42 40 41 41 39 41 41 41 39 37 37 35 34 34 34 33 32 31 29 25 27 25 24 24 23 23 23 23 21 19 13
54 53 51 51 50 49 47 46 46 45 44 42 42 42 41 41 42 42 40 39 39 37 36 35 34 33 33 33 31 31 29 29 27 25 24 23 22 22 22 19 17 14 13
50 49 48 47 46 45 45 45 44 43 41 42 41 41 41 40 39 39 39 40 39 36 36 34 35 35 36 35 30 30 29 30 27 26 26 23 22 21 20 17 16 13 16
47 44 43 42 41 42 42 42 40 39 39 39 39 41 40 39 38 39 39 39 35 34 33 33 33 35 35 35 35 34 32 30 30 30 26 24 24 23 19 19 16 13 14
42 40 40 39 38 39 39 39 39 40 41 41 41 41 41 41 39 38 36 33 32 33 33 32 29 25 31 31 33 33 32 30 31 34 28 27 26 22 21 19 15 15 16
38 37 37 39 39 41 42 42 43 42 42 42 41 40 38 35 34 34 34 33 32 31 31 30 30 30 30 30 31 31 31 30 33 29 27 27 25 24 22 20 19 20 20
38 38 39 40 40 40 41 41 41 39 38 36 34 33 32 32 34 34 32 30 29 29 28 29 29 29 30 34 32 32 30 31 31 31 31 30 24 23 23 22 22 21 23
39 39 39 39 38 37 36 35 34 33 30 29 28 29 30 30 32 34 32 33 33 33 32 30 30 30 30 32 33 33 32 31 31 29 26 26 26 25 26 23 21 21 20
36 35 33 31 31 31 30 30 30 30 31 33 32 32 30 30 29 31 32 29 28 29 29 30 32 32 32 32 32 32 34 33 31 31 30 27 23 22 20 21 20 20 21
32 30 29 29 26 27 29 28 26 25 25 24 32 25 26 26 26 27 29 29 29 29 28 30 31 32 33 34 32 31 31 32 35 35 32 30 24 22 19 19 21 21 20
29 28 27 25 22 19 19 19 17 19 21 22 21 24 22 24 24 26 26 26 26 29 29 29 29 31 32 32 33 32 32 34 34 32 30 29 28 25 23 24 23 22 22
25 23 21 16 16 15 14 14 15 20 20 19 20 21 22 21 23 22 23 24 25 28 28 31 30 29 30 31 32 34 33 34 34 31 31 29 30 29 26 25 24 24 23
18 15 16 17 15 14 13 16 18 20 21 21 21 20 24 23 21 21 22 23 25 25 29 32 29 30 29 30 31 33 35 34 32 32 32 32 31 29 27 26 24 23 22
13 14 19 19 19 15 12 14 20 19 18 19 19 20 21 19 19 19 20 20 21 22 27 28 32 33 32 30 32 33 33 31 30 30 31 30 30 28 28 26 24 23 21
13 14 16 17 17 16 16 16 16 19 16 16 15 16 16 16 17 18 18 18 19 20 22 23 26 26 28 32 28 32 32 31 30 30 31 31 31 30 29 27 26 23 22
15 17 16 17 16 18 17 17 17 18 19 18 14 13 13 14 15 16 16 17 17 17 18 18 20 22 21 23 27 30 31 31 31 30 31 31 32 29 29 26 25 24 22
13 14 17 20 19 17 18 18 17 17 17 15 15 13 13 12 14 14 15 17 16 15 15 15 17 17 19 20 25 27 32 33 33 32 31 31 31 30 29 27 24 23 21
13 14 14 16 16 16 16 16 14 15 14 14 14 14 13 11 16 17 17 17 16 14 14 14 14 16 18 19 22 23 25 31 33 32 32 31 31 31 29 27 25 24 20
12 11 12 13 14 13 14 14 13 14 13 12 14 14 7 9 14 14 13 14 14 13 14 13 14 15 17 18 17 19 19 24 30 31 31 30 31 29 28 26 25 23 21
12 12 13 14 13 15 11 11 12 12 11 10 12 10 7 12 12 11 11 12 13 13 12 13 13 13 14 16 15 16 17 20 25 25 30 29 30 29 28 26 25 24 21
12 14 12 10 12 8 13 10 11 11 10 10 9 9 10 11 10 10 10 11 11 11 11 11 11 10 12 14 15 15 16 18 21 20 21 28 29 29 28 26 25 24 22
11 14 10 12 13 10 12 11 10 6 6 9 10 10 9 9 10 9 9 10 9 10 10 9 8 8 10 11 14 14 15 18 17 16 20 20 28 28 28 25 25 24 23
14 14 13 12 11 11 10 9 8 8 8 8 9 8 7 8 7 8 8 7 6 7 7 7 8 9 9 9 10 12 15 14 14 14 18 19 28 29 28 26 25 24 24
12 10 10 10 10 9 8 7 7 7 6 6 7 7 7 6 6 6 6 5 5 4 5 7 8 7 8 9 10 13 12 11 14 14 16 18 28 28 28 28 26 25 23

GFSGL_sfc_dewp_057.txt.gz
Dewpoint
58 60 61 61 60 60 60 59 59 56 52 50 48 48 46 46 45 44 42 41 41 42 39 40 43 40 38 37 36 33 31 30 28 28 26 29 32 31 27 28 28 28 27
57 59 61 61 59 59 58 57 54 52 49 48 48 46 45 44 44 43 40 40 40 39 40 43 40 35 38 38 36 36 33 32 30 30 29 28 30 31 31 29 24 19 23
56 58 57 56 55 54 51 50 49 47 47 47 45 43 43 44 42 41 40 40 41 42 43 40 39 38 37 37 36 34 33 28 32 30 29 29 29 28 27 28 26 28 20
56 54 53 53 51 50 48 47 46 46 45 45 43 43 43 42 40 40 41 42 42 41 41 40 39 37 37 36 34 35 32 32 32 30 30 29 29 27 27 24 25 25 22
52 50 50 49 48 48 47 46 46 45 43 42 43 42 41 41 41 42 42 40 41 41 41 39 38 37 36 36 32 35 35 32 30 30 30 30 27 27 26 26 25 24 22
49 46 46 46 46 47 46 45 44 43 42 42 41 41 41 40 39 38 39 41 39 36 34 33 33 35 36 35 35 35 35 35 34 33 30 30 30 30 28 28 27 22 19
45 45 44 44 43 43 42 41 41 41 42 42 41 41 41 41 39 39 38 38 33 32 32 32 29 26 32 31 32 34 34 34 32 34 34 32 31 32 30 27 25 22 20
42 41 41 41 41 41 41 42 43 43 43 43 42 41 41 37 38 35 34 32 30 29 29 29 31 31 32 32 32 32 32 32 34 32 31 32 33 34 30 28 25 23 21
40 41 41 42 41 41 41 41 41 41 40 37 34 33 32 31 34 34 32 32 31 31 30 30 29 31 31 33 32 32 31 32 31 35 35 35 30 27 25 27 26 24 25
40 40 40 40 40 40 39 38 35 33 30 28 27 28 30 30 32 31 28 27 27 27 26 25 27 27 28 31 33 34 32 31 32 31 33 33 30 28 27 24 24 25 23
39 39 37 36 35 35 33 31 29 28 30 33 30 30 26 27 27 29 30 25 27 27 27 27 27 28 29 31 30 30 32 34 33 32 32 34 33 28 29 28 25 24 24
35 33 32 30 26 27 29 27 24 23 25 25 27 26 27 27 27 27 24 24 24 24 24 27 28 28 29 29 29 30 31 32 35 34 34 34 33 31 28 27 27 25 24
32 30 27 24 21 19 19 20 17 19 22 23 21 24 22 24 23 26 23 22 23 25 25 26 27 28 28 29 28 31 31 31 32 31 33 33 32 32 32 31 28 25 25
27 25 21 19 17 15 13 13 16 22 21 20 21 21 22 22 22 21 20 21 21 22 23 25 25 26 28 29 30 31 34 32 32 32 33 34 31 34 34 32 29 28 26
21 17 18 17 15 15 14 16 19 22 21 21 22 20 24 23 21 19 19 20 22 21 24 26 27 27 27 28 29 31 33 32 32 33 34 32 31 32 33 31 31 28 27
16 17 22 22 20 14 12 18 20 20 19 19 19 19 20 18 17 18 19 19 19 20 21 22 24 25 24 24 27 28 33 33 33 33 34 31 30 31 30 30 29 28 25
18 18 19 20 18 17 17 17 17 21 19 20 17 15 14 15 16 17 17 17 19 17 18 19 22 23 22 21 23 24 27 31 33 30 31 31 31 30 32 30 29 28 26
17 22 17 17 17 18 18 19 19 19 21 21 19 14 12 14 15 16 16 17 17 16 16 16 18 18 19 19 20 21 23 26 27 33 31 31 32 32 31 29 29 28 24
15 16 19 22 21 19 19 19 19 18 18 17 16 17 15 14 14 16 16 18 16 15 14 13 16 16 17 18 21 21 23 24 26 27 33 32 32 31 31 30 30 29 27
13 17 18 17 17 17 17 17 16 17 16 17 16 16 16 12 15 17 18 17 16 14 14 12 12 15 16 18 20 21 21 21 22 25 28 32 32 32 30 30 30 28 25
14 12 15 14 15 14 15 16 15 16 16 15 16 17 9 10 14 15 14 15 14 13 13 13 14 16 16 17 17 18 18 18 20 22 24 25 32 30 31 31 30 28 25
13 13 14 16 14 16 14 13 14 14 14 13 14 13 10 14 14 13 12 14 14 13 15 13 13 13 14 14 15 17 16 16 18 19 21 20 22 28 30 30 29 28 24
14 14 13 12 14 11 15 14 14 15 13 13 12 12 13 14 13 12 12 13 12 12 12 12 13 12 12 14 15 15 15 15 16 19 17 18 19 21 29 29 28 27 24
14 16 12 14 16 12 14 14 14 10 10 12 13 13 12 12 12 11 11 12 11 11 12 12 10 9 11 13 14 14 14 15 17 17 16 16 16 19 23 29 28 27 25
16 16 14 13 13 14 13 13 12 12 12 12 12 12 10 11 9 10 10 9 9 9 9 9 10 10 10 10 11 11 13 15 14 13 14 15 16 17 19 28 28 28 25
13 12 12 13 13 13 12 11 11 11 10 10 10 10 9 9 8 8 8 7 7 6 6 9 8 7 8 10 11 12 12 12 13 13 16 15 15 17 20 28 28 28 25

GFSGL_sfc_dewp_060.txt.gz
Dewpoint
58 60 60 61 62 61 61 60 59 56 54 54 51 49 48 47 46 45 43 42 41 42 42 42 41 42 43 40 39 38 36 34 31 31 31 30 31 31 29 31 32 30 30
59 60 61 61 61 59 58 57 56 53 52 50 48 47 46 45 44 43 41 40 41 41 41 39 41 42 40 39 38 36 36 34 32 30 30 30 30 30 31 30 29 24 26
60 60 59 57 55 53 51 50 49 49 48 48 47 45 44 44 43 42 41 41 41 40 40 42 43 41 39 39 38 36 35 34 34 32 31 31 31 31 29 29 28 29 27
57 56 54 52 51 49 49 48 48 47 46 44 44 44 44 43 42 41 41 41 42 42 42 41 41 40 39 37 37 36 35 34 34 33 32 30 30 30 31 27 27 28 26
53 51 50 49 50 48 47 47 46 45 44 43 43 43 42 42 40 41 42 43 41 41 41 41 41 41 40 38 35 34 33 32 32 31 30 29 29 29 29 31 29 27 27
50 49 49 49 48 48 46 45 44 43 43 43 42 41 41 41 40 40 40 40 40 40 38 34 34 35 35 35 36 35 34 32 31 32 31 30 30 30 31 31 30 29 27
47 47 47 48 46 46 45 44 43 43 43 42 41 41 42 41 38 39 38 40 36 33 32 32 30 27 32 31 32 33 33 34 32 32 31 31 32 32 33 32 31 32 29
46 45 44 44 43 43 42 42 43 43 43 43 42 42 41 39 38 35 33 32 31 32 32 31 29 28 28 30 27 26 28 31 31 30 32 33 33 34 35 33 32 29 24
42 42 42 42 42 42 42 43 43 42 42 41 41 37 34 32 31 30 30 30 28 27 26 27 27 25 28 30 27 27 28 29 30 33 34 34 35 35 34 32 29 25 21
42 42 42 42 42 41 41 41 41 39 34 31 31 34 32 28 31 30 27 27 26 26 25 24 27 27 29 29 27 27 26 24 25 27 29 30 34 33 32 29 28 26 26
41 41 41 40 40 39 37 35 33 32 35 33 31 29 30 29 28 27 25 25 24 23 22 22 23 26 27 27 27 26 26 26 27 28 28 30 31 32 31 29 27 27 26
40 38 36 36 32 31 32 31 29 30 29 29 27 28 29 27 28 24 23 22 22 23 22 22 23 25 26 27 27 28 29 28 28 28 27 26 29 31 34 30 28 27 26
35 33 30 28 28 27 27 25 24 26 26 27 26 28 27 26 26 24 21 21 21 22 22 22 22 23 25 26 28 29 28 29 28 29 29 27 29 32 34 32 30 28 26
31 29 26 23 20 20 16 19 25 26 26 26 27 25 25 24 24 21 20 20 21 21 21 21 21 23 23 23 23 24 26 27 29 31 30 30 32 32 32 32 29 28 27
27 23 21 21 21 19 19 21 24 22 24 25 24 23 22 21 20 19 19 19 19 20 19 20 21 21 19 19 19 20 22 23 25 30 31 30 32 31 31 32 31 29 27
21 21 27 26 23 19 18 17 24 21 21 21 20 21 21 18 17 17 18 19 19 20 19 18 17 17 17 17 17 18 19 20 22 25 30 31 30 29 30 32 30 28 26
23 23 25 25 24 22 23 24 21 21 20 21 19 17 15 14 15 17 17 18 19 20 16 16 14 15 16 16 16 17 17 18 20 21 25 28 27 27 26 29 29 27 27
22 26 23 23 23 25 23 23 23 24 23 22 20 18 16 14 15 16 17 17 17 17 16 15 13 14 14 14 14 15 17 18 18 19 21 24 27 24 24 28 28 27 26
20 22 25 25 23 23 23 23 23 22 22 21 22 21 17 15 14 15 17 17 13 14 14 13 13 13 13 13 14 14 15 17 16 16 19 21 21 28 28 28 29 28 28
18 22 23 22 20 22 22 21 21 21 21 21 20 20 18 13 10 12 15 12 11 13 13 12 12 12 12 13 13 13 13 13 14 15 16 19 19 19 27 23 27 29 27
17 20 19 18 19 19 20 20 19 20 20 19 18 15 8 12 11 14 14 12 12 12 10 12 12 11 11 11 11 11 11 11 11 15 15 16 16 16 19 22 28 29 28
21 20 19 19 18 19 17 16 18 18 17 17 17 16 11 13 15 14 12 10 8 10 11 10 10 10 10 10 8 8 10 9 10 13 12 13 14 14 16 18 24 28 27
20 17 16 15 16 13 17 17 17 17 17 15 14 14 15 14 12 11 10 8 9 8 9 9 8 8 8 7 9 11 9 9 10 11 11 12 12 12 13 14 17 27 26
18 18 15 17 18 14 16 17 16 14 14 14 14 14 13 12 9 7 7 7 6 5 5 8 7 4 7 10 9 9 9 9 10 13 13 10 9 10 13 14 16 21 26
18 18 17 16 16 16 16 15 15 14 14 14 13 13 11 11 10 8 6 6 4 5 6 3 5 7 5 5 6 7 10 12 10 9 11 10 10 10 11 13 14 17 26
15 14 15 15 15 15 14 13 12 12 12 11 12 9 9 9 8 5 7 3 6 2 1 4 3 3 4 7 8 9 10 11 11 12 13 12 11 10 11 13 16 17 25

GFSGL_sfc_dewp_063.txt.gz
Dewpoint
54 54 55 58 58 58 60 60 58 56 55 54 52 50 49 49 47 46 44 43 43 43 43 42 42 42 42 43 42 39 38 36 34 33 32 31 29 30 30 36 33 34 34
55 56 59 60 59 59 58 58 56 54 54 51 50 49 48 46 45 44 42 42 41 41 41 41 40 39 42 43 41 39 37 37 35 33 32 31 31 31 31 31 30 28 29
61 60 59 57 55 54 52 52 52 50 49 48 48 46 45 44 43 43 42 42 41 41 41 41 41 44 41 40 39 39 38 36 35 34 33 33 32 33 32 31 31 31 28
57 56 54 52 50 49 50 49 48 48 47 46 45 45 45 44 43 42 41 41 41 41 42 42 41 40 39 39 39 36 36 35 35 34 33 32 31 32 32 31 29 31 30
53 51 50 49 49 48 47 46 46 45 44 44 44 44 44 43 41 41 41 41 42 41 41 41 41 41 41 40 39 37 35 34 33 32 31 31 30 29 28 30 30 31 30
50 49 48 48 47 46 45 45 44 43 43 43 43 42 41 41 39 39 41 41 40 40 38 34 33 35 34 34 32 32 31 29 29 29 30 30 31 30 30 30 32 31 31
49 49 48 47 46 45 44 43 43 43 42 41 39 40 40 40 39 39 38 39 38 32 31 31 28 26 29 28 29 29 28 30 29 29 29 29 30 31 32 31 30 32 32
47 48 47 46 44 44 43 42 42 41 40 39 39 40 40 40 37 37 35 31 30 28 28 27 27 26 26 28 26 26 26 26 26 27 29 29 30 33 33 33 32 32 34
45 45 44 43 41 42 41 42 43 42 41 41 41 35 30 28 31 31 28 26 26 26 25 25 24 25 28 28 25 23 22 23 24 28 28 29 29 30 30 30 32 32 30
43 42 42 42 42 42 42 41 41 41 40 34 32 30 29 28 30 30 27 25 23 22 23 23 25 25 27 26 23 24 24 24 25 26 26 28 29 29 31 32 31 31 30
42 42 42 42 41 41 40 37 35 33 30 28 29 29 28 27 27 27 25 23 23 23 23 22 22 23 23 25 26 26 26 27 29 28 28 28 27 27 27 31 31 33 30
42 41 40 40 38 35 32 31 31 29 27 26 27 27 26 25 25 24 23 22 22 22 21 22 22 22 24 25 25 26 25 26 26 26 26 27 27 28 28 30 32 32 33
39 37 35 33 31 29 26 26 26 27 25 26 25 25 25 24 23 22 21 20 21 22 22 21 21 23 23 24 22 21 22 22 21 21 23 23 29 30 30 32 33 30 32
34 30 28 25 24 22 23 25 25 25 23 25 25 23 23 22 20 19 19 19 19 20 21 20 21 22 21 21 20 20 20 19 19 21 21 24 30 30 30 32 31 30 26
28 25 22 22 21 21 24 23 22 23 25 23 23 23 19 16 19 18 19 20 17 21 18 18 19 19 18 18 17 17 17 18 17 17 19 20 22 28 31 32 31 29 26
22 21 25 24 22 19 21 19 21 23 24 23 23 22 22 20 17 17 17 18 18 20 18 14 8 5 10 15 15 14 14 15 16 17 16 19 20 22 28 30 31 29 27
25 25 25 24 23 22 20 19 19 22 22 21 20 19 19 17 15 16 16 17 18 18 13 12 4 3 7 14 14 13 12 14 16 16 14 16 18 21 20 26 29 28 26
23 26 24 23 23 24 23 24 22 21 21 22 21 19 18 16 15 15 16 16 16 16 16 14 8 9 12 12 12 12 12 12 13 13 13 14 16 18 17 18 26 26 26
24 24 24 23 24 24 24 23 23 23 23 22 22 21 19 15 14 12 17 15 12 13 15 13 10 11 10 11 5 7 6 9 10 11 10 13 13 16 14 16 18 27 26
22 25 24 24 24 24 24 24 23 22 21 21 20 19 16 13 9 7 7 5 7 11 10 12 12 12 5 7 1 3 8 5 8 8 8 12 11 14 13 14 16 17 25
22 23 24 25 23 22 22 21 20 20 20 19 17 14 13 12 10 9 14 9 9 8 4 7 5 -1 0 1 9 6 4 4 8 7 9 8 9 10 12 13 14 15 17
23 23 23 22 22 21 19 17 19 18 18 17 16 14 12 10 12 14 11 6 2 3 4 1 -1 1 2 7 4 2 5 6 6 7 5 6 8 10 10 9 10 12 15
21 21 20 19 18 16 17 17 17 16 15 14 14 14 14 11 10 10 6 0 3 1 -1 -1 -6 2 2 -1 2 8 6 5 6 6 7 7 8 7 8 8 10 12 13
20 19 18 18 17 14 14 14 14 14 14 12 11 11 10 10 6 3 1 -1 -3 -8 -11 -5 -2 0 4 5 3 4 7 7 8 10 10 7 7 8 8 9 10 10 12
18 17 16 16 15 14 13 13 12 11 10 10 8 9 9 5 6 0 -4 -6 -7 -9 -6 -7 -6 -1 -1 -1 1 3 6 9 10 10 10 9 7 7 8 9 10 10 12
17 16 15 15 13 11 9 7 6 6 6 6 5 2 1 2 -0 -9 -7 -8 -3 -7 -8 -8 -4 -4 -1 2 4 8 7 6 7 8 9 9 8 8 9 9 9 10 12

GFSGL_sfc_dewp_066.txt.gz
Dewpoint
51 51 52 54 57 58 58 58 58 58 59 58 56 53 51 51 49 48 46 45 44 43 43 43 43 42 43 43 43 42 40 39 37 36 34 33 31 31 31 34 36 36 36
56 56 56 58 59 59 59 58 58 57 55 54 53 51 50 49 47 46 44 44 43 42 42 42 42 42 41 42 43 42 40 39 37 36 35 32 31 32 32 32 31 32 32
59 58 58 58 58 58 57 57 56 54 52 51 51 49 48 46 45 44 43 43 43 43 42 41 41 42 43 41 39 38 38 39 37 35 35 35 33 33 32 32 33 32 32
56 58 58 59 59 57 54 53 52 51 49 49 49 47 45 45 44 43 43 42 42 41 42 42 43 41 38 37 37 36 35 33 33 32 33 33 31 32 32 31 31 30 31
55 56 53 53 53 52 51 50 49 48 48 47 45 45 44 44 43 42 41 41 41 42 42 41 40 39 36 34 30 27 27 27 27 27 27 28 28 29 28 30 30 30 32
53 51 50 50 49 49 49 47 46 45 45 44 44 44 43 42 39 39 40 42 41 40 38 32 31 29 31 31 31 31 29 25 24 25 25 25 25 28 30 30 31 31 30
51 50 49 48 47 47 46 46 44 44 44 43 43 42 41 41 39 39 38 39 36 31 28 27 25 24 28 27 27 27 26 25 27 25 24 25 25 26 28 27 27 28 28
49 48 48 47 46 45 44 43 43 42 42 41 40 39 39 39 38 37 34 30 28 28 26 24 23 24 27 25 25 23 23 23 23 23 24 25 26 26 25 26 26 27 27
48 47 47 45 44 43 43 42 41 40 39 39 38 35 33 35 35 32 28 26 24 23 23 23 24 24 24 25 24 24 24 25 26 28 29 30 31 31 30 29 26 25 25
47 47 45 44 43 42 42 41 40 40 40 39 33 30 29 29 31 30 26 24 21 20 22 22 23 22 23 25 25 25 24 22 23 25 24 24 26 27 30 28 27 27 27
44 43 42 42 42 41 41 41 39 35 34 31 28 28 27 28 27 26 24 22 22 23 22 21 21 22 23 25 25 24 21 21 24 21 22 23 25 25 26 28 28 29 28
42 42 42 42 41 41 38 35 31 29 29 27 27 26 25 25 26 25 24 23 22 23 20 21 22 22 24 24 22 20 20 22 20 19 20 19 20 22 25 30 30 30 31
42 40 39 37 36 33 33 31 29 27 27 27 26 24 23 23 23 22 21 21 21 21 21 20 20 22 23 23 19 18 21 19 18 16 17 17 18 20 24 26 31 31 31
36 34 32 31 26 26 27 28 27 26 26 26 25 24 23 21 20 20 19 20 19 20 20 21 21 22 20 20 19 19 18 18 17 16 16 17 17 19 21 22 28 30 30
29 27 26 25 25 23 21 23 24 26 26 25 24 24 21 20 20 20 19 20 20 21 18 18 20 18 15 15 17 16 16 15 14 15 16 14 15 17 18 21 22 29 27
23 24 24 24 24 19 17 19 26 26 26 26 25 24 23 22 19 18 17 17 17 20 20 17 13 12 13 15 14 13 13 13 13 13 13 13 13 14 16 17 18 23 26
24 23 24 23 22 21 20 20 20 23 23 22 22 23 22 21 19 16 15 16 17 17 16 14 9 8 11 13 13 12 11 12 13 11 11 11 12 13 14 15 16 17 22
24 25 24 24 24 24 24 24 23 22 22 22 22 22 21 18 18 15 16 17 17 16 16 14 11 12 12 11 11 10 10 9 8 8 9 7 9 11 11 12 14 14 15
22 24 25 25 25 25 25 25 25 24 24 24 24 23 21 20 17 15 17 17 15 14 13 11 13 12 11 10 6 3 -2 -2 1 1 2 3 8 8 8 11 12 13 14
25 26 26 25 25 24 24 24 24 24 23 22 21 19 17 15 13 12 13 11 12 13 12 11 11 10 8 6 -0 -4 -4 -5 -0 4 0 3 1 5 7 9 11 10 11
25 25 24 24 24 23 23 22 22 21 21 20 18 17 16 14 13 13 15 11 12 12 10 10 9 3 2 0 4 -4 -3 -5 2 5 4 5 2 4 6 9 9 9 11
24 23 23 22 22 20 20 20 20 19 19 17 16 15 14 13 14 15 14 11 8 10 9 6 4 2 2 2 -1 -7 -1 2 -2 2 4 4 5 6 7 7 7 8 10
21 20 20 19 19 18 18 18 17 17 15 15 15 15 15 13 12 12 10 7 9 6 4 4 -5 -2 -2 -7 -6 0 3 2 4 5 4 4 5 6 5 5 7 8 8
19 18 18 17 16 15 15 14 14 15 15 14 12 12 11 10 7 6 5 4 4 -3 -6 -8 -7 -4 -1 -6 -6 -3 3 5 6 7 7 6 5 5 5 6 7 8 8
17 16 15 15 14 13 13 12 11 10 10 9 8 7 8 6 6 1 -0 -2 -4 -10 -7 -9 -11 -7 -6 -6 -4 -3 -0 5 5 4 5 5 4 4 5 6 6 8 9
15 14 13 13 11 11 9 8 7 7 5 5 3 1 1 1 -2 -9 -11 -10 -11 -12 -11 -11 -9 -7 -6 -3 -0 4 1 0 1 3 4 4 3 4 5 6 7 9 9

GFSGL_sfc_dewp_069.txt.gz
Dewpoint
48 49 50 51 53 54 54 55 56 57 58 57 57 57 56 54 53 51 49 47 46 45 45 45 43 43 43 43 43 43 42 41 39 38 36 35 33 32 33 33 35 36 38
50 50 51 52 53 54 55 57 57 58 58 58 57 55 53 51 50 49 46 46 45 44 44 43 43 43 42 42 43 42 41 41 39 35 35 33 32 33 33 33 33 33 33
52 51 52 53 53 54 57 57 58 57 56 55 55 53 51 50 48 47 47 45 44 43 43 43 43 42 42 43 41 39 38 38 35 32 32 33 32 33 32 33 33 34 33
53 54 53 54 55 56 58 58 58 55 54 52 52 51 49 47 47 46 45 44 43 43 43 42 42 43 41 39 38 33 29 27 28 27 26 28 29 30 30 29 28 30 31
53 54 54 55 56 58 57 55 52 52 51 50 48 47 46 45 45 44 43 43 42 42 42 42 39 36 35 33 28 26 24 24 24 23 23 24 22 24 23 26 28 28 28
55 55 56 55 55 55 53 51 50 49 48 47 46 45 45 44 40 40 41 41 41 42 38 32 31 31 32 31 29 29 27 23 21 22 21 20 20 23 25 25 25 24 21
55 53 53 53 51 50 50 49 48 47 46 45 45 44 42 42 39 39 39 41 38 34 30 28 24 26 28 26 25 24 23 23 25 23 21 22 23 23 24 24 25 25 24
52 51 50 50 49 48 48 46 45 45 44 43 43 43 42 40 38 37 34 31 29 27 25 24 23 25 25 24 23 23 23 24 24 24 24 25 25 26 27 26 28 28 27
50 50 49 48 47 46 45 44 44 44 44 42 42 41 39 39 35 32 29 28 23 22 23 23 23 23 24 24 24 24 24 24 24 23 26 26 26 27 27 26 27 27 23
49 48 48 47 45 44 44 43 42 42 41 39 35 35 35 33 32 31 27 24 21 21 22 21 23 22 23 25 25 24 23 21 22 23 21 22 24 26 27 26 27 26 25
49 47 46 45 44 44 42 41 41 40 35 32 28 29 29 29 29 28 25 22 21 21 21 20 20 21 23 24 23 22 20 20 20 19 19 20 21 21 21 23 24 28 27
45 44 43 43 43 42 40 38 37 35 30 29 27 27 26 26 27 25 24 23 23 22 20 20 21 22 23 21 21 18 18 21 19 17 17 17 17 17 18 20 22 24 25
43 42 42 42 41 39 36 33 32 31 30 28 26 25 24 23 23 24 24 22 21 21 21 20 20 22 21 21 17 17 19 18 17 15 15 15 16 16 18 19 21 22 25
41 39 37 34 32 33 32 30 29 29 28 26 25 23 22 20 20 20 21 22 20 20 21 21 21 23 21 20 19 17 17 17 15 14 13 16 16 15 15 17 18 19 21
35 32 30 29 26 25 25 26 26 27 28 26 25 23 21 20 20 21 21 21 21 22 22 21 19 17 15 15 15 15 14 13 13 13 13 12 12 12 13 15 16 16 17
28 28 28 26 25 23 23 23 28 28 28 27 26 25 24 23 21 20 20 21 20 21 20 17 14 12 14 14 13 12 12 11 11 11 11 10 10 9 11 12 14 14 15
26 26 25 23 22 21 21 21 20 23 25 25 25 24 23 21 22 21 20 19 19 17 17 14 9 9 12 12 11 11 10 11 10 9 8 9 8 7 10 9 11 12 12
25 26 24 23 23 23 23 23 23 22 21 22 24 23 24 23 20 16 17 18 17 16 16 14 12 13 12 9 9 8 8 9 7 6 6 6 2 5 7 5 8 9 10
25 25 26 26 26 26 26 25 25 24 23 23 24 24 23 24 22 22 21 19 17 16 14 12 13 12 10 8 9 7 5 4 3 -2 -1 -1 -8 5 3 4 6 7 8
27 27 27 26 26 25 25 25 24 24 24 23 23 21 19 18 15 14 15 13 14 14 13 12 11 10 9 8 6 2 2 0 -1 -2 -2 -11 -4 -3 1 2 4 5 7
25 25 25 24 23 23 22 22 22 21 21 20 18 19 18 16 15 14 16 13 13 13 12 12 10 8 7 6 6 3 -1 -8 -4 -1 -1 1 -4 0 3 4 5 6 6
22 22 21 20 19 19 19 19 19 18 18 17 16 16 17 15 15 16 14 12 10 12 10 8 7 6 5 3 2 -6 -8 -9 -9 -4 -1 2 3 3 3 4 3 3 5
20 19 19 18 17 17 17 17 16 16 15 15 15 15 15 13 12 11 10 8 9 7 5 4 -1 1 2 -2 -7 -6 -5 -1 0 2 1 1 2 3 3 3 3 3 5
17 17 16 15 15 15 14 13 14 13 13 12 12 11 10 8 6 6 5 3 2 -1 -2 -6 -3 -2 -2 -8 -9 -7 -2 -1 3 3 3 2 1 1 2 3 3 3 5
15 14 13 12 12 11 11 10 9 9 8 6 5 5 7 6 5 -1 -5 -5 -6 -13 -11 -11 -11 -9 -8 -9 -8 -6 -5 1 -2 -1 1 1 0 0 1 2 3 4 5
11 10 9 8 7 6 4 2 -0 -1 -1 2 -1 -4 -4 -4 -9 -20 -17 -15 -15 -15 -13 -12 -11 -9 -9 -7 -5 -1 -6 -5 -4 -1 0 -0 -1 -1 0 2 3 4 5

GFSGL_sfc_dewp_072.txt.gz
Dewpoint
50 50 50 50 51 51 52 53 54 54 54 55 55 56 56 56 55 54 53 51 51 48 48 47 46 45 44 44 44 43 42 42 40 40 39 37 36 35 35 35 36 35 36
50 50 50 51 51 51 52 52 53 54 55 56 56 56 56 55 52 52 50 49 49 47 47 46 44 43 43 43 43 42 42 41 40 38 37 36 34 35 35 34 32 32 34
51 50 51 51 50 50 51 52 54 55 55 56 57 56 55 53 52 51 50 49 48 48 46 45 43 43 43 43 43 41 39 38 37 35 32 33 32 32 31 30 31 32 29
51 50 50 50 50 50 51 53 55 56 56 56 55 54 52 50 50 49 48 48 46 46 45 44 43 42 42 41 39 37 31 29 27 26 26 27 28 28 28 25 22 27 26
50 50 50 50 50 50 53 55 55 56 56 56 54 52 52 50 49 48 46 45 44 44 44 42 41 40 39 37 32 28 26 25 23 21 20 22 18 20 21 24 25 26 26
51 51 51 51 52 53 54 55 56 56 55 52 50 49 47 46 41 42 43 44 43 43 37 34 34 33 32 32 30 28 24 21 18 19 19 19 20 22 25 25 25 23 21
51 51 52 52 53 54 55 54 52 52 50 48 46 46 46 45 40 41 40 43 42 36 32 28 27 29 29 26 25 24 24 25 25 23 22 22 23 24 25 24 24 24 24
53 53 54 54 54 51 50 50 49 48 48 47 45 45 44 41 39 39 37 35 33 31 29 27 27 25 24 22 21 23 23 24 25 25 25 25 25 26 27 25 25 25 25
54 53 53 53 50 49 48 46 46 46 45 44 43 43 41 38 36 34 32 29 26 24 24 24 23 23 25 25 23 23 23 23 21 21 23 22 23 24 25 26 24 24 23
52 51 50 49 48 47 46 44 45 44 42 41 40 40 37 35 34 33 29 26 23 23 22 22 24 23 25 26 24 23 20 19 19 17 18 19 21 22 23 22 24 23 22
50 49 48 48 47 46 44 43 42 39 36 34 33 33 33 33 32 31 28 25 23 21 19 18 21 23 25 25 23 22 20 18 17 17 16 17 18 17 18 18 19 20 20
48 47 47 46 44 42 41 40 37 35 33 32 30 29 28 28 28 27 25 24 23 21 19 20 22 23 25 23 21 20 19 18 18 17 16 15 15 16 16 16 18 20 21
44 44 43 42 41 40 38 36 35 33 31 30 28 26 25 25 25 25 24 23 23 22 22 21 22 24 23 20 18 19 18 18 16 15 14 12 14 15 15 16 17 19 20
42 41 39 38 36 36 36 35 34 32 30 28 27 24 23 22 22 22 22 21 21 21 22 22 23 23 21 19 19 18 16 16 14 14 12 13 14 14 13 13 14 16 17
37 35 34 32 30 28 28 30 31 31 31 28 27 25 23 21 20 21 21 22 23 23 23 22 20 18 16 16 16 14 14 13 12 13 12 11 10 10 9 12 13 14 13
32 31 31 30 29 28 27 27 30 29 29 28 27 25 25 24 22 22 22 23 23 23 21 19 15 15 14 14 14 13 13 12 11 11 10 8 7 8 7 8 10 9 11
31 29 28 27 26 25 25 25 23 27 29 29 29 28 27 26 25 23 22 22 20 20 17 16 13 12 13 13 13 12 11 11 11 9 7 6 7 7 6 7 6 7 8
28 28 28 27 26 26 25 25 25 23 22 23 26 26 25 23 22 20 20 20 19 18 16 14 12 13 12 11 10 9 8 8 8 6 5 6 6 5 4 4 4 5 6
27 26 26 27 27 26 26 25 25 23 23 22 24 25 26 25 25 24 23 20 18 17 17 16 15 14 13 12 11 9 8 7 6 4 3 3 3 3 2 3 3 2 3
27 27 27 26 26 25 25 25 25 24 24 23 22 21 19 19 16 15 16 16 16 17 16 15 14 14 12 10 9 7 5 5 4 3 3 1 -1 -1 0 1 2 2 3
24 23 23 22 22 22 21 21 21 20 19 18 17 18 18 17 16 15 16 14 15 14 13 13 11 10 9 8 7 6 3 1 1 0 -0 1 -2 -2 1 2 3 3 4
20 20 19 19 19 18 18 18 17 17 16 15 16 16 16 15 15 15 13 11 10 11 10 9 8 7 6 4 3 1 -0 -3 -3 -2 -3 -2 0 2 2 2 2 3 3
18 17 17 17 16 15 15 15 14 14 13 13 13 13 11 10 9 8 7 7 7 5 5 4 0 1 2 1 -2 -3 -5 -3 -1 -1 -1 -0 0 2 2 1 2 2 3
16 15 14 13 13 12 11 10 11 10 10 9 8 8 6 2 -2 -2 -4 -4 -3 -7 -10 -10 -6 -5 -4 -8 -8 -7 -3 -3 -0 1 1 -1 -2 -1 0 0 1 2 3
12 11 10 9 8 7 5 4 3 2 2 1 -3 -5 -0 -2 -1 -10 -15 -13 -12 -15 -12 -13 -14 -10 -10 -10 -9 -8 -8 -2 -2 -4 -2 -2 -2 -2 -1 -1 -0 1 2
8 6 5 4 2 1 -1 -4 -7 -8 -9 -8 -11 -10 -7 -6 -8 -16 -16 -15 -16 -14 -13 -12 -11 -11 -11 -9 -7 -4 -6 -7 -6 -5 -3 -2 -3 -3 -1 -1 -1 1 2

GFSGL_sfc_dewp_075.txt.gz
Dewpoint
52 53 53 53 53 53 53 53 53 55 54 55 55 55 55 56 57 57 58 57 57 56 53 53 51 49 48 47 46 45 44 43 43 42 41 41 41 41 40 39 36 35 34
53 53 53 53 53 53 53 53 54 54 54 55 54 55 55 55 56 56 56 55 54 52 51 51 50 48 47 46 46 45 45 43 41 41 40 41 38 39 36 35 28 21 23
52 53 53 54 53 53 53 53 53 53 54 54 55 55 56 57 57 57 55 53 52 52 51 50 49 47 45 45 44 43 43 41 40 39 37 38 34 34 31 24 23 24 21
53 53 53 53 53 53 53 53 54 54 54 54 55 55 56 57 56 54 53 52 51 51 49 49 47 47 44 45 43 41 38 35 34 31 30 30 29 28 22 19 19 23 23
52 52 52 53 53 53 53 53 53 54 54 54 55 55 56 55 53 52 53 51 49 46 46 45 45 44 43 42 39 36 33 30 29 26 26 24 21 15 17 21 23 21 22
52 52 52 52 52 52 52 53 53 54 54 55 56 55 54 53 45 45 49 48 46 44 41 39 39 39 35 34 33 31 30 26 24 23 20 16 15 21 23 24 23 22 18
52 52 52 52 51 52 52 52 54 55 56 55 55 54 52 51 42 43 43 46 44 40 37 34 32 32 31 28 27 26 26 25 26 21 19 19 21 23 25 24 23 24 23
51 51 51 52 52 52 53 54 55 56 55 53 50 50 48 46 40 40 40 41 37 35 34 33 31 29 26 23 21 21 22 22 23 22 23 22 24 24 24 22 23 24 23
52 52 52 52 53 53 54 53 51 50 49 47 46 45 43 40 38 37 36 34 32 30 30 29 26 25 28 25 21 21 19 22 21 21 20 19 20 22 23 23 21 20 22
53 53 54 54 51 50 48 48 47 47 45 43 42 42 39 37 35 35 34 31 29 27 26 26 26 25 27 25 23 21 18 18 17 15 16 16 17 18 19 20 20 21 19
53 52 51 51 50 49 47 45 44 41 38 36 35 36 35 35 34 34 33 31 28 24 22 22 24 27 27 25 23 21 20 17 17 15 14 15 16 16 16 15 14 17 19
50 50 49 48 47 46 44 41 38 36 34 32 31 30 31 32 32 31 30 28 26 22 19 20 24 26 26 23 22 21 19 18 20 18 17 15 14 14 15 14 15 16 17
47 46 44 43 42 41 39 37 35 34 33 31 30 29 28 28 28 29 27 26 24 22 22 22 25 26 23 21 21 19 18 19 18 17 15 12 12 13 13 16 15 15 17
43 42 41 39 37 37 36 36 34 33 32 30 28 26 26 25 24 23 23 22 22 22 23 24 25 24 22 20 20 18 18 18 16 16 15 14 14 14 14 13 13 15 15
39 37 35 34 32 31 31 32 32 32 32 30 28 26 25 23 23 23 23 23 23 23 24 23 22 20 19 18 18 16 16 15 14 15 14 13 12 11 12 12 12 13 13
35 34 33 32 31 30 29 28 30 30 30 29 28 27 26 25 26 26 26 26 24 23 22 22 21 20 18 16 17 16 16 13 13 14 14 12 10 10 10 10 9 11 10
33 31 30 30 29 28 27 26 25 28 30 30 29 29 28 28 28 28 27 26 25 21 21 20 20 19 17 14 15 15 15 15 14 12 12 11 9 8 9 8 9 9 8
28 29 28 27 26 26 25 26 25 24 23 25 28 27 27 27 26 25 23 20 20 20 19 19 19 18 17 15 15 14 12 12 12 11 11 10 9 8 8 7 7 8 7
28 28 27 27 27 27 26 26 25 25 25 24 25 26 26 26 25 24 22 22 21 19 18 17 18 17 16 14 15 14 13 12 11 10 9 8 8 7 6 6 6 5 5
26 27 27 26 26 26 26 26 26 25 24 24 23 21 21 21 21 21 21 21 20 18 17 16 15 15 14 13 13 12 11 10 9 8 8 8 8 7 6 6 7 7 6
23 23 23 23 24 23 23 23 22 21 20 19 20 20 19 19 18 18 17 17 17 16 15 14 13 13 12 11 9 9 7 7 6 5 5 5 6 5 5 6 7 6 5
21 21 21 20 20 20 19 19 19 18 17 17 17 16 16 17 16 14 13 13 14 13 12 11 10 8 8 7 6 6 4 3 4 3 3 3 3 4 5 5 5 6 6
20 19 17 17 17 16 16 16 15 15 14 14 14 13 13 13 12 11 11 11 10 9 8 7 6 4 4 4 4 3 2 1 2 3 2 3 3 3 5 4 4 4 5
16 16 14 13 14 12 12 12 11 10 10 10 11 10 10 9 8 6 6 7 6 5 4 3 1 -0 -1 0 1 1 -1 0 1 1 2 1 0 1 3 3 4 4 4
12 11 10 9 8 8 8 7 7 7 7 7 7 7 7 6 5 4 3 3 1 1 -0 -0 -0 -2 -2 -4 -4 -3 -3 -3 -1 -1 -1 -0 -0 -0 0 2 3 4 4
7 6 6 6 5 4 4 3 2 2 2 3 3 3 3 2 2 1 0 -1 -2 -2 -3 -2 -3 -5 -5 -5 -5 -4 -6 -6 -6 -5 -1 -1 -1 0 2 2 3 4 4

GFSGL_sfc_dewp_078.txt.gz
Dewpoint
53 54 54 54 55 56 56 56 56 56 55 54 54 54 53 53 53 55 55 55 55 57 58 58 56 55 53 53 52 51 50 50 48 46 46 45 45 44 40 42 42 40 39
53 54 56 55 54 56 57 57 58 56 56 54 53 52 52 52 54 54 55 56 56 57 56 55 55 53 52 52 51 51 48 47 47 46 44 43 43 45 42 41 37 29 28
52 54 55 56 54 54 54 55 54 54 54 53 53 54 53 54 53 54 56 56 56 54 55 54 53 51 51 50 49 49 47 45 45 45 41 41 40 40 38 36 32 27 20
53 53 54 55 55 54 54 53 54 53 52 52 54 54 54 53 52 55 56 57 57 56 55 53 52 51 51 49 47 47 45 44 41 41 38 36 35 36 33 27 23 22 22
53 53 54 54 54 54 54 54 54 54 52 52 54 54 55 54 54 55 56 56 56 55 53 52 51 49 46 46 46 44 41 40 38 37 33 30 31 29 25 20 20 22 23
54 54 54 54 53 53 54 54 54 55 53 54 54 54 55 54 48 47 52 56 55 52 48 46 46 45 42 40 41 39 39 36 35 34 31 27 28 25 21 23 22 21 21
54 53 53 54 54 54 53 53 53 53 54 54 55 54 54 55 45 44 44 56 53 50 45 40 39 38 38 34 32 30 28 28 29 28 27 25 22 22 24 24 23 24 24
53 52 53 53 53 53 53 53 54 54 54 55 55 54 54 55 43 43 42 50 46 43 40 39 35 33 30 28 27 26 24 22 22 21 22 23 23 23 25 23 23 23 24
51 52 52 52 52 52 52 53 54 54 55 55 56 55 54 48 40 39 42 39 36 35 35 34 33 31 32 32 28 24 23 23 24 23 23 22 21 21 22 22 23 22 24
51 51 51 52 52 52 53 53 54 55 54 48 44 45 42 41 39 39 39 35 32 31 31 31 32 30 31 29 26 23 22 19 17 16 19 18 19 21 21 19 18 21 21
51 52 52 53 54 54 54 52 49 44 41 38 36 37 37 37 36 36 35 33 31 29 28 28 30 30 30 27 26 24 23 21 19 16 15 15 16 17 16 18 16 17 19
54 54 54 54 52 50 47 45 42 40 36 34 33 32 33 33 33 33 32 31 30 27 27 28 29 29 27 24 24 22 21 21 22 21 18 16 15 15 15 16 15 16 16
52 50 48 47 45 45 43 41 38 38 36 33 32 30 29 31 31 31 30 29 28 27 28 29 30 26 24 24 22 21 20 21 22 22 19 15 13 13 14 16 18 16 16
44 42 41 40 39 38 37 37 36 35 33 31 30 27 27 26 26 27 27 27 27 27 28 28 26 24 25 23 20 21 23 22 20 20 19 17 16 17 17 16 17 17 16
39 39 37 35 33 31 31 33 33 33 33 31 29 27 25 24 25 27 27 27 27 27 27 26 24 22 22 23 22 19 19 18 18 19 18 17 16 15 16 18 16 15 15
35 34 33 33 32 30 29 29 31 31 31 30 29 27 27 27 28 28 28 28 27 27 27 27 27 27 25 22 21 19 19 16 17 18 19 18 17 16 15 15 14 14 13
33 32 31 31 29 28 28 27 26 29 30 29 29 29 29 29 29 28 28 27 25 26 26 25 26 25 22 18 19 19 19 20 16 16 16 16 15 14 14 13 14 13 12
31 30 30 29 28 27 27 27 26 24 24 25 28 28 29 28 28 28 27 25 24 24 24 23 22 21 19 17 17 16 16 16 15 14 15 15 15 13 13 11 11 12 10
30 29 29 28 28 27 27 26 26 25 25 25 25 26 27 27 27 26 26 25 22 20 19 18 20 18 17 16 18 17 16 15 14 13 13 12 13 11 10 9 9 8 8
26 27 27 27 27 27 27 27 27 26 26 25 24 24 25 26 24 24 23 23 22 19 18 17 16 16 16 15 16 15 14 14 13 11 12 12 12 11 10 9 9 9 7
25 25 26 26 26 26 25 26 25 24 23 21 21 23 23 22 21 20 18 18 18 16 16 15 15 15 14 13 11 11 10 11 9 8 8 8 9 8 7 8 8 8 7
24 23 22 22 22 22 22 22 22 22 21 19 18 17 17 19 17 16 15 15 16 15 14 13 12 11 10 9 9 9 7 7 7 6 6 6 5 6 6 7 7 7 7
21 20 20 19 19 19 19 19 19 18 18 17 16 15 15 16 15 13 13 13 12 11 10 9 9 7 7 7 7 6 5 4 4 5 4 4 3 4 6 6 5 5 6
18 18 16 16 16 16 16 15 14 12 14 15 15 13 12 12 11 10 10 10 9 9 8 7 5 3 2 3 5 5 3 3 3 2 2 3 3 2 4 4 4 5 6
15 14 13 12 12 13 13 11 11 11 11 11 11 11 9 9 7 8 8 7 4 5 3 3 4 2 0 -1 -1 -0 -0 -2 -1 -2 0 1 2 2 3 3 4 4 5
9 9 10 10 9 9 9 8 9 8 8 8 8 8 7 6 6 6 4 3 1 0 1 2 1 -1 -2 -1 -1 -2 -4 -5 -4 -5 -2 1 2 3 4 4 4 5 5

GFSGL_sfc_dewp_081.txt.gz
Dewpoint
54 55 56 57 57 58 58 59 58 58 57 55 55 55 54 55 56 56 56 56 56 57 57 57 57 58 58 57 58 55 53 52 50 51 51 50 48 47 43 44 45 44 43
53 55 57 58 57 58 57 58 59 58 57 55 55 55 55 55 56 55 56 55 55 55 56 57 58 57 57 57 55 53 52 52 51 50 48 47 48 47 45 44 42 39 40
52 54 57 58 57 57 57 57 58 57 56 56 55 55 54 55 55 56 56 55 55 55 56 57 57 57 55 55 53 51 52 51 51 50 47 45 45 45 44 41 39 39 31
52 53 55 57 57 56 57 57 57 57 56 56 55 55 55 54 54 54 54 55 55 55 57 57 55 55 56 53 51 51 50 49 48 48 43 43 40 40 39 38 35 32 28
53 52 54 57 56 55 56 56 57 57 56 56 56 56 56 55 54 55 54 55 54 56 57 56 56 55 50 50 51 50 47 46 44 44 38 39 37 35 33 33 29 27 28
55 55 54 55 55 56 56 56 56 56 56 56 55 55 55 53 47 45 50 55 55 56 55 55 53 48 48 44 43 43 46 45 42 40 38 36 35 34 30 27 27 26 25
54 54 54 55 55 56 55 55 55 56 56 55 55 54 55 55 45 44 43 53 55 56 54 54 48 46 43 40 34 33 34 34 34 37 35 33 31 30 27 28 29 29 27
52 53 54 55 55 55 55 54 55 56 56 56 56 56 56 55 44 44 43 53 54 54 54 49 45 41 38 36 34 31 30 31 31 32 34 32 30 29 29 27 27 25 27
52 52 52 54 54 55 55 56 56 56 56 56 56 56 56 56 41 42 44 50 43 39 38 38 38 35 34 34 31 31 30 30 30 31 29 26 25 24 23 23 25 24 28
51 52 52 53 54 54 55 56 56 56 56 55 54 51 44 51 41 40 42 39 35 33 34 34 33 32 33 33 31 29 27 26 24 20 20 17 17 19 20 20 20 23 23
47 51 52 52 53 54 55 56 56 53 47 43 39 37 37 39 39 38 38 37 33 31 30 31 31 32 32 31 30 30 29 24 23 23 23 22 20 20 21 20 19 19 21
53 50 51 52 52 53 55 54 49 45 39 35 33 33 34 34 34 34 33 32 32 29 29 29 30 30 30 29 28 28 28 27 26 25 21 17 16 16 16 16 18 18 17
53 50 48 46 46 46 46 44 41 40 37 34 32 30 30 31 32 32 31 30 30 28 29 29 29 29 27 26 26 25 26 26 25 25 23 19 17 16 15 18 19 18 19
43 42 41 40 38 38 38 39 39 37 35 32 30 28 28 28 28 28 29 29 29 29 28 27 28 28 27 25 24 26 26 24 22 21 22 21 19 19 20 19 19 20 20
38 36 35 33 32 31 31 33 33 33 33 31 29 28 26 25 26 27 27 27 28 28 27 27 27 26 25 26 27 26 23 21 21 20 21 20 20 20 20 21 20 19 19
33 33 32 31 31 30 29 28 31 31 31 30 29 27 28 29 29 29 30 30 30 29 28 27 27 27 28 27 26 25 21 19 20 20 20 19 18 18 17 17 16 16 16
32 31 30 30 30 28 27 26 25 28 30 30 30 30 30 30 30 29 29 29 28 30 28 28 27 28 25 24 23 22 22 21 17 17 18 17 17 16 16 15 14 15 15
32 32 30 29 28 27 27 26 26 24 24 25 29 29 29 29 28 28 27 26 26 26 25 24 23 23 20 20 18 18 18 18 19 16 15 16 15 14 13 12 12 14 13
29 28 29 28 28 27 27 26 26 25 24 24 26 26 27 28 28 28 29 27 24 22 20 20 21 21 19 19 19 18 17 17 15 16 15 15 15 12 11 10 11 12 12
27 28 28 28 29 28 28 27 26 26 25 24 24 24 26 26 24 25 25 25 23 21 21 18 17 17 17 17 17 17 15 14 13 11 12 11 11 11 9 10 10 10 9
27 27 27 27 27 27 27 25 24 23 22 21 22 24 24 22 21 20 19 20 18 17 18 17 16 15 14 13 11 12 10 11 9 9 8 8 9 7 7 7 8 9 8
24 24 25 24 24 24 24 23 23 22 21 19 20 21 20 20 18 16 15 16 16 15 14 14 12 11 11 9 9 9 8 7 7 7 7 5 5 5 5 6 6 7 6
22 21 20 20 20 20 20 21 20 20 19 19 18 16 16 16 15 13 13 13 12 12 10 9 10 7 8 8 8 7 6 5 6 6 4 4 3 4 5 5 4 5 6
20 20 17 17 18 17 17 17 16 14 14 14 14 13 12 12 12 11 11 10 9 10 10 8 6 5 3 4 6 5 3 5 3 2 2 3 2 2 3 3 3 5 5
16 15 15 14 14 13 13 12 12 12 12 13 12 12 11 11 10 10 9 8 6 6 5 5 6 3 2 0 1 1 2 0 -1 -2 -1 0 2 2 2 3 4 5 6
11 11 12 12 12 12 12 11 11 10 10 11 10 10 9 8 7 8 6 4 2 2 3 4 3 1 0 1 1 1 -3 -4 -4 -4 -2 -1 1 2 4 5 4 4 4

GFSGL_sfc_dewp_084.txt.gz
Dewpoint
56 55 55 56 57 57 56 55 53 52 52 51 51 51 52 52 52 52 52 52 54 54 55 55 55 57 56 57 57 56 56 54 52 52 51 52 51 47 42 44 44 43 42
55 56 56 56 56 57 57 56 55 53 52 51 51 50 51 51 52 52 51 50 51 53 54 55 55 55 56 56 56 55 55 55 53 50 51 50 48 47 43 43 44 43 43
54 55 57 57 56 56 56 57 57 55 54 53 52 52 51 52 51 52 51 52 52 52 53 54 54 54 55 56 57 55 54 53 53 52 50 47 48 47 44 44 43 41 33
53 54 55 56 57 56 56 56 57 58 57 56 55 54 53 53 53 52 52 53 53 53 53 54 54 54 55 56 55 54 53 52 51 50 49 45 43 43 44 41 39 38 35
52 52 54 56 56 56 57 57 56 57 57 56 55 55 54 54 53 53 52 53 53 54 54 53 53 53 51 53 54 53 52 50 50 48 44 41 39 39 41 40 40 36 34
54 53 52 54 55 56 56 56 56 56 56 56 55 55 54 53 47 45 50 53 52 52 52 53 53 49 49 45 46 46 50 50 48 47 47 43 42 40 38 36 32 30 29
55 55 54 53 54 56 55 55 55 56 56 55 55 54 54 54 46 44 43 52 53 53 53 53 52 50 47 48 39 38 37 36 36 46 44 39 35 35 34 33 32 31 31
53 54 55 55 53 54 55 55 55 55 55 55 55 55 55 54 45 43 42 50 52 52 52 51 51 46 44 41 37 36 35 33 34 35 35 34 34 36 35 34 33 33 32
52 53 54 55 54 54 54 55 55 55 55 55 55 54 54 54 44 42 43 50 52 44 40 40 42 39 37 39 35 32 31 30 33 33 33 33 32 32 32 33 30 30 29
49 52 53 54 54 55 55 55 55 55 55 55 54 50 43 52 40 40 43 44 37 34 33 34 34 34 34 35 33 31 28 27 27 27 27 28 29 27 26 28 28 28 28
54 54 53 53 54 54 55 55 56 55 51 44 38 37 40 41 40 39 39 37 35 32 31 31 32 33 33 33 32 30 28 28 28 28 28 28 29 29 28 24 23 26 26
50 49 48 49 51 53 54 49 48 45 40 36 34 33 33 34 35 35 35 34 33 31 30 30 31 31 30 30 29 29 29 29 29 27 27 26 26 27 24 23 23 22 22
41 40 40 41 41 42 46 45 42 40 37 34 33 31 30 31 32 33 33 32 31 29 29 30 30 29 28 27 29 29 28 28 27 27 27 27 25 21 21 23 23 22 23
36 35 34 33 33 34 35 36 36 36 34 33 32 29 28 28 29 30 30 30 30 28 28 27 26 25 25 26 27 28 26 25 26 25 25 26 26 26 25 25 23 24 23
34 33 32 31 30 28 28 30 31 32 34 32 30 28 26 25 27 29 29 27 26 27 27 26 25 25 25 26 27 26 26 26 25 24 24 25 24 23 22 23 21 20 18
32 31 31 30 30 28 27 26 30 30 30 30 29 28 29 30 31 31 30 30 29 29 27 26 26 26 26 26 25 24 23 23 23 21 21 20 19 18 18 17 17 17 16
31 31 30 29 29 28 27 26 24 28 30 30 30 30 30 30 30 30 31 31 32 30 26 26 24 24 24 24 23 23 20 19 20 19 18 17 17 16 15 14 14 14 14
28 28 28 28 27 26 25 25 25 24 23 25 28 28 29 29 29 30 30 27 25 26 24 23 23 22 22 21 19 19 18 17 15 14 14 12 11 13 12 12 11 10 11
28 28 28 27 27 26 26 26 25 24 23 23 24 26 26 27 27 28 26 24 23 21 21 20 21 20 19 18 18 17 17 14 12 10 13 12 9 10 7 9 9 7 7
26 28 28 28 28 27 26 24 24 23 23 23 23 23 23 20 19 19 20 19 19 19 19 18 17 17 16 16 15 14 11 10 9 9 5 3 5 6 3 3 3 5 6
25 25 26 25 24 23 22 21 20 19 19 19 19 21 20 18 17 16 16 16 16 15 16 16 14 14 13 12 11 9 8 5 6 5 4 4 -4 -2 4 3 3 5 6
23 22 21 21 22 21 21 21 20 19 18 17 18 18 19 17 16 15 14 14 13 12 13 12 11 11 10 9 8 5 4 1 1 1 -1 -1 1 1 2 2 1 0 3
21 21 20 19 19 18 19 18 18 17 16 16 15 14 14 13 13 12 12 12 12 11 10 9 7 7 5 4 6 6 3 5 4 -1 -5 -5 -2 -0 -3 -1 1 1 2
19 18 16 16 16 16 16 15 15 14 14 13 13 13 12 12 10 10 9 8 8 8 7 6 7 3 2 1 1 0 4 1 -0 -1 -5 -6 -4 -1 -2 0 0 -1 1
15 15 14 14 14 13 12 12 12 12 12 12 11 11 11 10 9 7 8 5 3 3 3 5 4 2 -0 -5 -1 -0 -5 -7 -11 -9 -9 -5 -5 -6 -3 1 2 4 2
12 12 12 12 11 11 11 10 9 9 9 9 9 8 7 6 6 5 3 -2 -4 1 -0 0 2 -3 -3 0 -2 -6 -10 -9 -10 -8 -9 -3 -6 -3 1 0 -2 -0 1

GFSGL_sfc_dewp_087.txt.gz
Dewpoint
54 56 56 56 54 53 52 51 51 50 50 49 50 52 52 52 53 53 52 53 54 53 54 55 54 53 54 55 56 55 55 55 52 51 51 51 51 50 49 48 48 47 45
54 54 55 55 56 55 54 53 52 51 50 49 50 51 52 52 52 52 52 51 52 53 53 54 54 55 54 54 54 54 54 55 53 51 52 50 51 52 50 46 46 46 43
55 54 54 54 55 56 55 55 54 52 51 50 50 50 50 50 50 51 51 51 51 51 52 53 53 54 54 55 55 54 55 54 54 53 52 51 51 49 46 44 44 43 42
55 55 54 53 54 55 57 56 56 55 53 51 50 50 49 49 49 50 50 51 51 50 51 51 53 54 54 54 54 55 55 54 53 53 52 51 46 46 47 45 42 41 40
52 55 55 55 55 55 54 55 56 56 55 53 51 50 49 48 47 49 50 50 51 50 51 51 52 52 49 51 54 54 55 54 53 51 51 48 45 40 44 45 44 43 39
52 51 54 56 56 55 55 55 55 56 57 55 54 53 51 50 45 44 47 50 50 50 51 52 53 48 48 45 46 47 52 53 52 51 50 48 45 46 47 44 41 34 35
53 52 52 54 55 56 56 56 55 55 55 57 56 56 55 54 46 44 43 52 52 52 52 52 52 53 48 51 44 42 39 37 37 49 49 49 47 42 37 34 33 33 32
55 54 53 52 54 55 55 55 55 56 55 55 55 56 55 55 45 44 42 50 52 52 52 52 52 50 49 48 43 38 34 34 34 35 35 34 35 36 36 35 34 33 33
53 53 54 55 54 54 54 55 55 55 55 55 55 55 55 55 45 44 43 50 51 52 46 42 49 47 41 42 38 33 31 30 34 35 34 34 34 35 35 33 31 31 29
50 50 50 48 55 55 55 54 55 55 54 54 55 55 52 55 44 44 44 52 50 37 34 35 35 37 36 36 35 32 29 28 29 29 28 30 31 31 31 32 32 29 29
45 44 43 43 45 48 53 55 55 55 55 51 43 37 37 37 39 39 41 43 43 34 32 31 33 34 34 34 32 30 28 28 28 28 27 28 29 29 29 29 30 29 27
40 38 37 37 37 40 42 45 46 48 44 37 35 33 33 34 35 35 35 35 35 33 31 31 32 32 32 30 29 30 30 29 28 28 27 27 27 26 27 25 25 23 23
36 35 33 32 31 33 35 36 38 40 40 38 37 33 32 32 32 32 32 32 31 30 30 31 31 31 30 29 30 29 28 28 27 27 25 25 26 26 27 27 28 28 27
34 32 31 30 29 29 30 31 30 32 35 34 31 29 28 29 29 29 29 28 28 26 25 26 27 27 27 27 26 26 27 27 26 24 24 25 27 26 25 25 23 22 21
32 32 30 29 28 28 28 29 29 30 32 30 28 28 27 27 28 28 26 26 25 26 25 26 25 26 25 25 25 25 25 25 23 23 22 22 22 22 20 20 19 18 17
30 30 30 28 28 27 26 27 30 30 31 31 30 29 29 30 30 30 30 30 30 29 26 25 25 25 23 23 22 21 21 22 22 21 20 19 18 17 16 16 16 15 14
28 28 27 26 26 26 26 25 23 27 30 30 31 31 31 31 31 31 30 29 29 27 24 23 22 22 22 21 20 20 18 18 17 16 16 16 15 15 14 13 12 12 10
27 27 26 26 26 25 25 25 24 23 22 23 28 30 30 29 29 28 28 25 23 23 22 21 20 20 19 18 18 17 16 16 16 15 13 11 11 11 10 9 9 8 7
28 27 27 26 26 25 25 24 24 23 23 22 22 21 23 24 24 24 23 20 19 18 18 18 18 18 17 16 16 14 13 11 10 9 9 8 5 8 6 7 6 4 4
25 25 24 23 23 22 21 20 19 19 19 19 18 18 19 17 16 15 16 17 17 16 16 15 14 13 13 12 11 11 10 9 8 8 4 1 -0 3 2 2 2 2 5
22 22 22 22 21 20 19 19 18 18 17 16 16 17 17 14 13 13 12 12 12 12 13 12 11 10 10 8 8 6 5 5 5 4 4 3 -6 -3 1 0 -2 2 4
20 20 19 19 19 18 17 17 16 15 15 14 14 15 15 14 12 11 10 9 9 10 9 9 7 6 7 7 5 3 3 -0 -2 -5 -5 -5 -3 -3 -3 -5 -6 -8 -2
18 18 18 17 17 17 16 16 15 14 13 12 11 10 10 9 8 7 7 8 6 5 7 5 3 2 2 1 1 3 0 -2 -6 -10 -12 -12 -7 -8 -13 -10 -8 -6 -5
17 16 15 14 13 12 12 12 12 10 10 8 7 8 8 6 4 2 1 1 2 -1 2 0 1 -0 -0 -5 -5 -1 -3 -11 -8 -11 -16 -17 -12 -5 -10 -7 -5 -7 -1
13 12 12 12 11 10 9 9 8 7 6 6 6 6 5 5 2 -2 -6 -5 -1 1 3 -1 -4 -6 -9 -6 -8 -9 -11 -11 -16 -13 -15 -14 -15 -16 -12 -4 -2 -4 -8
10 9 8 8 7 6 5 4 3 2 -1 2 3 -6 -6 2 -2 -12 -10 -7 -4 -4 -7 -8 -7 -8 -6 -6 -7 -9 -12 -9 -11 -9 -13 -9 -10 -10 -11 -11 -8 -6 -2

GFSGL_sfc_dewp_090.txt.gz
Dewpoint
56 56 55 55 53 52 51 49 48 49 50 50 51 53 54 54 54 54 54 54 54 53 54 54 54 53 54 54 55 55 54 54 51 51 52 52 52 52 53 52 53 52 52
55 56 56 55 54 53 51 51 50 48 49 49 50 51 52 53 53 53 52 52 53 53 53 53 53 53 53 53 54 53 54 54 53 50 51 53 51 51 52 50 49 49 49
54 55 55 56 55 53 53 52 51 50 49 49 49 49 50 51 51 51 52 51 51 53 53 53 52 53 53 53 53 53 53 53 53 53 51 52 53 49 49 49 47 48 48
55 53 54 54 55 55 54 54 53 52 51 50 49 49 49 49 50 50 51 50 51 51 51 52 52 52 53 52 52 53 53 52 52 52 52 53 51 49 49 48 44 45 46
54 54 53 54 54 54 56 55 55 54 52 51 50 49 49 49 49 49 50 49 50 50 50 51 51 50 48 50 52 52 53 52 52 52 52 52 50 42 47 48 49 48 41
54 54 54 54 54 54 54 56 55 55 55 53 51 51 50 49 45 42 46 48 48 48 49 49 50 46 46 44 45 45 49 52 52 52 51 51 50 50 49 48 46 38 39
54 55 55 55 55 55 55 55 55 56 56 55 54 52 51 51 44 42 41 47 47 48 48 49 49 50 46 50 45 42 40 37 38 51 52 52 51 51 49 40 36 36 34
52 53 53 55 56 56 55 55 55 55 55 55 55 55 54 53 45 43 40 46 47 48 49 49 50 50 51 50 50 44 39 36 37 38 41 40 37 38 40 38 35 33 33
46 46 47 48 51 54 56 56 56 55 55 55 55 56 56 55 46 45 44 49 49 50 51 51 52 51 48 44 45 38 33 32 35 35 35 35 35 35 36 35 33 33 30
42 42 42 43 46 47 48 53 56 56 56 56 56 56 52 56 48 44 45 53 52 51 51 41 37 45 44 40 48 39 33 30 30 30 30 30 30 31 31 33 32 30 29
39 38 37 37 39 40 43 44 45 49 56 55 53 40 37 35 37 38 42 50 51 49 43 33 33 35 36 36 37 37 34 30 29 28 28 28 29 29 29 29 29 29 28
35 34 33 32 33 35 37 38 39 41 41 39 36 34 33 33 34 33 35 37 39 35 31 32 32 32 32 31 30 31 30 29 29 28 27 25 25 26 27 28 28 28 27
33 31 30 29 30 30 31 32 35 37 36 33 32 30 29 30 31 31 32 32 32 31 32 31 31 30 30 29 30 29 29 28 27 25 24 24 25 27 28 27 28 28 28
32 30 28 28 28 29 29 29 30 32 32 32 32 30 29 28 27 27 27 27 28 27 27 27 26 26 26 26 26 26 26 26 25 24 24 24 24 22 22 23 21 21 21
30 30 28 28 27 27 28 29 29 30 30 28 28 28 26 26 27 28 27 26 26 27 27 26 25 24 23 23 23 23 23 23 22 22 21 21 20 20 19 19 17 17 15
28 28 28 27 26 25 25 26 30 30 31 31 30 28 29 30 30 31 31 30 30 28 25 23 22 22 20 20 20 20 21 20 20 19 19 18 17 16 15 14 14 13 11
27 27 26 26 26 25 24 24 23 25 27 30 30 31 31 30 29 29 28 28 28 25 22 21 20 20 19 19 18 17 16 18 18 16 15 14 14 13 12 11 10 8 7
27 27 26 26 25 24 24 23 20 19 18 18 24 25 27 26 26 26 25 22 20 20 19 18 17 18 18 17 16 16 15 14 13 12 11 10 11 10 9 7 6 6 5
24 24 24 24 24 23 22 21 20 18 17 17 18 18 20 22 22 22 21 17 16 15 16 15 15 15 14 13 12 12 11 10 9 8 6 5 1 6 4 5 5 5 4
22 22 21 21 20 19 19 19 17 15 14 14 13 14 16 14 12 12 13 14 13 13 13 12 12 11 11 11 10 9 8 8 6 4 -4 -3 -3 3 2 1 1 -0 3
19 19 19 19 19 18 17 16 16 14 13 12 13 14 13 11 10 9 9 9 10 9 8 8 7 7 7 6 5 3 2 -1 1 -1 -3 -4 -13 -7 -1 -1 -2 -1 2
19 18 18 17 17 16 16 15 14 13 13 11 11 10 9 9 8 6 5 4 6 6 5 3 3 3 2 2 1 -4 -7 -10 -11 -11 -9 -8 -6 -7 -7 -7 -9 -11 -5
17 16 16 15 15 15 14 13 12 11 10 8 8 6 5 3 2 3 1 -1 2 2 2 -0 -2 -2 -2 -4 -3 -5 -7 -11 -14 -17 -18 -18 -11 -12 -16 -13 -10 -11 -10
15 14 13 12 12 11 10 9 9 9 8 6 6 5 2 -1 -4 -5 -5 -5 -3 -4 -6 -6 -3 -3 -2 -9 -8 -7 -6 -14 -11 -14 -20 -19 -14 -10 -15 -12 -10 -12 -11
11 10 9 8 8 7 6 5 4 3 3 3 1 3 0 -5 -7 -12 -9 -5 -3 -6 -7 -11 -11 -10 -10 -12 -11 -11 -13 -12 -17 -15 -18 -17 -19 -19 -15 -12 -14 -10 -13
8 7 6 6 4 3 3 0 -1 -0 -1 -2 -5 -7 -9 -11 -13 -19 -15 -11 -12 -11 -11 -10 -10 -11 -11 -10 -10 -11 -12 -12 -16 -15 -21 -14 -17 -17 -17 -17 -13 -13 -6

GFSGL_sfc_dewp_093.txt.gz
Dewpoint
54 53 54 53 52 51 51 50 50 51 51 51 51 51 51 51 53 53 52 53 52 51 53 53 53 53 54 54 55 54 54 53 51 50 50 51 52 53 53 54 54 52 51
55 54 54 54 53 52 51 50 49 50 50 50 51 51 51 52 52 52 52 53 52 51 52 52 52 53 53 53 54 54 53 53 52 50 51 51 51 52 52 52 53 53 53
55 54 53 54 54 52 52 51 49 49 49 50 50 50 51 51 53 53 52 52 53 53 53 52 52 52 52 53 52 53 53 53 53 52 51 51 52 50 51 51 52 51 50
54 55 54 55 54 53 53 52 51 50 48 48 49 49 50 51 51 52 52 52 51 52 52 52 52 52 52 52 52 52 52 52 52 52 52 51 51 50 48 49 48 45 49
55 54 55 55 55 55 54 53 52 52 50 49 49 49 49 49 49 50 50 50 50 50 51 51 52 51 48 49 52 52 52 52 51 51 50 51 50 49 48 51 50 51 49
55 55 55 55 55 54 55 54 54 53 52 51 50 49 49 48 44 42 46 49 49 49 49 50 50 47 47 44 44 45 49 51 50 50 50 49 49 50 51 50 49 49 45
54 55 55 55 55 55 55 55 56 55 54 53 52 51 50 50 43 43 42 48 48 49 49 48 49 49 46 49 44 42 42 42 42 49 49 49 49 51 51 50 50 49 48
45 46 46 48 50 54 55 55 55 55 56 55 55 54 53 52 44 42 41 47 48 48 48 48 48 48 48 48 48 47 46 47 46 45 48 49 51 45 44 47 50 39 33
41 41 41 42 45 46 49 51 55 55 55 56 56 56 55 54 46 43 42 48 48 48 48 48 48 48 45 43 47 47 47 36 35 36 36 35 35 36 37 38 35 35 32
37 37 36 37 39 40 42 44 46 49 54 56 55 55 49 48 36 37 42 51 49 49 49 48 42 45 43 41 46 48 47 36 32 30 29 30 30 31 30 31 33 33 30
35 33 32 32 34 34 36 38 40 43 44 40 37 34 33 32 34 35 36 39 48 48 47 43 33 34 35 37 39 46 45 31 29 28 28 27 27 27 27 28 28 28 25
32 30 30 30 31 31 32 33 35 37 36 35 33 31 31 30 32 33 34 35 36 33 32 32 32 32 32 32 31 31 31 30 28 26 25 24 24 25 26 27 28 28 28
31 29 28 28 30 30 30 30 31 32 33 32 32 31 30 30 30 30 31 31 32 30 30 30 30 30 30 29 29 29 28 27 26 24 23 22 23 24 24 24 26 25 25
30 28 28 28 28 29 29 29 28 29 29 29 28 28 27 27 27 28 28 29 29 28 27 27 26 26 25 25 25 25 25 25 23 22 21 21 22 21 20 21 20 22 19
29 28 28 27 27 27 28 29 29 29 29 27 26 26 25 25 27 28 28 27 27 27 26 25 24 23 22 22 22 22 22 21 20 21 19 19 18 18 17 18 18 17 14
27 27 27 26 26 26 25 24 28 29 30 31 31 29 30 30 29 28 28 28 27 25 22 20 19 19 18 18 17 17 18 18 18 18 17 17 16 15 13 13 12 12 9
26 26 26 26 26 25 24 22 20 21 24 26 27 27 27 27 26 25 25 24 23 21 18 18 17 17 17 17 16 15 14 15 15 14 13 13 13 12 10 8 8 8 7
25 25 25 24 24 23 22 20 18 16 15 15 20 24 25 24 24 23 21 19 16 17 16 15 15 15 15 14 14 13 13 12 11 10 10 10 10 9 8 6 6 7 5
21 21 21 21 21 20 18 17 16 14 13 13 14 15 16 20 19 19 18 14 13 13 13 13 13 13 12 12 11 10 8 7 6 5 5 4 5 5 4 4 4 4 3
19 19 19 19 18 18 17 15 14 13 12 12 11 11 13 11 9 9 10 10 10 9 10 9 9 9 10 9 8 8 6 6 4 3 0 -1 -1 2 -1 -0 -1 -3 2
17 17 17 17 16 15 15 14 13 12 11 9 8 10 10 8 7 6 7 6 6 5 6 6 5 4 6 5 4 1 -1 -2 -1 -2 -1 -3 -12 -10 -4 -4 -3 -1 0
15 15 15 15 15 14 14 13 12 11 10 8 7 6 6 5 5 4 3 2 2 2 2 1 -0 0 0 -1 -2 -6 -9 -12 -12 -11 -11 -10 -8 -10 -10 -10 -11 -11 -5
14 13 12 13 13 12 11 11 10 9 7 6 5 3 2 1 1 -0 -1 -0 -0 -1 0 -1 -3 -3 -5 -8 -8 -8 -10 -13 -14 -19 -19 -18 -12 -13 -18 -14 -12 -11 -11
11 10 10 9 8 8 6 6 7 6 6 4 1 -1 -2 -4 -5 -4 -4 -3 -4 -6 -8 -6 -4 -4 -6 -15 -14 -11 -9 -16 -14 -17 -21 -20 -14 -11 -16 -13 -12 -15 -15
8 7 6 5 4 3 2 2 2 2 1 -0 -1 -2 -3 -3 -4 -9 -10 -8 -7 -10 -8 -9 -9 -11 -14 -16 -14 -12 -14 -14 -19 -18 -19 -18 -20 -19 -17 -14 -18 -14 -15
6 4 3 3 1 0 -2 -4 -5 -4 -5 -7 -8 -11 -10 -9 -10 -12 -11 -11 -13 -12 -11 -13 -13 -14 -14 -11 -10 -12 -14 -14 -18 -18 -23 -15 -18 -19 -19 -19 -17 -16 -9

GFSGL_sfc_dewp_096.txt.gz
Dewpoint
54 54 53 52 52 51 51 50 51 51 51 53 53 52 53 53 54 54 54 54 52 52 53 53 52 52 53 53 53 53 53 53 50 50 51 52 53 53 54 53 53 53 52
54 54 54 53 52 51 50 50 50 51 51 51 52 52 51 52 53 54 54 54 54 52 52 52 51 52 53 53 53 53 53 53 52 50 51 52 52 52 52 53 53 53 53
55 53 54 54 52 51 51 50 49 50 50 50 51 51 52 52 51 52 52 52 52 53 53 52 51 52 51 52 52 52 53 53 53 52 51 52 52 52 52 52 52 53 52
55 54 54 54 54 52 51 51 49 49 49 50 50 51 51 51 52 52 51 51 52 52 52 52 51 51 51 51 52 52 52 52 52 52 52 52 52 52 50 51 50 49 51
55 55 54 54 54 53 52 52 51 50 49 49 49 50 50 51 51 51 52 52 51 51 51 52 52 51 48 49 51 52 52 51 51 51 51 51 51 50 49 51 50 51 51
55 54 55 55 55 55 54 53 52 51 50 49 48 49 49 49 45 44 48 51 51 51 51 51 51 48 47 44 44 44 48 51 50 50 50 49 49 50 51 51 50 49 48
48 48 50 53 55 55 55 54 53 52 52 51 50 50 49 49 43 42 42 49 49 50 50 49 49 50 46 50 45 42 42 42 43 49 49 50 49 50 50 50 50 50 49
41 41 42 44 46 47 51 54 55 55 54 53 53 52 52 51 44 42 41 47 48 48 49 49 49 49 48 48 48 48 46 47 46 46 49 50 51 50 48 47 47 44 34
37 36 36 39 40 41 42 43 45 46 53 55 56 55 54 52 36 39 41 48 49 49 50 49 49 49 46 43 47 47 47 46 36 37 34 34 33 34 35 41 41 39 33
33 33 33 34 35 35 37 38 40 43 44 44 39 35 35 35 35 36 37 45 48 48 48 48 38 36 37 39 44 46 46 45 32 30 29 29 30 30 30 30 34 38 30
31 31 31 32 32 33 34 35 36 37 37 34 32 32 31 32 33 35 35 39 39 35 33 32 32 33 35 36 37 36 35 31 29 28 27 27 27 27 27 27 27 27 24
30 29 29 30 30 31 31 32 32 34 33 32 31 30 30 30 31 32 34 36 36 34 32 31 31 31 31 32 32 32 31 30 29 27 25 24 23 23 24 24 25 24 24
29 28 28 29 29 29 29 29 30 30 30 29 29 28 27 28 28 29 30 29 29 28 28 27 27 27 27 26 26 26 26 25 23 21 20 20 21 23 24 24 24 22 20
28 27 27 27 27 28 29 28 27 27 27 26 25 25 26 27 27 27 27 27 27 26 25 25 24 23 22 22 21 22 22 22 21 19 19 19 20 19 19 21 20 20 17
28 27 27 27 25 24 25 26 27 29 29 27 27 28 26 26 28 28 26 25 24 23 21 20 19 19 18 18 18 18 19 19 18 19 18 17 16 16 16 17 17 15 13
26 26 27 26 26 24 22 21 25 27 28 28 28 26 27 27 27 26 25 24 23 21 18 16 16 16 16 15 15 14 15 15 16 16 16 15 14 13 12 12 12 11 8
25 26 25 25 24 22 21 19 16 19 22 24 25 26 26 25 24 24 23 22 21 18 15 14 14 14 14 14 13 12 12 13 13 12 12 12 12 10 9 8 9 8 7
21 22 22 21 21 19 17 16 15 13 12 13 18 21 22 22 22 21 19 17 14 14 13 12 12 12 12 12 11 10 10 9 9 8 9 9 9 8 7 6 6 6 4
20 19 19 19 18 17 16 15 14 13 12 12 13 13 15 19 19 18 16 11 10 10 11 10 11 11 10 9 9 8 7 5 5 5 5 5 5 5 3 3 3 3 3
18 18 17 17 16 15 14 13 11 10 8 7 7 8 11 9 7 7 7 8 8 8 8 7 7 7 7 7 6 6 5 5 4 3 1 1 2 3 1 1 1 1 1
16 16 16 16 15 14 14 12 10 8 6 4 4 7 6 5 4 4 4 4 4 4 4 4 3 3 4 2 1 -0 -2 -2 -1 -1 -1 -2 -6 -2 -1 -1 -0 1 -0
14 14 14 13 13 12 11 10 8 6 5 4 3 4 3 3 3 2 1 1 2 2 2 1 1 0 -1 -2 -2 -5 -7 -9 -7 -7 -6 -5 -4 -5 -4 -4 -5 -5 -2
13 12 12 11 11 10 9 8 6 4 2 1 1 0 -0 -1 -1 -1 -2 -2 -1 -1 0 -0 -1 -3 -4 -6 -4 -4 -6 -7 -8 -11 -10 -10 -8 -7 -9 -6 -6 -5 -6
8 8 8 7 6 5 3 2 3 2 0 -3 -5 -4 -4 -6 -7 -4 -5 -5 -5 -7 -6 -4 -3 -3 -5 -8 -7 -5 -7 -11 -9 -11 -14 -12 -8 -8 -8 -7 -6 -9 -7
4 4 3 3 2 0 -1 -1 -2 -4 -4 -6 -6 -6 -5 -7 -7 -11 -11 -10 -8 -9 -7 -9 -9 -9 -10 -12 -9 -9 -11 -14 -17 -16 -13 -12 -13 -13 -10 -8 -11 -7 -9
4 2 1 1 -0 -2 -4 -6 -7 -7 -8 -10 -11 -13 -13 -10 -11 -15 -12 -11 -10 -8 -8 -11 -9 -10 -10 -8 -7 -10 -15 -15 -16 -18 -16 -10 -11 -11 -11 -11 -11 -9 -6

GFSGL_sfc_dewp_099.txt.gz
Dewpoint
55 55 56 55 55 55 55 55 55 55 55 55 55 55 54 54 55 55 53 53 52 51 53 55 54 53 53 54 55 54 53 53 50 49 50 52 55 54 53 54 53 53 52
55 56 56 55 54 54 54 54 55 55 54 55 55 54 54 54 55 55 54 53 52 51 52 53 52 52 52 53 54 53 53 53 51 50 51 53 54 55 56 54 53 53 53
56 55 55 55 54 54 53 53 54 54 54 54 54 53 53 54 54 55 54 54 54 53 53 52 52 52 52 53 53 53 53 53 54 53 51 51 53 55 54 53 53 53 53
55 54 54 55 54 54 54 53 53 53 53 53 54 54 55 53 53 53 54 54 54 54 55 55 53 52 52 52 53 52 52 52 53 54 53 52 53 54 54 53 53 54 53
55 55 55 55 55 54 54 54 53 52 52 53 53 53 53 53 53 53 52 52 53 53 54 54 55 53 49 50 52 51 52 52 52 52 52 53 53 54 54 53 53 54 55
56 55 55 55 55 55 54 55 54 53 52 52 51 52 52 51 45 45 50 53 52 52 52 53 53 49 49 44 44 44 49 52 53 51 50 50 51 51 52 52 52 51 50
44 44 46 49 50 52 55 54 54 54 54 53 52 52 52 52 43 43 43 52 52 53 53 53 52 51 49 52 46 42 42 42 42 50 50 50 50 51 52 51 51 52 52
38 38 40 42 42 44 45 46 47 50 54 54 53 53 52 44 37 40 41 49 51 51 52 52 52 52 52 52 52 52 51 50 48 46 48 50 49 40 42 47 48 50 46
34 34 35 37 37 39 40 41 42 45 44 40 39 41 44 36 35 36 39 46 48 49 50 50 44 46 42 40 47 48 47 47 36 36 34 33 33 32 33 38 41 43 42
32 32 33 34 35 36 37 38 40 40 37 36 34 33 33 33 34 36 37 44 46 45 35 34 33 34 35 36 41 42 44 43 32 31 30 29 29 28 28 29 31 34 36
31 31 32 32 33 33 34 35 36 36 34 33 31 30 30 31 32 33 36 39 38 33 31 29 30 32 32 33 33 35 36 33 31 28 26 26 25 25 24 24 24 24 24
30 30 30 30 30 31 32 33 33 33 32 31 30 29 30 30 31 31 31 30 30 29 28 28 28 29 28 29 28 28 28 27 25 23 22 21 22 23 22 22 22 22 23
29 28 28 28 29 29 30 30 30 30 30 30 29 29 29 30 30 29 28 28 28 28 27 26 25 25 25 25 25 24 24 23 22 21 21 20 22 24 24 24 24 23 22
28 27 26 26 26 26 27 28 29 29 28 28 28 28 28 29 29 29 29 29 27 27 25 25 24 24 23 24 26 25 25 25 23 22 22 22 23 23 22 23 22 22 18
27 27 26 25 24 23 25 27 27 29 28 27 28 27 27 27 28 27 27 27 26 24 24 25 24 24 23 23 22 22 24 24 23 23 22 21 20 18 17 18 16 15 13
26 26 27 26 25 23 22 22 25 26 26 26 26 27 28 27 26 25 24 23 22 22 23 22 22 21 20 20 20 19 19 19 19 19 18 16 14 13 13 13 13 12 10
25 26 25 24 23 22 22 21 20 20 22 24 25 25 24 23 23 23 22 21 20 21 21 20 20 20 19 17 17 16 14 14 14 13 13 13 13 11 12 11 12 10 8
23 22 23 23 22 21 21 20 20 20 19 18 19 22 22 22 21 20 19 19 19 18 18 18 18 17 15 13 11 11 10 11 11 10 11 12 12 11 10 7 8 9 6
22 22 22 22 21 20 20 19 18 18 17 16 17 16 16 17 17 17 17 18 17 15 14 14 14 13 12 10 12 11 10 8 9 10 9 9 10 8 7 6 6 5 4
20 19 19 20 19 19 18 17 15 14 13 13 12 13 15 14 14 13 13 14 13 12 12 10 10 10 11 10 11 10 9 8 8 7 8 8 9 8 6 6 6 6 3
19 18 17 18 17 17 16 15 14 12 11 10 9 10 8 10 10 10 9 9 10 9 10 8 9 9 8 8 6 6 4 6 5 5 6 5 6 6 5 6 5 4 2
18 17 17 16 16 15 14 13 12 11 10 9 9 6 6 9 7 6 6 6 8 7 8 8 6 5 5 4 4 5 3 2 3 3 3 3 4 4 4 4 4 4 3
16 16 15 14 13 12 13 11 10 8 7 6 6 5 5 6 5 4 4 5 4 5 5 5 4 3 3 3 3 2 1 -0 -0 0 2 4 4 5 6 4 3 3 3
13 13 11 11 11 9 10 9 7 4 5 5 6 5 4 4 4 3 3 4 4 4 4 3 1 -0 -0 1 2 1 -1 -0 -0 -1 -2 1 3 2 4 3 3 1 2
11 10 9 8 8 8 7 6 6 5 4 4 4 3 2 2 1 2 2 2 1 2 0 1 1 -0 -1 -3 -2 -3 -4 -5 -4 -6 -0 -2 -2 -3 -0 2 1 2 -0
7 7 7 7 7 7 6 5 4 4 3 2 2 1 1 0 -0 1 -0 -1 -1 -1 -2 -1 -1 -3 -5 -3 -5 -4 -6 -6 -5 -9 -2 1 1 1 1 -0 -8 2 -0

GFSGL_sfc_dewp_102.txt.gz
Dewpoint
56 57 58 58 58 57 56 57 56 57 57 57 57 57 56 56 56 55 55 54 54 54 54 53 53 53 53 54 54 54 52 52 49 46 48 52 52 55 53 54 53 55 54
57 57 57 58 57 56 56 57 56 55 56 56 56 56 55 56 56 56 55 54 53 53 53 53 52 51 53 54 54 53 52 53 52 50 48 50 53 53 55 55 53 52 54
56 56 56 57 56 55 55 56 56 55 55 55 55 56 55 55 56 55 55 54 54 53 53 52 52 54 53 53 53 53 53 52 54 52 49 52 53 53 54 54 55 55 53
56 56 55 55 55 55 55 55 55 55 54 54 54 55 56 56 55 55 55 54 54 53 54 53 53 53 53 52 53 53 52 52 53 53 52 51 51 51 52 51 53 54 52
56 56 55 55 55 54 54 54 55 55 54 54 54 55 55 55 54 55 55 55 54 55 55 54 54 51 48 50 52 54 53 52 52 53 51 50 50 50 51 52 52 53 54
49 50 55 56 55 55 55 54 54 54 54 54 53 54 55 53 47 46 51 55 55 54 55 55 55 50 50 44 45 45 51 54 53 52 50 50 51 51 52 52 53 53 52
42 43 44 47 49 50 54 55 55 55 55 53 53 53 53 51 37 41 43 54 55 55 55 54 54 52 51 53 46 42 43 42 43 52 54 53 53 53 51 52 53 52 52
37 38 39 40 41 43 44 45 47 49 47 50 48 53 44 37 36 36 38 47 51 52 54 51 51 52 48 47 52 52 52 51 48 48 49 48 40 36 38 42 43 44 45
34 35 36 37 38 39 40 41 43 42 39 37 37 38 37 35 35 35 38 47 48 50 38 35 37 39 36 37 44 47 46 37 35 35 34 32 31 30 31 38 40 40 41
34 34 34 36 37 37 38 39 38 37 35 34 32 33 33 32 33 35 39 44 45 35 32 32 32 33 33 34 39 41 41 36 32 30 28 27 26 27 26 28 29 34 35
32 33 33 33 34 35 36 36 35 34 33 32 31 31 31 31 31 32 34 36 33 30 29 28 30 31 31 31 31 32 34 31 28 28 26 26 25 24 25 25 25 26 25
30 30 30 31 32 32 34 34 34 33 32 31 31 30 31 31 30 30 30 30 30 28 27 28 28 28 28 27 27 27 27 26 26 24 24 23 23 23 24 24 25 25 26
30 29 29 29 29 30 31 32 32 33 33 32 32 32 31 32 31 28 28 28 28 29 29 28 27 27 27 27 26 26 26 27 25 24 23 23 25 26 27 26 27 26 23
28 27 27 26 27 28 28 28 30 31 30 30 30 30 31 31 32 32 31 31 28 29 29 29 28 26 26 28 30 29 31 31 30 27 27 27 27 27 25 25 25 25 21
28 27 26 25 25 25 25 27 27 29 29 29 29 30 30 28 28 27 29 29 29 29 31 31 30 29 28 27 26 26 26 26 26 26 26 25 24 22 21 21 19 17 15
27 27 28 27 27 25 23 22 25 26 26 26 27 27 28 26 24 24 24 24 25 27 31 28 27 26 26 25 25 24 24 23 23 23 22 19 18 17 16 16 15 13 10
26 26 26 25 25 25 25 25 22 23 22 24 25 25 25 24 23 23 23 23 24 26 27 25 25 24 24 21 20 19 18 18 17 17 17 17 17 14 16 15 15 13 10
26 26 27 27 26 26 25 25 25 24 23 22 20 21 21 21 21 21 22 24 24 22 22 21 21 20 17 15 14 14 15 16 15 14 16 17 17 16 14 11 12 13 8
25 25 25 25 25 25 25 24 24 23 22 22 22 20 20 19 20 20 21 22 20 19 17 16 17 16 15 14 17 16 16 15 15 16 15 14 16 13 12 11 10 8 8
23 22 23 23 23 23 23 23 22 21 20 19 18 18 21 21 21 20 20 20 18 16 15 13 12 13 14 14 16 16 15 14 13 13 14 15 15 14 13 11 12 12 7
23 23 21 22 22 22 22 21 20 19 19 17 15 15 13 18 17 16 15 15 15 14 15 13 14 14 13 13 11 12 11 13 10 11 12 11 12 12 11 11 11 9 6
22 21 21 21 21 21 20 19 19 18 17 16 15 12 10 15 13 12 12 13 14 13 13 13 11 10 10 10 10 12 9 9 9 10 10 8 10 10 10 10 10 10 8
20 20 19 18 18 17 18 17 16 16 14 13 12 11 12 12 12 10 10 11 10 11 10 10 10 8 8 9 9 8 7 6 6 6 8 9 9 10 11 10 8 8 7
18 18 16 17 17 16 16 14 12 9 11 12 13 12 10 10 10 9 9 10 9 9 9 7 5 3 4 7 8 7 4 4 5 5 4 6 7 7 8 7 7 5 7
16 16 16 15 14 15 14 12 13 12 12 12 11 10 8 9 7 8 8 7 5 6 5 5 5 3 2 0 1 1 -1 -2 -1 -1 5 4 3 3 4 6 5 6 4
12 12 13 13 13 13 13 12 11 11 10 10 9 9 8 6 6 7 5 4 3 3 1 4 2 -1 -0 -6 -3 -1 -3 -3 -2 -3 1 5 5 5 6 5 1 5 5

GFSGL_sfc_dewp_105.txt.gz
Dewpoint
58 58 59 60 59 58 57 57 57 58 56 56 57 58 58 58 58 58 58 57 56 56 55 56 56 56 55 55 56 55 54 53 50 48 49 50 55 56 53 56 56 57 56
57 58 58 60 59 58 56 57 57 57 56 56 57 57 57 57 57 56 55 55 55 54 54 54 54 55 55 55 54 54 53 52 51 49 49 49 50 54 55 55 55 52 54
57 58 59 59 58 57 56 57 56 55 56 55 56 56 55 56 56 56 56 55 55 55 55 54 54 53 53 54 54 54 53 52 54 52 52 53 52 52 52 54 55 55 55
57 57 58 58 58 57 55 56 56 56 55 55 55 56 56 55 55 55 55 55 55 55 55 55 54 53 53 54 54 54 54 53 52 51 51 52 52 53 53 53 54 54 54
56 57 57 58 58 57 55 55 56 56 55 55 55 56 56 56 54 55 55 55 54 54 55 53 54 52 48 51 53 54 54 54 52 52 51 50 50 50 52 52 49 51 53
46 47 54 56 55 56 55 55 55 55 54 55 55 56 56 54 38 44 51 54 54 54 53 54 54 49 49 43 44 43 48 54 53 52 51 51 51 52 53 53 52 52 51
40 41 44 47 48 49 54 54 54 55 55 55 55 55 49 40 37 38 40 53 56 55 55 54 54 53 50 54 47 42 43 42 42 53 53 52 52 49 45 48 49 49 48
37 38 40 41 42 44 45 46 46 45 44 44 44 43 40 35 35 36 36 50 52 51 42 41 44 44 37 40 46 50 46 39 39 44 43 37 34 34 37 41 42 43 44
35 36 38 39 38 39 39 39 40 38 36 36 36 36 35 34 35 36 39 47 47 37 34 34 36 35 34 36 43 45 36 32 33 32 31 31 31 31 31 37 35 35 36
33 35 36 37 38 37 37 36 36 35 34 33 32 32 33 31 33 35 41 45 35 32 31 31 32 32 32 33 38 40 38 31 29 28 28 27 27 27 27 27 29 33 33
34 34 34 35 36 36 37 36 35 33 33 32 31 31 31 32 31 33 34 33 31 30 29 29 30 31 30 30 30 31 30 30 28 27 27 27 25 25 25 26 27 27 26
33 32 32 33 33 35 35 36 35 35 34 33 32 32 31 30 29 30 31 30 30 28 28 29 29 29 29 28 28 28 27 28 27 26 26 25 25 25 26 26 26 26 27
30 29 30 31 30 29 31 33 33 33 33 33 32 32 32 33 31 29 28 29 29 29 30 29 29 29 29 29 29 30 29 30 29 27 27 27 28 29 31 31 30 27 25
28 28 27 26 26 28 28 28 28 31 31 31 31 30 30 30 32 32 32 31 29 29 29 30 28 28 28 29 30 30 31 31 30 28 28 28 30 29 26 28 27 26 22
29 28 28 27 24 23 24 26 27 28 28 29 28 29 28 26 27 28 30 31 32 31 32 32 31 30 28 28 28 28 29 29 27 28 27 26 25 23 22 22 20 18 16
27 27 28 28 28 25 23 22 25 26 26 27 27 27 27 26 25 25 26 27 28 29 30 28 28 28 27 26 26 24 24 22 23 23 23 21 19 18 18 18 16 14 11
26 26 27 26 27 26 26 25 23 23 23 23 24 24 24 24 24 25 25 25 27 27 26 26 25 25 23 21 20 20 19 18 19 18 19 19 19 16 17 16 17 15 11
28 27 28 28 28 28 27 27 27 25 23 22 22 22 22 23 24 25 25 25 23 23 22 22 21 20 18 16 16 16 17 18 17 16 18 18 19 17 15 12 13 15 10
25 27 27 27 27 27 26 26 26 24 24 24 25 23 23 22 22 22 22 23 21 19 17 17 18 17 17 16 19 18 17 16 17 18 17 16 18 15 14 14 14 11 12
24 25 26 26 27 26 26 25 24 23 22 20 19 20 24 23 21 21 21 21 20 17 17 14 14 15 16 16 18 18 17 16 16 15 16 17 17 16 14 13 13 13 9
25 24 24 24 24 24 24 23 23 22 20 18 17 17 18 19 18 17 16 17 17 16 16 15 15 15 15 15 14 14 13 15 12 13 13 13 14 13 12 12 12 10 8
24 23 23 23 22 23 22 22 22 21 20 18 16 14 14 17 15 14 14 15 16 15 15 14 13 11 11 12 12 13 11 11 11 11 11 11 11 11 12 11 11 11 10
22 22 21 20 21 21 21 20 20 19 17 16 14 14 14 15 14 13 13 14 13 12 11 11 11 9 11 11 11 9 8 8 8 7 9 11 10 10 12 11 9 9 9
19 20 18 18 18 18 19 17 15 11 14 15 15 14 13 13 13 11 11 11 11 11 11 10 7 4 4 9 9 7 3 3 6 7 6 8 9 8 9 8 8 8 8
17 17 17 16 17 17 16 15 15 15 14 14 14 13 11 11 10 11 10 8 8 9 7 8 6 5 3 2 2 1 -1 -1 0 -1 6 7 7 5 6 6 7 6 7
13 13 14 15 15 15 14 14 13 13 12 12 12 11 11 9 9 9 7 5 5 5 4 6 4 2 2 4 2 -0 -2 -3 -2 -3 -0 5 6 6 7 7 6 6 5

GFSGL_sfc_dewp_108.txt.gz
Dewpoint
60 61 62 60 61 61 59 59 59 58 57 57 57 58 59 59 59 58 57 56 56 56 57 57 57 57 56 56 56 55 54 53 49 49 50 50 52 55 55 56 55 56 56
60 60 60 60 60 60 59 59 58 57 57 57 58 58 58 58 58 58 57 56 56 56 56 56 56 56 55 56 55 55 54 54 52 50 50 50 49 50 54 55 54 54 57
58 58 59 60 60 59 58 58 57 57 57 57 57 57 57 57 57 57 56 56 56 55 55 55 55 55 55 55 55 54 54 54 53 51 50 50 51 52 52 54 53 55 55
57 58 58 59 59 59 59 57 57 57 56 56 56 57 57 56 56 56 56 55 55 55 55 55 55 54 54 54 54 54 53 53 53 52 51 51 52 52 53 52 52 53 53
51 56 57 59 59 59 58 57 57 56 56 56 56 56 56 55 52 56 56 55 55 55 55 55 55 53 49 51 53 53 54 53 52 52 51 50 50 50 50 50 50 51 51
41 42 46 53 56 57 57 56 57 56 55 55 55 56 55 42 38 39 49 55 54 54 54 54 54 49 49 44 45 45 52 53 53 52 51 50 50 51 51 50 50 51 48
37 39 40 43 45 48 54 54 53 53 55 54 54 45 40 38 37 38 38 53 54 51 48 49 52 46 45 51 44 41 41 38 37 48 50 51 49 44 44 46 48 48 47
36 36 38 39 40 40 42 42 42 42 42 42 41 40 38 35 35 37 37 51 43 39 38 41 43 39 36 40 47 41 36 34 36 37 37 33 32 33 36 40 41 41 40
34 35 36 37 37 36 36 36 36 35 34 34 34 34 34 34 35 36 42 43 37 34 33 34 34 34 34 36 44 38 32 30 32 32 32 31 30 30 31 38 34 35 34
33 33 35 36 35 35 34 34 35 34 33 32 31 32 32 32 34 35 39 36 32 30 31 31 32 32 32 34 38 36 31 30 29 28 27 28 28 28 28 28 30 33 32
34 33 34 34 35 35 34 34 35 34 33 32 32 31 31 32 32 34 34 32 31 30 29 29 31 32 32 32 31 31 29 28 28 27 26 26 26 26 26 26 27 27 27
32 32 32 32 32 33 33 35 35 34 33 32 32 31 30 30 32 32 32 32 31 29 28 30 30 30 30 29 28 29 28 28 27 26 26 26 26 27 27 26 26 24 23
32 29 29 28 29 31 29 29 31 32 32 30 30 29 30 31 30 30 30 30 30 29 30 30 30 30 29 29 30 31 30 30 28 27 26 26 27 29 30 28 21 19 19
30 30 29 26 25 26 27 27 27 28 28 27 29 26 26 27 30 30 31 30 29 29 28 28 28 27 28 28 28 28 29 29 28 27 27 28 28 27 23 25 24 24 21
28 29 30 26 24 23 24 25 25 27 27 26 25 26 25 25 28 30 30 30 30 30 30 29 28 27 26 25 25 25 27 26 26 26 26 26 23 21 20 21 21 20 16
28 29 30 30 28 24 22 22 24 25 26 26 27 26 28 28 29 29 29 29 29 28 27 25 25 25 24 23 21 20 20 20 21 21 20 20 19 19 20 21 21 17 15
26 28 28 28 28 29 28 23 20 22 24 25 26 26 27 28 27 26 25 26 27 25 23 23 22 21 20 20 20 19 17 19 20 19 19 19 20 19 18 18 18 19 16
28 27 28 28 28 28 27 27 26 23 21 21 23 23 24 24 25 25 24 23 21 21 21 20 19 18 17 17 16 16 17 18 17 17 16 16 15 16 15 13 13 11 14
25 27 28 28 28 27 27 26 26 24 23 22 24 25 25 22 22 22 22 20 18 17 16 16 17 17 17 18 17 15 12 11 11 12 13 13 11 14 11 13 14 8 10
25 25 26 26 26 26 25 25 24 22 19 18 18 18 23 21 19 18 19 18 17 17 16 15 16 16 16 15 13 14 12 11 11 13 8 7 11 10 9 9 7 7 10
26 26 25 25 25 25 24 24 23 20 17 16 16 17 18 17 16 16 15 15 15 15 15 14 13 13 13 14 14 11 11 9 11 11 8 9 5 6 10 8 9 11 10
25 25 23 23 23 23 23 23 22 21 20 17 16 15 14 16 14 14 13 13 14 14 14 13 12 10 10 10 10 10 6 4 3 5 9 8 10 9 10 10 5 5 8
21 22 21 21 23 20 19 18 20 20 17 17 15 15 14 14 14 13 13 12 11 9 8 7 7 8 10 11 8 5 3 2 6 0 0 4 8 3 5 4 4 2 1
19 19 18 19 18 18 20 18 15 11 15 16 14 13 13 13 10 8 8 10 7 6 10 8 3 1 2 3 4 1 0 -2 1 -0 -1 2 3 3 1 2 5 -1 5
17 17 17 17 17 17 17 16 15 15 14 14 14 13 12 11 11 10 9 5 6 7 5 4 2 2 -1 -1 -2 -3 -7 -6 -9 -8 -4 -0 1 -2 4 1 3 -0 -1
13 14 14 15 15 15 15 14 13 13 12 12 11 10 10 9 10 9 6 3 3 4 4 5 1 -1 3 0 -2 -4 -6 -7 -10 -9 -10 -0 3 2 -2 -5 -2 -0 1

GFSGL_sfc_dewp_111.txt.gz
Dewpoint
59 60 61 61 60 61 60 59 59 58 57 57 57 59 59 59 59 58 58 57 57 57 57 57 56 56 57 56 55 55 53 52 49 49 51 54 52 55 55 56 55 55 55
58 58 59 60 61 60 59 58 58 57 57 56 57 57 59 59 59 58 57 57 57 56 56 57 57 57 56 56 56 55 55 55 53 51 52 52 52 52 53 55 55 56 56
54 57 58 58 59 59 59 57 57 57 57 57 57 57 58 59 58 58 57 56 56 56 56 56 56 56 55 56 55 55 55 55 54 54 53 53 52 51 50 52 53 55 55
45 49 54 58 59 59 58 57 57 57 57 57 58 57 57 57 57 57 57 57 56 56 56 56 56 55 55 55 55 55 55 54 54 53 52 51 51 52 53 52 51 53 53
40 42 44 47 58 58 58 57 57 57 57 57 57 57 57 57 53 57 56 55 55 55 55 55 55 54 50 52 54 54 54 53 53 52 52 52 51 50 50 51 51 51 52
38 39 41 42 44 53 57 57 56 56 56 56 56 55 46 42 38 40 52 55 55 55 55 55 55 50 48 45 45 47 51 53 53 52 52 51 51 50 51 50 50 50 48
36 37 38 38 40 41 43 50 52 54 53 52 48 44 40 39 37 39 39 55 54 50 49 52 52 45 46 51 44 39 37 37 37 50 51 49 48 41 44 47 48 48 47
34 35 36 37 37 38 38 36 37 39 39 39 38 38 36 35 36 37 41 44 40 38 39 41 42 40 37 43 43 37 34 34 35 36 36 33 33 34 37 40 42 41 35
32 34 35 35 36 37 35 34 35 34 33 33 34 34 34 34 36 38 41 38 34 33 33 34 35 35 35 38 38 33 31 30 33 33 32 32 32 32 33 38 34 35 33
32 32 34 34 34 34 34 34 34 34 32 32 32 32 33 33 35 36 36 34 31 31 31 32 33 33 34 36 37 33 29 29 29 28 28 28 28 29 29 29 31 33 32
32 31 30 32 32 32 34 34 33 33 32 32 30 30 31 32 32 34 34 32 31 30 30 30 31 32 33 33 33 32 30 29 28 28 27 27 27 26 26 27 27 28 27
30 29 28 29 30 30 31 32 32 32 32 31 30 30 30 30 32 32 33 32 32 29 29 30 31 32 32 31 30 30 30 29 28 28 27 27 27 25 23 22 21 21 21
29 28 27 26 27 28 27 28 29 30 30 28 27 27 29 31 30 31 31 31 31 29 30 31 31 30 30 29 30 30 29 28 27 26 25 26 27 25 22 20 20 19 18
30 27 26 24 24 25 26 26 26 26 26 26 26 26 27 29 30 31 30 30 30 29 28 28 27 26 26 27 28 28 28 28 25 25 25 23 20 19 18 19 19 19 17
28 29 27 23 22 22 24 25 25 27 27 25 26 26 26 27 30 31 30 30 30 29 28 27 26 24 23 22 22 22 24 24 23 23 21 20 20 20 19 20 19 17 14
26 27 28 29 24 22 21 22 26 27 28 28 29 28 29 30 30 29 29 29 28 28 26 24 23 22 21 19 19 19 20 20 20 20 19 19 18 19 19 19 18 16 12
26 26 26 27 27 27 23 21 19 22 25 26 27 27 29 27 27 27 26 25 24 22 20 19 19 18 18 19 19 19 17 18 19 18 18 18 17 16 15 15 15 15 15
24 26 24 24 25 25 25 25 22 19 18 20 24 25 25 25 24 23 22 21 19 19 19 18 18 18 17 16 16 16 16 17 16 16 15 14 14 15 14 13 12 9 13
23 24 25 24 25 24 23 23 21 19 18 17 18 22 22 22 21 21 21 18 16 16 16 16 17 17 16 16 15 14 13 12 12 10 11 12 8 12 10 11 10 7 9
24 23 23 22 22 22 22 19 18 16 16 15 16 18 18 17 15 14 15 15 15 15 14 13 13 13 14 13 12 10 10 11 10 10 6 5 3 7 6 6 5 3 9
23 17 17 19 21 20 20 19 14 14 14 12 14 16 15 14 13 13 12 12 12 12 10 10 8 9 10 10 9 7 5 2 5 5 7 7 -1 2 5 5 7 10 8
19 18 17 18 14 16 18 19 17 16 12 12 14 14 12 12 12 11 9 7 6 8 8 7 8 8 8 6 4 2 0 -1 -1 -2 0 4 4 5 6 4 0 1 4
15 16 14 14 16 11 9 13 15 12 10 11 10 9 8 7 8 9 8 -1 4 1 1 0 -0 3 5 0 -1 -2 -5 -5 -3 -10 -7 -3 -0 -1 -3 -1 3 -1 -2
14 14 16 16 13 11 13 9 7 8 10 5 1 1 2 -1 -2 -3 0 -3 -4 -4 -5 -6 -3 -2 -1 -6 -7 -6 -4 -9 -7 -8 -12 -7 -2 -1 -5 -3 -3 -7 -3
8 9 11 13 12 14 12 8 5 3 3 5 6 6 9 7 5 -3 -7 -7 -2 -3 -6 -6 -8 -2 -6 -8 -8 -8 -10 -10 -14 -12 -11 -7 -3 -2 -2 -3 -6 -5 -8
9 6 6 6 6 7 9 10 8 7 7 7 6 2 2 5 4 -0 -6 -5 -0 -4 1 -7 -5 -1 -4 -6 -7 -8 -11 -11 -13 -13 -15 -9 -11 -9 -11 -11 -8 -9 -4

GFSGL_sfc_dewp_114.txt.gz
Dewpoint
45 54 60 61 61 60 60 60 59 59 59 59 59 60 59 57 58 57 57 57 57 57 57 57 56 57 56 56 56 55 54 52 51 51 53 54 54 55 56 55 55 55 53
44 49 58 59 59 60 60 59 59 59 59 59 59 59 59 58 58 57 57 57 57 57 57 56 56 56 56 56 56 54 54 53 52 50 51 53 54 54 54 56 56 56 56
41 44 49 50 59 59 59 59 59 58 58 57 58 58 58 59 58 58 58 57 57 57 57 57 57 57 56 56 56 56 56 56 55 54 53 53 54 54 54 54 53 55 56
39 41 42 45 49 59 58 58 58 58 57 57 57 57 58 59 59 58 57 57 57 56 56 56 56 56 56 56 56 56 55 55 55 54 54 53 53 54 54 52 52 53 52
37 38 40 41 43 46 57 57 58 57 57 57 57 57 57 58 56 58 57 57 56 56 56 56 56 54 50 53 55 55 54 54 53 53 52 52 51 51 51 52 52 51 50
36 36 38 39 40 40 43 53 57 57 57 57 57 56 51 45 38 40 52 56 56 55 55 55 56 49 49 45 46 46 50 54 53 52 52 51 51 51 50 50 51 49 48
35 35 36 37 38 38 38 39 40 44 49 48 47 46 42 39 37 39 39 56 55 54 54 54 54 48 49 52 39 38 37 36 36 51 52 52 51 49 48 49 49 48 46
32 33 34 35 36 37 37 35 35 35 36 37 36 37 37 37 36 38 40 45 41 40 39 41 44 42 39 46 45 38 34 34 35 37 37 35 34 35 40 42 43 37 34
30 31 32 33 34 34 34 34 34 33 33 32 32 33 33 34 36 38 40 38 34 33 33 34 35 36 35 40 39 34 31 31 33 33 33 32 32 32 35 39 36 36 33
29 29 31 32 32 33 33 33 33 33 33 32 31 32 32 32 35 35 35 34 32 31 31 32 33 34 35 37 36 34 30 29 29 29 29 29 29 29 29 31 33 34 31
29 29 29 29 30 31 32 32 32 32 33 32 31 31 31 32 32 34 34 32 31 30 30 30 32 33 34 34 33 31 29 29 29 29 28 27 26 27 26 27 28 31 28
28 27 27 27 28 29 29 30 30 31 29 29 30 30 30 31 32 32 33 32 32 29 29 30 31 32 31 31 30 31 30 30 29 28 27 26 23 23 22 22 23 23 23
26 24 24 25 25 26 26 27 27 27 28 27 27 27 28 30 30 32 31 31 30 29 29 30 30 30 30 29 30 29 29 29 27 26 26 26 24 23 23 20 20 21 21
28 24 23 23 23 24 25 25 26 25 25 26 26 27 28 29 29 30 30 30 30 29 28 27 27 26 26 26 27 27 28 27 26 25 22 19 20 21 21 23 20 19 16
26 27 26 22 21 21 24 25 26 28 28 26 27 28 27 27 29 31 30 29 28 28 27 25 23 23 22 22 22 22 22 22 21 22 21 21 21 20 20 20 17 15 14
24 25 26 27 23 21 20 21 26 27 28 29 30 28 29 30 30 29 29 29 28 26 23 21 21 20 20 20 20 20 20 20 21 20 20 20 19 19 18 18 16 14 12
24 25 24 25 25 24 21 20 18 21 26 27 27 28 29 27 27 27 26 25 24 22 19 18 18 18 18 18 19 19 18 19 19 18 18 18 17 16 16 15 15 16 12
21 23 23 22 21 21 19 18 17 17 16 17 23 25 24 23 22 22 21 20 18 18 18 18 17 17 17 16 16 16 16 16 16 15 15 14 16 15 14 13 13 13 14
21 22 20 20 21 21 18 17 16 15 15 15 17 18 18 20 20 20 19 16 15 15 15 14 15 15 15 14 13 13 13 12 11 11 11 11 11 12 11 11 10 9 10
20 17 17 18 17 20 15 13 14 14 14 15 14 15 16 14 12 12 12 12 11 11 11 12 12 12 11 11 8 7 7 7 7 9 7 6 6 9 7 8 7 7 7
18 15 12 14 15 18 16 8 9 12 13 13 13 14 14 12 10 9 9 9 9 9 8 8 8 7 8 6 6 3 1 -0 2 3 4 5 1 5 6 7 6 7 7
12 11 13 15 11 10 14 15 10 7 12 13 11 11 10 9 9 7 5 3 3 5 4 4 6 4 2 1 0 -3 -4 -5 -5 -5 -2 -0 2 3 3 1 -1 -3 3
12 12 13 12 12 6 6 13 11 10 8 4 5 6 6 3 4 5 -0 -8 -0 -2 -2 -1 0 -0 -3 -5 -4 -5 -6 -9 -10 -12 -10 -8 -4 -2 -7 -4 -4 -3 -5
8 8 12 12 12 9 4 1 6 9 6 -0 -1 -0 -1 -4 -5 -5 -9 -12 -7 -12 -13 -8 -2 -2 -5 -12 -10 -7 -5 -13 -12 -13 -15 -13 -8 -4 -7 -5 -5 -10 -8
2 2 4 5 6 7 6 5 -4 -6 2 4 3 5 5 -0 -2 -9 -9 -6 -6 -7 -7 -7 -5 -6 -8 -10 -10 -9 -11 -14 -17 -15 -13 -11 -11 -12 -10 -9 -13 -8 -10
5 2 -1 -3 -2 -4 0 2 2 1 0 -2 -4 -5 -2 -1 -4 -10 -7 -6 -4 -4 -5 -8 -4 -6 -7 -6 -7 -9 -13 -12 -15 -16 -20 -12 -13 -13 -13 -13 -12 -12 -7

GFSGL_sfc_dewp_117.txt.gz
Dewpoint
41 44 47 50 59 62 61 60 60 60 59 59 60 59 58 58 57 57 56 56 56 56 57 57 56 56 56 56 56 55 54 53 50 51 52 53 54 55 54 56 55 55 56
40 42 44 46 50 61 60 60 59 59 59 59 60 60 59 58 57 57 56 56 56 55 56 57 56 56 56 56 56 55 54 54 53 50 52 53 53 55 55 55 55 55 55
38 40 41 43 45 48 58 59 59 59 59 59 60 59 59 58 57 57 57 56 56 56 57 56 56 56 56 56 55 55 55 55 53 53 52 53 54 54 54 54 55 56 56
37 38 38 40 42 43 48 58 59 59 59 59 59 59 59 58 57 57 57 57 57 57 57 57 57 56 56 56 56 55 55 55 54 53 53 53 53 54 54 53 53 54 53
35 36 37 38 40 40 42 44 55 58 58 58 58 59 58 58 58 58 58 57 57 57 57 57 57 55 51 53 56 56 55 55 55 54 53 52 52 51 52 53 53 53 52
32 33 35 36 37 38 38 39 38 41 52 57 57 57 56 47 39 45 54 57 56 56 55 56 56 50 49 45 46 46 52 55 53 52 52 52 52 52 52 52 52 50 47
31 31 32 34 35 36 36 36 36 35 37 38 42 44 41 38 37 39 43 57 56 56 55 55 55 53 50 52 38 38 37 36 37 52 52 52 51 51 50 49 50 49 46
29 29 31 32 33 34 35 34 35 36 34 34 35 36 37 35 38 39 38 50 44 41 41 43 50 47 42 47 45 40 35 35 36 38 39 37 36 37 42 45 46 37 35
28 28 29 31 31 31 32 33 34 34 34 33 33 33 34 34 35 36 39 38 35 34 34 35 37 39 36 40 42 35 32 31 33 34 33 33 33 34 36 41 36 37 33
27 27 28 28 29 29 31 31 33 33 32 33 32 32 33 32 35 35 34 33 32 32 32 32 34 35 36 37 38 35 31 29 29 29 29 29 29 30 30 31 34 35 32
26 26 26 27 28 28 29 30 30 31 31 32 31 31 31 32 32 35 34 33 32 30 30 30 32 34 34 34 34 32 30 29 29 28 27 27 26 26 26 28 29 33 32
25 23 23 24 26 27 27 28 29 29 28 28 29 29 30 30 32 32 32 32 32 30 29 30 31 32 32 32 31 31 31 30 29 27 25 23 23 23 24 24 25 25 25
28 23 23 23 24 25 25 26 26 27 27 27 27 28 28 30 30 31 31 30 29 27 28 28 29 29 30 29 29 29 29 29 28 26 23 22 23 24 25 25 25 24 23
25 26 23 22 22 24 24 25 26 26 25 26 27 27 28 28 29 29 29 28 29 27 26 26 26 26 26 25 25 26 26 26 25 23 22 23 24 23 22 22 20 19 17
23 24 26 22 21 21 22 25 26 27 29 25 26 27 26 26 28 30 28 27 26 26 25 24 23 22 22 22 22 23 23 23 22 23 22 21 21 21 19 20 17 14 14
22 23 23 24 22 21 20 19 23 25 26 28 29 26 28 28 27 27 27 26 26 25 21 19 19 19 19 19 19 19 20 21 21 21 20 20 19 18 17 17 16 14 11
22 23 22 22 22 21 19 18 16 19 21 23 25 26 25 24 24 24 24 23 22 20 18 17 17 17 18 18 18 18 17 19 20 19 18 18 18 17 17 17 16 15 13
18 18 18 19 17 15 13 11 11 11 11 15 20 21 22 22 22 22 20 18 16 16 16 15 15 16 16 15 15 15 14 14 15 15 15 15 16 16 15 14 15 15 13
19 17 16 14 17 13 11 10 10 10 10 12 15 15 15 18 18 18 17 13 12 12 13 12 13 13 12 11 11 11 10 10 10 10 11 12 12 13 11 12 11 10 11
17 15 12 13 15 12 9 8 10 11 11 11 12 12 12 10 8 8 9 9 9 9 9 9 10 9 8 8 6 6 7 7 7 9 8 7 7 9 8 8 8 7 8
9 9 10 10 9 14 9 5 5 7 9 9 9 11 10 8 6 6 6 6 6 6 6 7 5 4 5 4 3 1 -0 -1 2 3 5 6 3 7 8 8 7 7 7
11 10 10 10 7 5 10 12 8 4 5 5 5 8 6 6 4 3 1 -1 -1 3 4 3 1 1 -1 -1 -2 -6 -6 -8 -6 -5 -2 1 4 3 4 3 1 -1 4
6 6 9 11 9 4 4 7 5 1 -0 -3 1 1 1 -4 -3 -2 -5 -7 -2 -4 -2 -1 -3 -3 -5 -8 -7 -6 -8 -10 -11 -10 -12 -8 -1 -1 -6 -3 -3 -4 -6
3 2 7 9 8 8 2 -2 0 4 3 -4 -8 -7 -7 -10 -14 -12 -14 -14 -12 -13 -13 -9 -4 -5 -6 -13 -11 -8 -6 -14 -12 -12 -17 -15 -8 -4 -8 -7 -8 -13 -11
-3 -5 -5 -2 -2 1 0 -1 -5 -2 0 -1 -3 -2 -2 -7 -8 -14 -11 -10 -10 -11 -6 -8 -7 -9 -10 -9 -9 -9 -10 -10 -13 -12 -13 -12 -11 -13 -11 -11 -14 -9 -12
1 -3 -6 -8 -9 -10 -5 -3 -2 -4 -8 -8 -10 -10 -4 -3 -7 -14 -11 -6 -9 -9 -8 -10 -9 -10 -9 -8 -8 -10 -11 -11 -13 -15 -17 -11 -12 -14 -15 -15 -13 -13 -9

GFSGL_sfc_dewp_120.txt.gz
Dewpoint
38 41 42 43 45 48 58 60 61 59 60 60 60 60 60 59 59 59 58 57 56 56 56 57 56 57 56 56 56 56 55 54 51 53 55 56 56 55 54 56 56 55 54
38 39 40 42 43 45 47 53 60 59 59 59 59 60 59 59 59 58 57 56 55 55 56 56 56 56 56 56 56 55 55 54 53 51 53 53 55 55 55 55 55 55 56
35 37 38 39 40 41 44 46 54 59 59 59 60 60 59 58 58 58 57 56 56 55 55 56 56 56 55 56 56 55 55 54 54 53 52 53 54 55 54 55 55 56 56
34 34 36 37 38 39 41 42 43 47 58 59 59 59 59 59 58 58 57 56 55 55 56 56 56 56 56 55 55 55 55 55 54 54 53 52 53 54 54 54 53 54 50
32 33 34 35 37 37 39 39 40 40 42 44 58 59 59 59 58 58 57 56 56 55 56 57 57 55 51 53 56 55 55 55 54 53 53 53 53 52 53 54 53 54 51
30 31 33 33 34 35 36 37 37 38 38 38 40 45 51 44 40 45 53 56 57 56 56 57 57 50 50 46 46 48 53 55 54 54 53 52 52 53 54 54 53 50 46
29 29 30 31 32 33 34 34 35 36 36 36 36 36 37 37 37 43 43 57 56 56 56 56 56 55 51 54 39 38 37 37 39 54 53 52 51 52 52 51 52 50 47
27 27 28 29 30 31 32 32 33 34 34 34 34 35 35 35 36 38 41 50 46 40 40 43 53 52 50 47 45 40 36 36 37 39 41 39 39 41 46 49 50 39 36
25 25 27 28 28 29 29 31 32 32 32 32 32 32 33 33 35 35 36 36 34 33 33 34 35 41 37 42 43 36 32 32 34 34 34 34 34 34 36 43 39 39 34
23 24 25 27 27 28 29 29 31 31 31 30 30 30 31 31 33 35 35 33 32 31 32 32 33 35 36 37 41 37 33 30 30 30 29 29 29 30 30 32 34 36 32
24 23 24 25 26 27 28 29 29 30 30 30 30 30 30 30 31 32 34 32 32 31 31 31 32 33 34 34 34 34 32 30 28 28 28 27 27 26 26 27 27 32 33
26 23 23 24 25 26 26 27 27 28 28 27 28 28 30 30 31 31 31 30 30 28 27 29 30 32 32 32 31 32 31 30 28 27 25 24 24 24 24 25 25 25 26
24 25 22 23 23 25 24 25 26 25 25 25 26 26 27 28 29 30 30 29 28 26 27 28 28 27 27 27 28 29 29 29 26 23 22 22 23 25 26 25 26 25 24
22 23 23 21 21 22 23 24 24 25 24 24 24 24 25 26 27 27 27 26 26 26 25 25 26 26 25 24 25 25 25 25 24 23 22 23 24 23 22 24 23 23 21
20 21 22 22 20 20 21 23 23 25 26 24 24 24 23 23 26 26 26 25 25 24 24 23 22 22 21 22 22 22 23 23 23 23 23 23 22 21 21 21 18 17 16
19 20 21 21 21 20 18 18 21 23 23 24 25 24 24 25 24 24 24 24 23 22 20 18 18 19 18 19 19 19 20 21 22 22 21 21 20 19 19 19 18 15 15
19 20 19 19 19 17 16 15 12 15 19 21 21 22 22 22 22 22 21 20 20 18 15 15 15 16 17 17 17 17 16 18 20 20 20 20 20 19 19 18 18 16 15
15 15 14 15 12 9 6 7 7 10 8 10 15 18 20 20 20 19 18 15 12 13 13 12 12 13 13 13 13 13 14 15 16 16 17 17 18 17 17 16 16 16 14
16 15 12 10 9 7 7 7 7 9 9 10 11 12 12 15 16 16 14 9 9 9 10 10 10 10 9 9 9 9 9 10 11 11 12 12 14 14 13 12 11 12 12
11 12 9 9 9 9 6 6 6 6 6 6 7 7 8 7 5 5 6 5 7 7 8 7 7 6 5 6 5 5 7 7 8 9 8 8 10 11 10 10 10 9 8
7 8 7 8 7 8 5 4 3 3 3 3 1 -1 2 3 2 2 3 3 3 3 4 4 2 2 3 3 2 2 1 1 3 5 7 7 7 8 9 9 9 8 7
4 6 7 5 6 4 9 10 6 -1 -0 0 -2 3 -1 -2 -0 -0 -2 -5 -3 2 2 -0 -2 -2 -2 -2 -2 -3 -4 -4 -3 -1 3 5 6 6 6 5 5 6 6
3 2 5 7 7 3 1 5 2 -3 -4 -7 -2 -1 -2 -10 -11 -6 -9 -12 -5 -6 -4 -4 -4 -4 -5 -7 -5 -5 -5 -6 -6 -5 -2 2 3 3 3 3 3 3 2
0 -3 3 1 1 4 -2 -5 -4 0 -0 -7 -12 -10 -11 -14 -17 -15 -14 -14 -11 -13 -13 -11 -6 -6 -5 -8 -8 -5 -4 -8 -6 -5 -8 -2 1 1 0 0 1 -2 -2
-6 -7 -7 -5 -8 -9 -4 -1 -9 -12 -9 -10 -7 -4 -1 -10 -8 -16 -16 -13 -11 -12 -6 -7 -8 -9 -9 -10 -9 -9 -10 -11 -11 -11 -8 -6 -5 -6 -4 -3 -4 -2 -4
-1 -4 -7 -8 -9 -12 -15 -15 -9 -9 -11 -12 -12 -9 -6 -3 -3 -15 -14 -9 -10 -11 -11 -11 -9 -9 -8 -7 -7 -9 -11 -11 -12 -16 -13 -6 -5 -6 -6 -6 -6 -4 -5

GFSGL_sfc_dewp_123.txt.gz
Dewpoint
37 39 40 40 42 44 46 47 50 59 62 61 61 61 61 62 61 60 59 60 60 59 59 58 58 58 58 58 58 57 57 57 54 55 56 57 57 57 58 57 57 58 57
36 37 39 39 40 41 42 44 45 48 61 61 61 61 61 61 60 59 59 59 59 58 58 58 57 57 57 57 57 57 57 57 55 52 55 55 56 57 57 56 55 56 56
35 36 36 37 38 39 40 41 43 44 47 58 60 60 60 60 60 59 59 59 58 58 57 57 57 57 57 57 57 57 57 56 55 53 53 55 55 56 56 56 56 56 56
33 34 35 36 36 37 38 39 40 41 42 43 46 57 59 59 59 59 59 58 58 58 57 57 57 57 57 57 57 57 57 56 55 54 53 53 54 55 55 54 54 57 55
31 32 33 34 35 36 36 37 37 38 39 41 40 41 41 44 39 40 55 58 57 57 56 57 58 56 51 54 57 57 56 55 54 54 53 53 53 53 53 55 54 54 51
29 30 31 32 32 34 35 35 35 35 35 36 37 38 37 37 36 37 41 56 57 56 56 57 57 51 51 47 47 48 54 56 54 54 53 52 53 53 54 54 53 52 47
27 27 28 30 31 32 32 33 34 34 33 33 32 34 34 34 35 37 38 49 56 56 57 57 57 56 52 55 45 41 40 40 42 56 54 54 53 54 54 53 54 53 51
26 26 27 28 29 30 31 31 32 33 32 32 32 31 32 31 34 35 36 38 37 36 37 39 45 53 54 54 47 44 41 39 41 43 50 52 50 51 54 53 52 40 37
25 25 26 28 28 28 29 30 32 32 32 32 31 31 30 31 32 33 35 35 34 33 33 34 35 38 36 40 46 40 34 33 35 35 35 35 35 35 40 47 41 41 35
25 26 26 27 27 28 30 30 31 32 32 32 32 32 31 30 32 32 31 33 33 33 32 32 33 34 34 35 42 40 36 32 32 32 32 31 31 31 31 33 43 44 34
27 26 26 27 28 28 28 30 30 31 31 30 30 31 30 30 31 31 30 28 28 28 27 28 30 32 33 34 34 34 32 31 30 29 29 28 28 27 27 28 29 34 34
25 26 25 26 26 27 27 28 28 27 27 27 27 27 29 30 28 29 29 29 28 26 26 27 28 29 29 29 31 32 31 31 29 27 25 24 24 24 25 26 26 27 28
23 23 24 24 25 26 25 25 25 25 25 25 25 25 25 26 28 28 28 28 28 28 28 28 28 27 27 26 28 27 28 27 26 24 22 22 23 25 26 26 27 27 26
20 21 21 22 21 22 22 23 23 25 23 22 23 24 25 26 26 26 26 29 26 27 26 26 26 26 26 26 26 26 26 25 24 23 22 23 24 23 23 24 23 25 23
18 19 20 19 18 17 20 21 21 23 23 23 23 23 24 24 25 24 25 26 26 24 25 25 24 24 24 23 23 24 26 26 25 25 24 24 23 23 23 25 24 24 23
16 17 19 20 19 17 17 18 20 20 21 21 21 22 23 22 22 22 22 22 21 21 22 21 21 22 21 21 21 22 23 23 24 24 23 23 22 22 21 21 21 21 19
17 18 18 18 16 17 17 17 17 19 17 18 19 19 20 20 20 20 19 18 19 19 19 19 19 19 19 19 20 20 20 21 22 22 22 22 22 21 20 19 19 20 19
19 17 19 20 19 19 18 18 17 16 16 16 16 16 17 18 18 18 17 16 16 16 16 16 16 16 15 14 15 17 18 19 19 20 20 21 22 21 20 18 17 17 14
17 18 18 19 19 17 18 17 16 15 14 13 13 12 12 14 14 14 14 14 14 13 13 12 14 13 13 13 16 16 16 16 17 18 17 18 19 16 16 15 15 14 13
15 14 15 17 17 17 17 16 15 14 13 12 11 10 11 10 11 11 12 12 12 11 11 9 9 10 12 12 14 16 16 16 16 16 17 18 18 17 15 14 15 14 12
14 15 13 15 15 16 16 15 14 13 12 11 11 9 6 8 8 8 7 8 8 8 9 8 8 8 8 10 10 12 11 14 13 14 15 15 16 14 13 13 12 10 9
12 12 13 13 14 14 13 14 14 13 11 10 10 9 5 9 7 6 6 6 7 7 6 5 4 2 2 4 5 9 8 9 10 12 13 13 13 13 12 11 11 11 8
10 10 10 10 11 11 12 11 12 12 11 11 9 9 8 8 8 7 6 6 5 5 4 4 4 2 1 1 3 3 4 4 5 6 10 12 12 12 13 11 10 9 8
8 9 8 9 10 9 10 11 10 8 9 10 10 9 8 8 8 7 6 6 6 5 4 3 1 -1 -1 0 1 1 1 3 4 5 6 10 10 9 10 9 9 8 8
9 9 8 8 7 8 8 8 9 9 9 9 9 9 8 8 7 7 7 6 5 5 3 3 2 0 -2 -3 -3 -3 -3 -2 -1 -1 7 7 7 7 7 7 8 7 6
7 8 8 8 7 7 7 7 7 7 7 8 8 8 7 7 6 7 6 5 5 4 2 4 1 -1 -2 -2 -3 -4 -5 -4 -2 -5 3 7 6 6 6 5 4 6 4